[[{"header":{"parameterUnit":"m.s-1","parameterCategory":1,"la1":31.0,"la2":29.5877,"lo1":-88.7671,"lo2":-86.6584,"dy":0.0162,"dx":0.0185,"nx":115,"ny":88,"refTime":"2025-01-22T06:00:00:Z","depth":0,"parameterNumber":2,"parameterNumberName":"U-component_of_WINDS"},"data":[0.0,0.0,0.0,0.0,0.0,0.0,0.0,0.0,0.0,0.0,0.0,0.0,0.0,0.0,0.0,0.0,0.0,0.0,0.0,0.0,0.0,0.0,0.0,0.0,0.0,0.0,0.0,0.0,0.0,0.0,0.0,0.0,0.0,0.0,0.0,0.0,0.0,0.0,0.0,0.0,0.0,0.0,0.0,0.0,0.0,0.0,0.0,0.0,0.0,0.0,0.0,0.0,0.0,0.0,0.0,0.0,0.0,0.0,0.0,0.0,0.0,0.0,0.0,0.0,0.0,0.0,0.0,0.0,0.0,0.0,0.0,0.0,0.0,0.0,0.0,0.0,0.0,0.0,0.0,0.0,0.0,0.0,0.0,0.0,0.0,0.0,0.0,0.0,0.0,0.0,0.0,0.0,0.0,0.0,0.0,0.0,0.0,0.0,0.0,0.0,0.0,0.0,0.0,0.0,0.0,0.0,0.0,0.0,0.0,0.0,0.0,0.0,0.0,0.0,0.0,0.0,0.0,0.0,0.0,0.0,0.0,0.0,0.0,0.0,0.0,0.0,0.0,0.0,0.0,0.0,0.0,0.0,0.0,0.0,0.0,0.0,0.0,0.0,0.0,0.0,0.0,0.0,0.0,0.0,0.0,0.0,0.0,0.0,0.0,0.0,0.0,0.0,0.0,0.0,0.0,0.0,0.0,0.0,0.0,0.0,0.0,0.0,0.0,0.0,0.0,0.0,0.0,0.0,0.0,0.0,0.0,0.0,0.0,0.0,0.0,0.0,0.0,0.0,0.0,0.0,0.0,0.0,0.0,0.0,0.0,0.0,0.0,0.0,0.0,0.0,0.0,0.0,0.0,0.0,0.0,0.0,0.0,0.0,0.0,0.0,0.0,0.0,0.0,0.0,0.0,0.0,0.0,0.0,0.0,0.0,0.0,0.0,0.0,0.0,0.0,0.0,0.0,0.0,0.0,0.0,0.0,0.0,0.0,0.0,0.0,0.0,0.0,0.0,0.0,0.0,0.0,0.0,0.0,0.0,0.0,0.0,0.0,0.0,0.0,0.0,0.0,0.0,0.0,0.0,0.0,0.0,0.0,0.0,0.0,0.0,0.0,0.0,0.0,0.0,0.0,0.0,0.0,0.0,0.0,0.0,0.0,0.0,0.0,0.0,0.0,0.0,0.0,0.0,0.0,0.0,0.0,0.0,0.0,0.0,0.0,0.0,0.0,0.0,0.0,0.0,0.0,0.0,0.0,0.0,0.0,0.0,0.0,0.0,0.0,0.0,0.0,0.0,0.0,0.0,0.0,0.0,0.0,0.0,0.0,0.0,0.0,0.0,0.0,0.0,0.0,0.0,0.0,0.0,0.0,0.0,0.0,0.0,0.0,0.0,0.0,0.0,0.0,0.0,0.0,0.0,0.0,0.0,0.0,0.0,0.0,0.0,0.0,0.0,0.0,0.0,0.0,0.0,0.0,0.0,0.0,0.0,0.0,0.0,0.0,0.0,0.0,0.0,0.0,0.0,0.0,0.0,0.0,0.0,0.0,0.0,0.0,0.0,0.0,0.0,0.0,0.0,0.0,0.0,0.0,0.0,0.0,0.0,0.0,0.0,0.0,0.0,0.0,0.0,0.0,0.0,0.0,0.0,0.0,0.0,0.0,0.0,0.0,0.0,0.0,0.0,0.0,0.0,0.0,0.0,0.0,0.0,0.0,0.0,0.0,0.0,0.0,0.0,0.0,0.0,0.0,0.0,0.0,0.0,0.0,0.0,0.0,0.0,0.0,0.0,0.0,0.0,0.0,0.0,0.0,0.0,0.0,0.0,0.0,0.0,0.0,0.0,0.0,0.0,0.0,0.0,0.0,0.0,0.0,0.0,0.0,0.0,0.0,0.0,0.0,0.0,0.0,0.0,0.0,0.0,0.0,0.0,0.0,0.0,0.0,0.0,0.0,0.0,0.0,0.0,0.0,0.0,0.0,0.0,0.0,0.0,0.0,0.0,0.0,0.0,0.0,0.0,0.0,0.0,0.0,0.0,0.0,0.0,0.0,0.0,0.0,0.0,0.0,0.0,0.0,0.0,0.0,0.0,0.0,0.0,0.0,0.0,0.0,0.0,0.0,0.0,0.0,0.0,0.0,0.0,0.0,0.0,0.0,0.0,0.0,0.0,0.0,0.0,0.0,0.0,0.0,0.0,0.0,0.0,0.0,0.0,0.0,0.0,0.0,0.0,0.0,0.0,0.0,0.0,0.0,0.0,0.0,0.0,0.0,0.0,0.0,0.0,0.0,0.0,0.0,0.0,0.0,0.0,0.0,0.0,0.0,0.0,0.0,0.0,0.0,0.0,0.0,0.0,0.0,0.0,0.0,0.0,0.0,0.0,0.0,0.0,0.0,0.0,0.0,0.0,0.0,0.0,0.0,0.0,0.0,0.0,0.0,0.0,0.0,0.0,0.0,0.0,0.0,0.0,0.0,0.0,0.0,0.0,0.0,0.0,0.0,0.0,0.0,0.0,0.0,0.0,0.0,0.0,0.0,0.0,0.0,0.0,0.0,0.0,0.0,0.0,0.0,0.0,0.0,0.0,0.0,0.0,0.0,0.0,0.0,0.0,0.0,0.0,0.0,0.0,0.0,0.0,0.0,0.0,0.0,0.0,0.0,0.0,0.0,0.0,0.0,0.0,0.0,0.0,0.0,0.0,0.0,0.0,0.0,0.0,0.0,0.0,0.0,0.0,0.0,0.0,0.0,0.0,0.0,0.0,0.0,0.0,0.0,0.0,0.0,0.0,0.0,0.0,0.0,0.0,0.0,0.0,0.0,0.0,0.0,0.0,0.0,0.0,0.0,0.0,0.0,0.0,0.0,0.0,0.0,0.0,0.0,0.0,0.0,0.0,0.0,0.0,0.0,0.0,0.0,0.0,0.0,0.0,0.0,0.0,0.0,0.0,0.0,0.0,0.0,0.0,0.0,0.0,0.0,0.0,0.0,0.0,0.0,0.0,0.0,0.0,0.0,0.0,0.0,0.0,0.0,0.0,0.0,0.0,0.0,0.0,0.0,0.0,0.0,0.0,0.0,0.0,0.0,0.0,0.0,0.0,0.0,0.0,0.0,0.0,0.0,0.0,0.0,0.0,0.0,0.0,0.0,0.0,0.0,0.0,0.0,0.0,0.0,0.0,0.0,0.0,0.0,0.0,0.0,0.0,0.0,0.0,0.0,0.0,0.0,0.0,0.0,0.0,0.0,0.0,0.0,0.0,0.0,0.0,0.0,0.0,0.0,0.0,0.0,0.0,0.0,0.0,0.0,0.0,0.0,0.0,0.0,0.0,0.0,0.0,0.0,0.0,0.0,0.0,0.0,0.0,0.0,0.0,0.0,0.0,0.0,0.0,0.0,0.0,0.0,0.0,0.0,0.0,0.0,0.0,0.0,0.0,0.0,0.0,0.0,0.0,0.0,0.0,0.0,0.0,0.0,0.0,0.0,0.0,0.0,0.0,0.0,0.0,0.0,0.0,0.0,0.0,0.0,0.0,0.0,0.0,0.0,0.0,0.0,0.0,0.0,0.0,0.0,0.0,0.0,0.0,0.0,0.0,0.0,0.0,0.0,0.0,0.0,0.0,0.0,0.0,0.0,0.0,0.0,0.0,0.0,0.0,0.0,0.0,0.0,0.0,0.0,0.0,0.0,0.0,0.0,0.0,0.0,0.0,0.0,0.0,0.0,0.0,0.0,0.0,0.0,0.0,0.0,0.0,0.0,0.0,0.0,0.0,0.0,0.0,0.0,0.0,0.0,0.0,0.0,0.0,0.0,0.0,0.0,0.0,0.0,0.0,0.0,0.0,0.0,0.0,0.0,0.0,0.0,0.0,0.0,0.0,0.0,0.0,0.0,0.0,0.0,0.0,0.0,0.0,0.0,0.0,0.0,0.0,0.0,0.0,0.0,0.0,0.0,0.0,0.0,0.0,0.0,0.0,0.0,0.0,0.0,0.0,0.0,0.0,0.0,0.0,0.0,0.0,0.0,0.0,0.0,0.0,0.0,0.0,0.0,0.0,0.0,0.0,0.0,0.0,0.0,0.0,0.0,0.0,0.0,0.0,0.0,0.0,0.0,0.0,0.0,0.0,0.0,0.0,0.0,0.0,0.0,0.0,0.0,0.0,0.0,0.0,0.0,0.0,0.0,0.0,0.0,0.0,0.0,0.0,0.0,0.0,0.0,0.0,0.0,0.0,0.0,0.0,0.0,0.0,0.0,0.0,0.0,0.0,0.0,0.0,-0.7826,0.0,0.0,0.0,0.0,0.0,0.0,0.0,0.0,0.0,0.0,0.0,0.0,0.0,0.0,0.0,0.0,0.0,0.0,0.0,0.0,0.0,0.0,0.0,0.0,0.0,0.0,0.0,0.0,0.0,0.0,0.0,0.0,0.0,0.0,0.0,0.0,0.0,0.0,0.0,0.0,0.0,0.0,0.0,0.0,0.0,0.0,0.0,0.0,0.0,0.0,0.0,0.0,0.0,0.0,0.0,0.0,0.0,0.0,0.0,0.0,0.0,0.0,0.0,0.0,0.0,0.0,0.0,0.0,0.0,0.0,0.0,0.0,0.0,0.0,0.0,0.0,0.0,0.0,0.0,0.0,0.0,0.0,0.0,0.0,0.0,0.0,0.0,0.0,0.0,0.0,0.0,0.0,0.0,0.0,0.0,0.0,0.0,0.0,0.0,0.0,0.0,0.0,0.0,0.0,0.0,0.0,0.0,0.0,0.0,0.0,-0.8284,-0.8113,-0.7923,-0.7664,-0.7329,0.0,0.0,0.0,0.0,0.0,0.0,0.0,0.0,0.0,0.0,0.0,0.0,0.0,0.0,0.0,0.0,0.0,0.0,0.0,0.0,0.0,0.0,0.0,0.0,0.0,0.0,0.0,0.0,0.0,0.0,0.0,0.0,0.0,0.0,0.0,0.0,0.0,0.0,0.0,0.0,0.0,0.0,0.0,0.0,0.0,0.0,0.0,0.0,0.0,0.0,0.0,0.0,0.0,0.0,0.0,0.0,0.0,0.0,0.0,0.0,0.0,0.0,0.0,0.0,0.0,0.0,0.0,0.0,0.0,0.0,0.0,0.0,0.0,0.0,0.0,0.0,0.0,0.0,0.0,0.0,0.0,0.0,0.0,0.0,0.0,0.0,0.0,0.0,0.0,0.0,0.0,0.0,0.0,0.0,0.0,0.0,0.0,0.0,0.0,0.0,0.0,0.0,0.0,0.0,0.0,0.0,0.0,0.0,0.0,0.0,0.0,0.0,-0.8044,-0.7797,-0.7117,0.0,0.0,0.0,0.0,0.0,0.0,0.0,0.0,0.0,0.0,0.0,0.0,0.0,0.0,0.0,0.0,0.0,0.0,0.0,0.0,0.0,0.0,0.0,0.0,0.0,0.0,0.0,0.0,0.0,0.0,0.0,0.0,0.0,0.0,0.0,0.0,0.0,0.0,0.0,0.0,0.0,0.0,0.0,0.0,0.0,0.0,0.0,0.0,0.0,0.0,0.0,0.0,0.0,0.0,0.0,0.0,0.0,0.0,0.0,0.0,0.0,0.0,0.0,0.0,0.0,0.0,0.0,0.0,0.0,0.0,0.0,0.0,0.0,0.0,0.0,0.0,0.0,0.0,0.0,0.0,0.0,0.0,0.0,0.0,0.0,0.0,0.0,0.0,0.0,0.0,0.0,0.0,0.0,0.0,0.0,0.0,0.0,0.0,0.0,0.0,0.0,0.0,0.0,0.0,0.0,0.0,0.0,0.0,0.0,0.0,-0.7483,-0.7296,-0.7865,0.0,-0.7421,0.0,0.0,0.0,0.0,0.0,0.0,0.0,0.0,0.0,0.0,0.0,0.0,0.0,0.0,0.0,0.0,0.0,0.0,0.0,0.0,0.0,0.0,0.0,0.0,0.0,0.0,0.0,0.0,0.0,0.0,0.0,0.0,0.0,0.0,0.0,0.0,0.0,0.0,0.0,0.0,0.0,0.0,0.0,0.0,0.0,0.0,0.0,0.0,0.0,0.0,0.0,0.0,0.0,0.0,0.0,0.0,0.0,0.0,0.0,0.0,0.0,0.0,0.0,0.0,0.0,0.0,0.0,0.0,0.0,0.0,0.0,0.0,0.0,0.0,0.0,0.0,0.0,0.0,0.0,0.0,0.0,0.0,0.0,0.0,0.0,0.0,0.0,0.0,0.0,0.0,0.0,0.0,0.0,0.0,0.0,0.0,0.0,0.0,0.0,0.0,0.0,0.0,0.0,0.0,0.0,0.0,0.0,0.0,0.0,0.0,-0.5126,-0.6977,-0.7052,-0.6953,0.0,0.0,0.0,0.0,0.0,0.0,0.0,0.0,0.0,0.0,0.0,0.0,0.0,0.0,0.0,0.0,0.0,0.0,0.0,0.0,0.0,0.0,0.0,0.0,0.0,0.0,0.0,0.0,0.0,0.0,0.0,0.0,0.0,0.0,0.0,0.0,0.0,0.0,0.0,0.0,0.0,0.0,0.0,0.0,0.0,0.0,0.0,0.0,0.0,0.0,0.0,0.0,0.0,0.0,0.0,0.0,0.0,0.0,0.0,0.0,0.0,0.0,0.0,0.0,0.0,0.0,0.0,0.0,0.0,0.0,0.0,0.0,0.0,0.0,0.0,0.0,0.0,0.0,0.0,0.0,0.0,0.0,0.0,0.0,0.0,0.0,0.0,0.0,0.0,0.0,0.0,0.0,0.0,0.0,0.0,0.0,0.0,0.0,0.0,0.0,0.0,0.0,0.0,0.0,0.0,0.0,0.0,0.0,0.0,0.0,-0.326,0.0,-0.651,-0.6361,-0.6213,-0.6295,0.0,0.0,0.0,0.0,0.0,0.0,0.0,0.0,0.0,0.0,0.0,0.0,0.0,0.0,0.0,0.0,0.0,0.0,0.0,0.0,0.0,0.0,0.0,0.0,0.0,0.0,0.0,0.0,0.0,0.0,0.0,0.0,0.0,0.0,0.0,0.0,0.0,0.0,0.0,0.0,0.0,0.0,0.0,0.0,0.0,0.0,0.0,0.0,0.0,0.0,0.0,0.0,0.0,0.0,0.0,0.0,0.0,0.0,0.0,0.0,0.0,0.0,0.0,0.0,0.0,0.0,0.0,0.0,0.0,0.0,0.0,0.0,0.0,0.0,0.0,0.0,0.0,0.0,0.0,0.0,0.0,0.0,0.0,0.0,0.0,0.0,0.0,0.0,0.0,0.0,0.0,0.0,0.0,0.0,0.0,0.0,0.0,0.0,0.0,0.0,0.0,0.0,0.0,0.0,0.0,0.0,0.0,0.0,0.0,-0.39,-0.4961,-0.6114,-0.5948,-0.6131,0.0,0.0,0.0,0.0,0.0,0.0,0.0,0.0,0.0,0.0,0.0,0.0,0.0,0.0,0.0,0.0,0.0,0.0,0.0,0.0,0.0,0.0,0.0,0.0,0.0,0.0,0.0,0.0,0.0,0.0,0.0,0.0,0.0,0.0,0.0,0.0,0.0,0.0,0.0,0.0,0.0,0.0,0.0,0.0,0.0,0.0,0.0,0.0,0.0,0.0,0.0,0.0,0.0,0.0,0.0,0.0,0.0,0.0,0.0,0.0,0.0,0.0,0.0,0.0,0.0,0.0,0.0,0.0,0.0,0.0,0.0,0.0,0.0,0.0,0.0,0.0,0.0,0.0,0.0,0.0,0.0,0.0,0.0,0.0,0.0,0.0,0.0,0.0,0.0,0.0,0.0,0.0,0.0,0.0,0.0,0.0,0.0,0.0,0.0,0.0,0.0,0.0,0.0,0.0,0.0,0.0,0.0,0.0,0.0,-0.3712,-0.4599,-0.4485,-0.3238,-0.4763,-0.5787,0.0,0.0,0.0,0.0,0.0,0.0,0.0,0.0,0.0,0.0,0.0,0.0,0.0,0.0,0.0,0.0,0.0,0.0,0.0,0.0,0.0,0.0,0.0,0.0,0.0,0.0,0.0,0.0,0.0,0.0,0.0,0.0,0.0,0.0,0.0,0.0,0.0,0.0,0.0,0.0,0.0,0.0,0.0,0.0,0.0,0.0,0.0,0.0,0.0,0.0,0.0,0.0,0.0,0.0,0.0,0.0,0.0,0.0,0.0,0.0,0.0,0.0,0.0,0.0,0.0,0.0,0.0,0.0,0.0,0.0,0.0,0.0,0.0,0.0,0.0,0.0,0.0,0.0,0.0,0.0,0.0,0.0,0.0,0.0,0.0,0.0,0.0,0.0,0.0,0.0,0.0,0.0,0.0,0.0,0.0,0.0,0.0,0.0,0.0,0.0,0.0,0.0,0.0,0.0,0.0,0.0,0.0,0.0,0.0,-0.422,0.0,-0.3934,0.0,-0.4371,-0.5427,0.0,0.0,0.0,0.0,0.0,0.0,0.0,0.0,0.0,0.0,0.0,0.0,0.0,0.0,0.0,0.0,0.0,0.0,0.0,0.0,0.0,0.0,0.0,0.0,0.0,0.0,0.0,0.0,0.0,0.0,0.0,0.0,0.0,0.0,0.0,0.0,0.0,0.0,0.0,0.0,0.0,0.0,0.0,0.0,0.0,0.0,0.0,0.0,0.0,0.0,0.0,0.0,0.0,0.0,0.0,0.0,0.0,0.0,0.0,0.0,0.0,0.0,0.0,0.0,0.0,0.0,0.0,0.0,0.0,0.0,0.0,0.0,0.0,0.0,0.0,0.0,0.0,0.0,0.0,0.0,0.0,0.0,0.0,0.0,0.0,0.0,0.0,0.0,0.0,0.0,0.0,0.0,0.0,0.0,0.0,0.0,0.0,0.0,0.0,0.0,0.0,0.0,0.0,0.0,0.0,0.0,0.0,0.0,-0.6196,-0.4544,-0.3535,-0.3186,-0.3823,-0.4679,-0.4964,0.0,0.0,0.0,0.0,0.0,0.0,0.0,0.0,0.0,0.0,0.0,0.0,0.0,0.0,0.0,0.0,0.0,0.0,0.0,0.0,0.0,0.0,0.0,0.0,0.0,0.0,0.0,0.0,0.0,0.0,0.0,0.0,0.0,0.0,0.0,0.0,0.0,0.0,0.0,0.0,0.0,0.0,0.0,0.0,0.0,0.0,0.0,0.0,0.0,0.0,0.0,0.0,0.0,0.0,0.0,0.0,0.0,0.0,0.0,0.0,0.0,0.0,0.0,0.0,0.0,0.0,0.0,0.0,0.0,0.0,0.0,0.0,0.0,0.0,0.0,0.0,0.0,0.0,0.0,0.0,0.0,0.0,0.0,0.0,0.0,0.0,0.0,0.0,0.0,0.0,0.0,0.0,0.0,0.0,0.0,0.0,0.0,0.0,0.0,0.0,0.0,0.0,0.0,0.0,0.0,0.0,0.0,0.0,0.0,-0.0647,0.0454,0.0238,-0.1337,-0.163,-0.2512,0.0,0.0,0.0,0.0,0.0,0.0,0.0,0.0,0.0,0.0,0.0,0.0,0.0,0.0,0.0,0.0,0.0,0.0,0.0,0.0,0.0,0.0,0.0,0.0,0.0,0.0,0.0,0.0,0.0,0.0,0.0,0.0,0.0,0.0,0.0,0.0,0.0,0.0,0.0,0.0,0.0,0.0,0.0,0.0,0.0,0.0,0.0,0.0,0.0,0.0,0.0,0.0,0.0,0.0,0.0,0.0,0.0,0.0,0.0,0.0,0.0,0.0,0.0,0.0,0.0,0.0,0.0,0.0,0.0,0.0,0.0,0.0,0.0,0.0,0.0,0.0,0.0,0.0,0.0,0.0,0.0,0.0,0.0,0.0,0.0,0.0,0.0,0.0,0.0,0.0,0.0,0.0,0.0,0.0,0.0,0.0,0.0,0.0,0.0,0.0,0.0,0.0,0.0,0.0,0.0,0.0,0.0,0.0,0.0,0.3748,0.3098,0.2096,0.0814,0.0814,-0.0214,-0.2369,0.0,0.0,0.0,0.0,0.0,0.0,0.0,0.0,0.0,0.0,0.0,0.0,0.0,0.0,0.0,0.0,0.0,0.0,0.0,0.0,0.0,0.0,0.0,0.0,0.0,0.0,0.0,0.0,0.0,0.0,0.0,0.0,0.0,0.0,0.0,0.0,0.0,0.0,0.0,0.0,0.0,0.0,0.0,0.0,0.0,0.0,0.0,0.0,0.0,0.0,0.0,0.0,0.0,0.0,0.0,0.0,0.0,0.0,0.0,0.0,0.0,0.0,0.0,0.0,0.0,0.0,0.0,0.0,0.0,0.0,0.0,0.0,0.0,0.0,0.0,0.0,0.0,0.0,0.0,0.0,0.0,0.0,0.0,0.0,0.0,0.0,0.0,0.0,0.0,0.0,0.0,0.0,0.0,0.0,0.0,0.0,0.0,0.0,0.0,0.0,0.0,0.0,0.0,0.0,0.0,0.0,0.0,0.0,0.8287,0.4787,0.2941,0.2822,0.2682,0.1834,0.0,0.0,0.0,0.0,0.0,0.0,0.0,0.0,0.0,0.0,0.0,0.0,0.0,0.0,0.0,0.0,0.0,0.0,0.0,0.0,0.0,0.0,0.0,0.0,0.0,0.0,0.0,0.0,0.0,0.0,0.0,0.0,0.0,0.0,0.0,0.0,0.0,0.0,0.0,0.0,0.0,0.0,0.0,0.0,0.0,0.0,0.0,0.0,0.0,0.0,0.0,0.0,0.0,0.0,0.0,0.0,0.0,0.0,0.0,0.0,0.0,0.0,0.0,0.0,0.0,0.0,0.0,0.0,0.0,0.0,0.0,0.0,0.0,0.0,0.0,0.0,0.0,0.0,0.0,0.0,0.0,0.0,0.0,0.0,0.0,0.0,0.0,0.0,0.0,0.0,0.0,0.0,0.0,0.0,0.0,0.0,0.0,0.0,0.0,0.0,0.0,0.0,0.0,0.0,0.0,0.0,0.0,0.0,0.0,0.8323,0.8974,0.8028,0.5378,0.5084,0.3317,0.0,0.0,0.0,0.0,0.0,0.0,0.0,0.0,0.0,0.0,0.0,0.0,0.0,0.0,0.0,0.0,0.0,0.0,0.0,0.0,0.0,0.0,0.0,0.0,0.0,0.0,0.0,0.0,0.0,0.0,0.0,0.0,0.0,0.0,0.0,0.0,0.0,0.0,0.0,0.0,0.0,0.0,0.0,0.0,0.0,0.0,0.0,0.0,0.0,0.0,0.0,0.0,0.0,0.0,0.0,0.0,0.0,0.0,0.0,0.0,0.0,0.0,0.0,0.0,0.0,0.0,0.0,0.0,0.0,0.0,0.0,0.0,0.0,0.0,0.0,0.0,0.0,0.0,0.0,0.0,0.0,0.0,0.0,0.0,0.0,0.0,0.0,0.0,0.0,0.0,0.0,0.0,0.0,0.0,0.0,0.0,0.0,0.0,0.0,0.0,0.0,0.0,0.0,0.0,0.0,0.0,0.0,0.0,1.0282,1.0029,1.1248,1.053,0.7757,0.7532,0.541,0.0,0.0,0.0,0.0,0.0,0.0,0.0,0.0,0.0,0.0,0.0,0.0,0.0,0.0,0.0,0.0,0.0,0.0,0.0,0.0,0.0,0.0,0.0,0.0,0.0,0.0,0.0,0.0,0.0,0.0,0.0,0.0,0.0,0.0,0.0,0.0,0.0,0.0,0.0,0.0,0.0,0.0,0.0,0.0,0.0,0.0,0.0,0.0,0.0,0.0,0.0,0.0,0.0,0.0,0.0,0.0,0.0,0.0,0.0,0.0,0.0,0.0,0.0,0.0,0.0,0.0,0.0,0.0,0.0,0.0,0.0,0.0,0.0,0.0,0.0,0.0,0.0,0.0,0.0,0.0,0.0,0.0,0.0,0.0,0.0,0.0,0.0,0.0,0.0,0.0,0.0,0.0,0.0,0.0,0.0,0.0,0.0,0.0,0.0,0.0,0.0,0.0,0.0,0.0,0.0,0.0,0.0,0.0,1.2156,1.236,1.2127,1.1309,0.9892,0.9567,0.7386,0.0,0.0,0.0,0.0,0.0,0.0,0.0,0.0,0.0,0.0,0.0,0.0,0.0,0.0,0.0,0.0,0.0,0.0,0.0,0.0,0.0,0.0,0.0,0.0,0.0,0.0,0.0,0.0,0.0,0.0,0.0,0.0,0.0,0.0,0.0,0.0,0.0,0.0,0.0,0.0,0.0,0.0,0.0,0.0,0.0,0.0,0.0,0.0,0.0,0.0,0.0,0.0,0.0,0.0,0.0,0.0,0.0,0.0,0.0,0.0,0.0,0.0,0.0,0.0,0.0,0.0,0.0,0.0,0.0,0.0,0.0,0.0,0.0,0.0,0.0,0.0,0.0,0.0,0.0,0.0,0.0,0.0,0.0,0.0,0.0,0.0,0.0,0.0,0.0,0.0,0.0,0.0,0.0,0.0,0.0,0.0,0.0,0.0,0.0,0.0,0.0,0.0,0.0,0.0,0.0,0.0,0.0,0.0,1.2709,1.2257,1.2088,1.1568,1.0675,0.9047,0.6454,0.0,0.0,0.0,0.0,0.0,0.0,0.0,0.0,0.0,0.0,0.0,0.0,0.0,0.0,0.0,0.0,0.0,0.0,0.0,0.0,0.0,0.0,0.0,0.0,0.0,0.0,0.0,0.0,0.0,0.0,0.0,0.0,0.0,0.0,0.0,0.0,0.0,0.0,0.0,0.0,0.0,0.0,0.0,0.0,0.0,0.0,0.0,0.0,1.1503,0.0,0.0,0.0,0.0,0.0,0.0,0.0,0.0,0.0,0.0,0.0,0.0,0.0,0.0,0.0,0.0,0.0,0.0,0.0,0.0,0.0,0.0,0.0,0.0,0.0,0.0,0.0,0.0,0.0,0.0,0.0,0.0,0.0,0.0,0.0,0.0,0.0,0.0,0.0,0.0,0.0,0.0,0.0,0.0,0.0,0.0,0.0,0.0,0.0,0.0,0.0,0.0,0.0,0.0,0.0,0.0,0.0,0.0,0.0,1.2897,1.254,1.1998,1.1457,1.0874,0.9262,0.6904,0.0,0.0,0.0,0.0,0.0,0.0,0.0,0.0,0.0,0.0,0.0,0.0,0.0,0.0,0.0,0.0,0.0,0.0,0.0,0.0,0.0,0.0,0.0,0.0,0.0,0.0,0.0,0.0,0.0,0.0,0.0,0.0,0.0,0.0,0.0,0.0,0.0,0.0,0.0,0.0,0.0,0.0,0.0,0.0,0.0,0.0,0.0,0.0,0.0,0.0,0.0,0.0,0.0,0.0,0.0,0.0,0.0,0.0,0.0,0.0,0.0,0.0,0.0,0.0,0.0,0.0,0.0,0.0,0.0,0.0,0.0,0.0,0.0,0.0,0.0,0.0,0.0,0.0,0.0,0.0,0.0,0.0,0.0,0.0,0.0,0.0,0.0,0.0,0.0,0.0,0.0,0.0,0.0,0.0,0.0,0.0,0.0,0.0,0.0,0.0,0.0,0.0,0.0,0.0,0.0,0.0,0.0,1.2448,1.3045,1.3108,1.2175,1.1509,1.1129,0.9879,0.8032,0.5552,0.0,0.0,0.0,0.0,0.0,0.0,0.0,0.0,0.0,0.0,0.0,0.0,0.0,0.0,0.0,0.0,0.0,0.0,0.0,0.0,0.0,0.0,0.0,0.0,0.0,0.0,0.0,0.0,0.0,0.0,0.0,0.0,0.0,0.0,0.0,0.0,0.0,0.0,1.4766,1.6361,0.0,0.0,0.0,0.0,0.0,0.0,0.0,0.0,1.3357,0.0,0.0,0.0,0.0,0.0,0.0,0.0,0.0,0.0,0.0,0.0,0.0,0.0,0.0,0.0,0.0,0.0,0.0,0.0,0.0,0.0,0.0,0.0,0.0,0.0,0.0,0.0,0.0,0.0,0.0,0.0,0.0,0.0,0.0,0.0,0.0,0.0,0.0,0.0,0.0,0.0,0.0,0.0,0.0,0.0,0.0,0.0,0.0,0.0,0.0,0.0,0.0,0.0,0.0,0.0,0.0,1.3935,1.3606,1.3659,1.4202,1.3301,1.2655,1.2229,1.0891,0.931,0.7472,0.0,0.0,0.0,0.0,0.0,0.0,0.0,0.0,0.0,0.0,0.0,0.0,0.0,0.0,0.0,0.0,0.0,0.0,0.0,0.0,0.0,0.0,0.0,0.0,0.0,0.0,0.0,0.0,0.0,0.0,0.0,0.0,0.0,0.0,0.0,0.0,0.0,0.0,0.0,1.7852,1.7957,0.0,0.0,0.0,0.0,0.0,0.0,0.0,0.0,1.5421,0.0,0.0,0.0,0.0,0.0,0.0,0.0,0.0,0.0,0.0,0.0,0.0,0.0,0.0,0.0,0.0,0.0,0.0,0.0,0.0,0.0,0.0,0.0,0.0,0.0,0.0,0.0,0.0,0.0,0.0,0.0,0.0,0.0,0.0,0.0,0.0,0.0,0.0,0.0,0.0,0.0,0.0,0.0,0.0,0.0,0.0,0.0,0.0,0.0,0.0,0.0,0.0,0.0,0.0,0.0,1.2853,1.3247,1.358,1.3943,1.3195,1.2596,1.2126,1.1009,0.9579,0.0,0.0,0.0,0.0,0.0,0.0,0.0,0.0,0.0,0.0,0.0,0.0,0.0,0.0,0.0,0.0,0.0,0.0,0.0,0.0,0.0,0.0,0.0,0.0,0.0,0.0,0.0,0.0,0.0,0.0,0.0,0.0,0.0,0.0,0.0,0.0,0.0,0.0,0.0,0.0,1.8511,1.8407,1.8153,0.0,0.0,0.0,0.0,0.0,0.0,1.679,1.6725,0.0,0.0,0.0,0.0,0.0,0.0,0.0,0.0,0.0,0.0,0.0,0.0,0.0,0.0,0.0,0.0,0.0,0.0,0.0,0.0,0.0,0.0,0.0,0.0,0.0,0.0,0.0,0.0,0.0,0.0,0.0,0.0,0.0,0.0,0.0,0.0,0.0,0.0,0.0,0.0,0.0,0.0,0.0,0.0,0.0,0.0,0.0,0.0,0.0,0.0,0.0,0.0,0.0,0.0,0.0,1.1962,1.2849,1.3424,1.365,1.3007,1.2473,1.209,1.1179,0.9866,0.0,0.0,0.0,0.0,0.0,0.0,0.0,0.0,0.0,0.0,0.0,0.0,0.0,0.0,0.0,0.0,0.0,0.0,0.0,0.0,0.0,0.0,0.0,0.0,0.0,0.0,0.0,0.0,0.0,0.0,0.0,0.0,0.0,0.0,0.0,0.0,0.0,0.0,0.0,0.0,0.0,1.9029,1.832,1.7867,0.0,0.0,0.0,0.0,1.853,1.8242,0.0,0.0,0.0,0.0,0.0,0.0,0.0,0.0,0.0,0.0,0.0,0.0,0.0,0.0,0.0,0.0,0.0,0.0,0.0,0.0,0.0,0.0,0.0,0.0,0.0,0.0,0.0,0.0,0.0,0.0,0.0,0.0,0.0,0.0,0.0,0.0,0.0,0.0,0.0,0.0,0.0,0.0,0.0,0.0,0.0,0.0,0.0,0.0,0.0,0.0,0.0,0.0,0.0,0.0,0.0,0.0,1.3756,1.3486,1.3667,1.432,1.3559,1.3094,1.3025,1.2146,1.0812,0.0,0.0,0.0,0.0,0.0,0.0,0.0,0.0,0.0,0.0,0.0,0.0,0.0,0.0,0.0,0.0,0.0,0.0,0.0,0.0,0.0,0.0,0.0,0.0,0.0,0.0,0.0,0.0,0.0,0.0,0.0,0.0,0.0,0.0,0.0,0.0,0.0,0.0,0.0,0.0,0.0,2.0422,1.8854,1.9083,1.9379,0.0,0.0,1.9457,1.962,1.9635,0.0,0.0,0.0,0.0,0.0,0.0,0.0,0.0,0.0,0.0,0.0,0.0,0.0,0.0,0.0,0.0,0.0,0.0,0.0,0.0,0.0,0.0,0.0,0.0,0.0,0.0,0.0,0.0,0.0,0.0,0.0,0.0,0.0,0.0,0.0,0.0,0.0,0.0,0.0,0.0,0.0,0.0,0.0,0.0,0.0,0.0,0.0,0.0,0.0,0.0,0.0,0.0,0.0,0.0,0.0,1.1676,1.3509,1.3797,1.4111,1.4444,1.3635,1.3077,1.2791,1.1875,1.0665,0.0,0.0,0.0,0.0,0.0,0.0,0.0,0.0,0.0,0.0,0.0,0.0,0.0,0.0,0.0,0.0,0.0,0.0,0.0,0.0,0.0,0.0,0.0,0.0,0.0,0.0,0.0,0.0,0.0,0.0,0.0,0.0,0.0,0.0,0.0,0.0,0.0,0.0,0.0,0.0,0.0,0.0,1.99,2.0337,0.0,0.0,0.0,2.0764,2.0876,0.0,0.0,0.0,0.0,0.0,0.0,0.0,0.0,0.0,0.0,0.0,0.0,0.0,0.0,0.0,0.0,0.0,0.0,0.0,0.0,0.0,0.0,0.0,0.0,0.0,0.0,0.0,0.0,0.0,0.0,0.0,0.0,0.0,0.0,0.0,0.0,0.0,0.0,0.0,0.0,0.0,0.0,0.0,0.0,0.0,0.0,0.0,0.0,0.0,0.0,0.0,0.0,0.0,0.0,0.0,0.0,0.0,1.3244,1.4008,1.4428,1.4476,1.3635,1.3042,1.2673,1.183,0.0,0.0,0.0,0.0,0.0,0.0,0.0,0.0,0.0,0.0,0.0,0.0,0.0,0.0,0.0,0.0,0.0,0.0,0.0,0.0,0.0,0.0,0.0,0.0,0.0,0.0,0.0,0.0,0.0,0.0,0.0,0.0,0.0,0.0,0.0,0.0,0.0,0.0,0.0,0.0,0.0,0.0,2.046,2.0859,2.1415,2.185,0.0,0.0,2.1601,2.1683,2.0867,1.9859,0.0,0.0,0.0,0.0,0.0,0.0,0.0,0.0,0.0,0.0,0.0,0.0,0.0,0.0,0.0,0.0,0.0,0.0,0.0,0.0,0.0,0.0,0.0,0.0,0.0,0.0,0.0,0.0,0.0,0.0,0.0,0.0,0.0,0.0,0.0,0.0,0.0,0.0,0.0,0.0,0.0,0.0,0.0,0.0,0.0,0.0,0.0,0.0,0.0,0.0,0.0,0.0,0.0,0.0,0.0,1.37,1.4197,1.4443,1.4474,1.3648,1.3181,1.3146,1.2648,1.1897,0.0,0.0,0.0,0.0,0.0,0.0,0.0,0.0,0.0,0.0,0.0,0.0,0.0,0.0,0.0,0.0,0.0,0.0,0.0,0.0,0.0,0.0,0.0,0.0,0.0,0.0,0.0,0.0,0.0,0.0,0.0,0.0,0.0,0.0,0.0,0.0,0.0,0.0,0.0,0.0,0.0,2.1889,2.1508,2.2117,2.2624,0.0,0.0,2.169,2.1685,2.1167,2.0007,1.7872,0.0,0.0,0.0,0.0,0.0,0.0,0.0,0.0,0.0,0.0,0.0,0.0,0.0,0.0,0.0,0.0,0.0,0.0,0.0,0.0,0.0,0.0,0.0,0.0,0.0,0.0,0.0,0.0,0.0,0.0,0.0,0.0,0.0,0.0,0.0,0.0,0.0,0.0,0.0,0.0,0.0,0.0,0.0,0.0,0.0,0.0,0.0,0.0,0.0,0.0,0.0,0.0,0.0,1.2364,1.3767,1.4436,1.4685,1.4487,1.3665,1.321,1.321,1.272,1.1985,0.0,0.0,0.0,0.0,0.0,0.0,0.0,0.0,0.0,0.0,0.0,0.0,0.0,0.0,0.0,0.0,0.0,0.0,0.0,0.0,0.0,0.0,0.0,0.0,0.0,0.0,0.0,0.0,1.1395,1.2058,1.238,0.0,0.0,0.0,0.0,0.0,0.0,0.0,0.0,0.0,0.0,2.2115,2.2596,2.3291,0.0,0.0,2.2651,2.2081,2.1749,2.0563,1.9302,1.8088,1.7693,0.0,0.0,0.0,0.0,0.0,0.0,0.0,0.0,0.0,0.0,0.0,0.0,0.0,0.0,0.0,0.0,0.0,0.0,0.0,0.0,0.0,0.0,0.0,0.0,0.0,0.0,0.0,0.0,0.0,0.0,0.0,0.0,0.0,0.0,0.0,0.0,0.0,0.0,0.0,0.0,0.0,0.0,0.0,0.0,0.0,0.0,0.0,0.0,0.0,0.0,0.0,0.0,1.2538,1.3614,1.4703,1.5012,1.4553,1.3844,1.3453,1.3471,1.2944,1.2262,0.0,0.0,0.0,0.0,0.0,0.0,0.0,0.0,0.0,0.0,0.0,0.0,0.0,0.0,0.0,0.0,0.0,0.0,0.0,0.0,0.0,0.0,0.0,0.0,0.0,0.0,0.0,0.0,1.2639,1.3036,1.3358,0.0,0.0,0.0,0.0,0.0,0.0,0.0,0.0,0.0,0.0,2.2605,2.3569,2.3973,2.397,2.3421,2.2706,2.2071,2.1506,2.0208,1.912,1.8781,0.0,0.0,0.0,0.0,0.0,0.0,0.0,0.0,0.0,0.0,0.0,0.0,0.0,0.0,0.0,0.0,0.0,0.0,0.0,0.0,0.0,0.0,0.0,0.0,0.0,0.0,0.0,0.0,0.0,0.0,0.0834,0.0,0.0,0.0,0.0,0.0,0.0,0.0,0.0,0.0,0.0,0.0,0.0,0.0,0.0,0.0,0.0,0.0,0.0,0.0,0.0,0.0,0.0,1.2415,1.3236,1.4886,1.5424,1.4717,1.4295,1.4091,1.4078,1.3491,1.2922,1.2363,0.0,0.0,0.0,0.0,0.0,0.0,0.0,0.0,0.0,0.0,0.0,0.0,0.0,0.0,0.0,0.0,0.0,0.0,0.0,0.0,0.0,0.0,0.0,0.0,0.0,0.0,1.3595,1.3404,1.3125,0.0,0.0,0.0,0.0,0.0,0.0,0.0,0.0,0.0,0.0,2.2652,2.3544,2.4282,2.3933,2.3443,2.283,2.217,2.152,2.093,2.0257,1.9813,0.0,0.0,0.0,0.0,0.0,0.0,0.0,0.0,0.0,0.0,0.0,0.0,0.0,0.0,0.0,0.0,0.0,0.0,0.0,0.0,0.0,0.0,0.0,0.0,0.0,0.0,0.0,0.1798,0.2589,0.0,0.0,0.0,0.0,0.0,0.0,0.0,0.0,0.0,0.0,0.0,1.5393,1.5857,0.0,0.0,0.0,0.0,0.0,0.0,0.0,0.0,0.0,0.0,0.0,0.0,1.2932,1.3742,1.4889,1.5394,1.5238,1.4833,1.4607,1.4626,1.4097,1.3475,1.2821,0.0,0.0,0.0,0.0,0.0,0.0,0.0,0.0,0.0,0.0,0.0,0.0,0.0,0.0,0.0,0.0,0.0,0.0,0.0,0.0,0.0,0.0,0.0,0.0,0.0,1.2702,0.0,0.0,0.0,0.0,0.0,0.0,0.0,0.0,0.0,0.0,0.0,2.208,2.378,2.3901,2.4095,2.4842,2.4163,2.3377,0.0,0.0,0.0,0.0,0.0,0.0,0.0,0.0,0.0,0.0,0.0,0.0,0.0,0.0,2.6099,2.4181,2.3601,2.3475,2.3743,0.0,0.0,0.0,0.0,0.0,0.0,0.0,0.0,0.0,0.0,0.0,0.0,0.0,0.0,0.4655,0.0,0.5574,0.0,0.0,0.0,0.0,0.0,0.0,0.0,0.0,1.5536,1.6553,1.7303,1.77,1.7562,0.0,1.6397,1.4684,0.0,0.0,0.0,0.0,0.0,0.0,0.0,0.0,1.2913,1.3894,1.4876,1.5433,1.5537,1.531,1.5185,1.5193,1.4612,1.3981,1.3332,1.2827,1.2498,0.0,0.0,0.0,0.0,0.0,0.0,0.0,0.0,0.0,0.0,0.0,0.0,0.0,0.0,0.0,0.0,0.0,0.0,0.0,0.0,0.0,0.0,0.0,1.3365,0.0,0.0,0.0,0.0,0.0,0.0,0.0,0.0,0.0,2.1227,2.2353,2.3543,2.4607,2.4606,2.4519,2.463,0.0,0.0,0.0,0.0,0.0,0.0,0.0,2.051,2.1175,2.1976,2.2599,2.2812,2.4869,2.6725,2.7293,0.0,0.0,2.7321,2.664,2.6606,2.7114,2.8163,2.9008,2.9025,3.0023,3.099,0.0,0.0,0.0,0.0,0.0,0.0,0.0,0.0,0.6011,0.6847,0.0,0.7779,0.0,0.0,0.0,0.0,0.0,1.3076,0.0,0.0,1.8201,1.9306,2.007,1.955,1.9061,1.8576,1.803,1.6906,1.5195,1.3472,0.0,0.0,0.0,0.0,0.0,0.0,1.245,1.3775,1.4948,1.5589,1.5734,1.5751,1.5706,1.5688,1.509,1.4528,1.4017,1.4128,1.3747,1.2775,1.2426,0.0,0.0,0.0,0.0,0.0,0.0,0.0,0.0,0.0,0.0,0.0,0.0,0.0,0.0,0.0,0.0,0.0,0.0,0.0,0.0,1.4561,0.0,0.0,0.0,0.0,0.0,0.0,0.0,0.0,0.0,0.0,2.3182,2.4261,2.488,2.4281,0.0,0.0,0.0,0.0,2.3128,2.1899,2.1697,2.1496,2.0881,2.0858,2.1537,2.335,0.0,0.0,2.4581,2.6723,2.8132,2.7591,2.998,3.2232,3.2107,3.0929,3.0565,3.1836,3.165,3.1816,3.3102,3.3778,3.459,0.2908,0.0,0.0,0.0,0.0,0.4264,0.6135,0.7673,0.9254,1.0104,1.034,1.0905,0.0,0.0,0.0,0.0,0.0,0.0,1.6011,1.6796,1.7747,1.8424,1.8722,1.8564,1.8403,1.8224,1.7628,1.7066,1.6514,1.5565,1.4129,1.2347,0.0,0.0,0.0,0.0,1.4339,1.4933,1.5677,1.615,1.6271,1.6283,1.6095,1.5739,1.5899,1.5861,1.5609,1.6009,1.5825,1.4936,1.4791,0.0,0.0,0.0,0.0,0.0,0.0,0.0,0.0,0.0,0.0,0.0,0.0,0.0,0.0,0.0,0.0,0.0,0.0,0.0,1.3872,1.4446,1.5089,0.0,0.0,0.0,0.0,0.0,0.0,0.0,0.0,0.0,2.4667,2.4984,2.5308,0.0,0.0,2.4511,2.422,2.3478,2.2643,2.1815,0.0,0.0,0.0,2.1966,2.306,2.3616,2.4842,2.5985,2.6608,2.7694,2.8404,2.82,2.9694,3.1095,3.1635,3.2169,3.2549,3.3,3.3322,3.3829,3.4776,3.5605,3.6372,0.6848,0.482,0.4976,0.5305,0.5893,0.7635,0.9151,1.0485,1.1546,1.2034,1.2148,1.275,1.2594,1.1967,1.2834,0.0,0.0,0.0,1.694,1.7827,1.7989,1.8208,1.8397,1.8196,1.7987,1.7773,1.7381,1.7068,1.6864,1.6661,1.5802,1.4369,0.0,0.0,1.363,1.4296,1.4936,1.5518,1.5865,1.6199,1.6488,1.6513,1.6358,1.6019,1.6288,1.6399,1.6302,1.6564,1.6577,1.6241,1.5757,1.4841,0.0,0.0,0.0,0.0,0.0,0.0,0.0,0.0,0.0,0.0,0.0,1.1289,0.0,0.0,0.0,0.0,1.4051,1.4792,1.5304,1.5894,0.0,0.0,0.0,0.0,0.0,0.0,0.0,2.4299,2.5094,2.5533,2.5564,2.5203,2.5045,2.5328,2.4796,2.4328,2.4101,0.0,2.2815,2.2193,2.21,2.2067,2.1959,2.2922,2.3945,2.4745,2.6025,2.7066,2.752,2.8091,2.8596,2.8962,2.9951,3.1062,3.175,3.2961,3.3863,3.3902,3.4706,3.5639,3.6343,3.7127,3.7912,1.0473,0.9728,0.8781,0.9232,1.0598,1.1259,1.2044,1.2905,1.2905,1.2973,1.3066,1.3675,1.404,1.4291,1.4927,0.0,1.734,1.6952,1.7809,1.9622,1.8711,1.8449,1.876,1.8276,1.7767,1.7242,1.7242,1.6993,1.6552,1.698,1.6926,1.629,1.5335,1.4781,1.4634,1.4412,1.4778,1.5731,1.5789,1.6007,1.6488,1.6513,1.6513,1.65,1.6427,1.6395,1.6369,1.6308,1.6492,1.6898,1.5814,1.5341,1.5695,0.0,0.0,0.0,0.0,0.0,0.0,0.0,0.0,0.0,0.0,0.0,0.0,0.0,0.0,0.0,1.6005,0.0,1.7733,1.8299,0.0,0.0,0.0,2.1214,2.1842,2.3819,2.5112,2.5004,0.0,0.0,2.5908,2.5028,2.4389,2.4348,2.4328,2.4158,2.3674,2.3611,2.3408,2.2855,2.2838,2.3092,2.3569,2.3912,2.4654,2.6271,2.7195,2.7555,2.761,2.8033,2.8669,2.9107,3.0405,3.1476,3.2126,3.3331,3.4528,3.4462,3.5673,3.6981,3.7652,3.8273,3.889,1.0856,1.0791,1.0926,1.1021,1.1207,1.2138,1.2686,1.2905,1.2915,1.339,1.423,1.4827,1.5868,1.7208,1.7776,1.8022,1.801,1.8696,1.8859,1.8603,1.8756,1.8437,1.7753,1.7634,1.7251,1.6714,1.6689,1.6616,1.6509,1.6616,1.6604,1.6443,1.619,1.601,1.5879,1.5808,1.596,1.6287,1.63,1.6362,1.65,1.6513,1.6513,1.6522,1.6863,1.7073,1.706,1.7428,1.7627,1.7637,1.6892,1.6255,1.5814,1.468,0.0,0.0,0.0,0.0,0.0,0.0,0.0,0.0,0.0,1.5066,1.2322,0.0,1.6057,0.0,1.7456,1.8575,1.8482,1.939,0.0,0.0,2.2309,2.3223,2.5232,2.548,2.554,2.5714,2.596,2.5784,2.4894,2.4552,2.4246,2.3858,2.3809,2.373,2.361,2.3651,2.3624,2.3522,2.3869,2.4274,2.451,2.5311,2.6232,2.72,2.7495,2.7585,2.7585,2.771,2.7855,2.8107,2.9147,3.0011,3.0338,3.2175,3.3721,3.396,3.5413,3.7009,3.7729,3.8012,3.8295,1.2182,1.1977,1.2471,1.2511,1.2324,1.2351,1.2564,1.2917,1.2908,1.3637,1.4906,1.5885,1.7015,1.8191,1.8508,1.8601,1.8605,1.9174,1.9264,1.892,1.897,1.8682,1.8103,1.7865,1.7289,1.6463,1.6754,1.6629,1.6129,1.638,1.6513,1.6513,1.6513,1.6464,1.6376,1.6384,1.6426,1.65,1.6513,1.6513,1.6513,1.6513,1.6513,1.6522,1.6795,1.6964,1.6951,1.7163,1.738,1.7506,1.6872,1.6532,1.6622,1.5764,1.5307,0.0,0.0,0.0,0.0,0.0,0.0,0.0,0.0,0.0,0.0,0.0,1.7412,0.0,1.9045,2.0154,2.0337,2.1416,2.2633,2.3874,2.4365,2.5144,2.6556,2.6336,2.6068,2.5999,2.5797,2.5335,2.4511,2.4184,2.4064,2.4021,2.3789,2.3595,2.3633,2.3873,2.4015,2.3737,2.4479,2.5237,2.5487,2.6377,2.7165,2.7495,2.7585,2.7585,2.7585,2.7585,2.769,2.8049,2.8903,2.9696,3.0023,3.1667,3.313,3.3414,3.4845,3.6423,3.7219,3.758,3.7947,1.3756,1.3067,1.3494,1.3613,1.3442,1.2346,1.2329,1.3059,1.3059,1.3951,1.5513,1.6977,1.791,1.8381,1.8309,1.851,1.8971,1.8871,1.9081,1.949,1.9157,1.8909,1.8846,1.8482,1.7708,1.6678,1.7223,1.6928,1.585,1.6358,1.6575,1.6513,1.6513,1.6513,1.6513,1.6513,1.6513,1.6513,1.6513,1.6513,1.6513,1.6513,1.6513,1.6513,1.6513,1.6531,1.6582,1.6493,1.6704,1.7258,1.6629,1.6695,1.7605,1.6772,1.6812,0.0,1.7186,0.0,0.0,0.0,0.0,0.0,0.0,0.0,0.0,1.848,1.8867,1.9327,2.061,2.1698,2.2456,2.3599,2.4545,2.5073,2.6067,2.6674,2.6624,2.6624,2.6401,2.587,2.5392,2.4894,2.4328,2.3879,2.3827,2.4395,2.4126,2.3864,2.3909,2.4268,2.438,2.3894,2.4986,2.6111,2.6583,2.7171,2.757,2.7585,2.7585,2.7585,2.7585,2.7585,2.7809,2.8442,2.9116,2.9774,3.0402,3.1644,3.2571,3.2683,3.4218,3.5706,3.6434,3.7116,3.7613,1.3734,1.3092,1.3775,1.3719,1.3112,1.2865,1.3179,1.389,1.389,1.4914,1.6767,1.8561,1.9395,1.9446,1.8884,1.8634,1.873,1.8147,1.7924,1.8031,1.8528,1.854,1.8157,1.8623,1.8508,1.7888,1.8006,1.7706,1.7065,1.7167,1.6986,1.6513,1.6513,1.6513,1.6513,0.0,0.0,0.0,1.6513,1.6513,1.6513,1.6513,1.6513,1.6513,1.6513,0.0,1.7126,1.7124,1.7564,1.847,1.7895,0.0,0.0,0.0,0.0,0.0,0.0,0.0,0.0,0.0,0.0,0.0,2.1857,2.0831,1.9246,2.0035,2.0669,2.0819,2.1777,2.2631,2.3146,2.4293,2.5217,2.5763,2.6352,2.6556,2.6175,2.6138,2.5781,2.4816,2.4612,2.4348,2.3888,2.3659,2.3879,2.4515,2.45,2.4634,2.5151,2.4874,2.4799,2.5211,2.6288,2.718,2.739,2.7495,2.7585,2.7585,2.7585,2.7585,2.7585,2.7585,2.7824,2.8472,2.9146,2.9789,3.0387,3.1631,3.2532,3.2586,3.3724,3.4955,3.5737,3.6371,3.6813,1.454,0.0,1.4638,1.4569,0.0,1.4183,1.4619,1.5255,1.4865,1.5865,1.7914,1.9222,1.9798,1.9773,1.9423,1.9267,1.924,1.8847,1.8676,1.8715,1.9071,1.9082,1.8851,1.9245,1.8946,1.8179,1.846,1.815,1.7392,1.7387,1.726,1.6936,1.6638,1.6513,1.6513,1.6798,1.6798,1.6513,1.6513,1.6513,1.6513,1.6513,1.6513,1.6513,0.0,0.0,0.0,0.0,0.0,0.0,0.0,0.0,0.0,0.0,0.0,2.1911,2.1295,2.1108,2.177,2.2266,2.2817,2.3479,2.3189,2.234,2.0876,2.1675,2.2148,2.1983,2.2686,2.3456,2.4214,2.4607,2.5109,2.5888,2.5997,2.5854,2.5652,2.5596,2.5423,2.5004,2.4895,2.4685,2.4154,2.4418,2.4702,2.5023,2.5098,2.5337,2.5914,2.5824,2.5839,2.6452,2.6776,2.7225,2.7525,2.7585,2.7585,2.7585,2.7585,2.7585,2.7585,2.7585,2.7809,2.8472,2.9146,2.9801,3.043,3.1356,3.2064,3.2185,3.3086,3.4057,3.4605,3.537,3.6054,1.542,1.542,1.542,1.542,1.542,1.5555,1.6083,1.6838,0.0,0.0,0.0,1.9475,1.9798,1.9773,1.9669,1.9605,1.9592,1.9475,1.9345,1.9228,1.9475,1.9527,1.9423,1.9669,1.933,1.8467,1.8921,1.861,1.7618,1.7667,1.7614,1.7498,1.6961,1.6672,1.671,1.7137,1.7187,1.6835,1.6789,1.6789,1.6801,1.6801,1.6789,1.6801,1.6885,1.7205,1.7728,1.7763,1.8016,1.8549,1.8998,1.951,2.0109,2.0617,2.1561,2.3044,2.3178,2.3332,2.3749,2.3881,2.3929,2.3844,2.3629,2.3257,2.2686,2.3082,2.3234,2.2894,2.3417,2.4116,2.4973,2.4772,2.4875,2.5762,2.5562,2.5323,2.5118,2.5302,2.5411,2.5317,2.5314,2.5275,2.4852,2.5202,2.5636,2.5764,2.5756,2.6019,2.6596,2.6602,2.6632,2.7106,2.7046,2.7046,2.7435,2.7585,2.7585,2.7585,2.7585,2.7585,2.7585,2.7585,2.7914,2.8712,2.925,2.9849,3.0537,3.1194,3.1481,3.1511,3.2542,3.3499,3.3619,3.4562,3.5492,1.542,1.542,1.542,1.542,1.5439,1.6083,1.7135,1.8367,1.8263,1.8397,1.8741,1.9475,1.9798,1.9773,1.9123,1.8847,1.8794,1.8205,1.7578,1.7034,1.8259,1.8528,1.7988,1.9202,1.9709,1.9583,1.966,1.9371,1.8821,1.8783,1.8531,1.8066,1.7526,1.7262,1.7297,1.736,1.7576,1.7929,1.7965,1.7942,1.7965,1.7942,1.7942,1.7989,1.8442,1.8977,1.951,2.0034,2.0602,2.1143,2.1222,2.147,2.1889,2.168,2.2065,2.3087,2.33,2.3554,2.4015,2.4636,2.4767,2.4355,2.4264,2.4203,2.4106,2.3766,2.3546,2.3496,2.3975,2.4328,2.4532,2.4847,2.5114,2.5359,2.5778,2.5651,2.4744,2.5512,2.5823,2.4987,2.5228,2.5581,2.5503,2.56,2.5914,2.6303,2.6408,2.6701,2.7136,2.6956,2.6671,2.6791,2.718,2.745,2.757,2.7585,2.7585,2.7585,2.7585,2.7585,2.7585,2.7585,2.8034,2.9232,2.949,3.0028,3.1047,3.1421,3.1496,3.157,3.2557,3.3455,3.3529,3.4562,3.5459,1.542,1.542,1.542,1.5642,1.6083,1.7219,1.807,1.8715,1.9123,1.9281,1.9333,1.9669,1.9798,1.9773,1.9449,1.9097,1.87,1.8367,1.8004,1.7743,1.8382,1.8741,1.8847,1.9475,1.9798,1.9798,1.9798,1.9685,1.9447,1.9146,1.887,1.8607,1.8103,1.7827,1.7852,1.8129,1.8405,1.8619,1.8355,1.8204,1.8204,1.8204,1.8204,1.8216,1.8793,1.9351,1.9879,2.0542,2.1146,2.169,2.2039,2.2308,2.2508,2.2652,2.2947,2.3381,2.3742,2.4044,2.4257,2.4579,2.4532,2.4048,2.4313,2.4489,2.4505,2.428,2.4014,2.367,2.4154,2.4472,2.441,2.4683,2.4984,2.5293,2.5647,2.5643,2.524,2.5538,2.5879,2.5736,2.5944,2.6138,2.6138,2.6452,2.6596,2.6677,2.6881,2.7245,2.754,2.7345,2.7136,2.718,2.7405,2.7555,2.7585,2.7585,2.7585,2.7585,2.7585,2.7585,2.7585,2.76,2.8169,2.9292,2.9621,3.0118,3.1256,3.1496,3.1496,3.163,3.2557,3.3365,3.3649,3.4562,3.54,1.542,1.542,1.542,1.5911,1.681,1.795,1.8635,1.8992,1.9553,1.9695,1.9579,1.9721,1.9798,1.9773,1.9631,1.924,1.8741,1.8528,1.8367,1.8232,1.8382,1.8676,1.9071,1.9371,1.9527,1.9592,1.9721,1.9798,1.9748,1.9371,1.9121,1.897,1.8593,1.838,1.8405,1.8782,1.9058,1.9133,1.8781,1.8568,1.8568,1.8568,1.8544,1.8604,1.931,1.989,2.0302,2.1083,2.1695,2.2103,2.2607,2.2897,2.2912,2.334,2.3595,2.3638,2.3991,2.4225,2.422,2.4374,2.4261,2.3893,2.4425,2.4829,2.4844,2.4978,2.4769,2.4238,2.4687,2.4969,2.4784,2.4913,2.5137,2.5439,2.5697,2.5681,2.5426,2.5586,2.5883,2.6322,2.6485,2.6599,2.6877,2.727,2.736,2.7046,2.7285,2.757,2.7585,2.7585,2.7585,2.7585,2.7585,2.7585,2.7585,2.7585,2.7585,2.7585,2.7585,2.7585,2.7615,2.769,2.8259,2.9352,2.9744,3.0283,3.1212,3.1496,3.157,3.1795,3.2751,3.3574,3.4053,3.4786,3.5459,1.542,1.542,1.542,1.6226,1.7468,1.766,1.8463,1.9579,1.9773,1.9397,1.8939,1.9501,1.9773,1.9721,1.9097,1.8806,1.8635,1.8004,1.7385,1.6905,1.7413,1.7385,1.7107,1.8205,1.8821,1.8912,1.9475,1.9747,1.9798,1.9736,1.9484,1.9058,1.8945,1.8933,1.8933,1.8995,1.9233,1.971,1.9685,1.966,1.966,1.966,1.9648,1.9648,2.0815,2.1484,2.1509,2.2716,2.3357,2.343,2.3445,2.3526,2.352,2.3565,2.3595,2.3595,2.3659,2.3681,2.3711,2.4244,2.4537,2.456,2.5113,2.5501,2.5555,2.6063,2.6138,2.567,2.5925,2.594,2.5605,2.5872,2.5978,2.5703,2.6117,2.604,2.5159,2.5683,2.6214,2.5636,2.6294,2.675,2.7324,2.7525,2.7555,2.7435,2.748,2.7585,2.7585,2.7585,2.7585,2.7585,2.7585,2.7585,2.7585,2.7585,2.7585,2.7585,2.7585,2.763,2.7735,2.8154,2.8786,2.9562,3.0043,3.0627,3.1182,3.1511,3.172,3.2213,3.3006,3.3858,3.4921,3.5385,3.5489,1.542,1.542,1.542,1.6244,1.7523,1.7605,1.8421,1.9695,1.8874,1.8555,1.8729,1.9006,1.9137,1.9123,1.8821,1.87,1.8647,1.7934,1.744,1.7146,1.7034,1.7006,1.7219,1.7743,1.8248,1.8688,1.9006,1.9385,1.9747,1.9798,1.9698,1.951,1.9484,1.9459,1.9484,1.9484,1.9572,1.9786,1.9798,1.9798,1.9798,1.9798,1.9978,2.0446,2.1245,2.1899,2.2308,2.3165,2.3595,2.3595,2.3595,2.3595,2.3595,2.3595,2.3595,2.3595,2.3595,2.3595,2.361,2.4231,2.4605,2.4605,2.56,2.6183,2.6213,2.6797,2.7061,2.6831,2.6624,2.627,2.5766,2.6141,2.6406,2.6249,2.6406,2.6444,2.64,2.6399,2.6512,2.6681,2.6975,2.7214,2.7509,2.7585,2.7585,2.7585,2.7585,2.7585,2.7585,2.7585,2.7585,2.7585,2.7585,2.7585,2.7585,2.7585,2.7585,2.7585,2.7585,2.7645,2.8154,2.8338,2.8906,2.9924,3.0328,3.0763,3.1376,3.1525,3.1705,3.2437,3.3455,3.4382,3.5325,3.5489,3.5489,1.542,1.542,1.542,1.614,1.7285,1.7313,1.8004,1.9044,1.8259,1.8112,1.8382,1.8421,1.8394,1.8394,1.8382,1.8313,1.8015,1.733,1.6996,1.694,1.6454,1.6472,1.6996,1.7468,1.7868,1.8394,1.8847,1.9293,1.9773,1.9798,1.9798,1.9798,1.9798,1.9798,1.9798,1.9798,1.9798,1.9798,1.9798,1.9798,1.9798,1.9798,2.0029,2.0547,2.128,2.1922,2.2429,2.3187,2.3595,2.3595,2.3595,2.3595,2.3595,2.3595,2.367,2.3864,2.3879,2.3969,2.4133,2.4754,2.5143,2.5232,2.6243,2.6871,2.6971,2.7315,2.757,2.7525,2.6976,2.6396,2.6318,2.6401,2.6554,2.6564,2.6396,2.6443,2.6782,2.6496,2.6457,2.7152,2.7148,2.7408,2.7534,2.7585,2.7585,2.7585,2.7585,2.7585,2.7585,2.7585,2.7585,2.7585,2.7585,2.7585,2.7585,2.7585,2.7585,2.7675,2.772,2.8068,2.8607,2.8771,2.919,3.0268,3.0552,3.0853,3.1346,3.1525,3.1869,3.2721,3.3799,3.4816,3.54,3.5489,3.5489,1.542,1.542,1.542,1.5853,1.6539,1.6567,1.7006,1.7961,1.8286,1.8232,1.7743,1.7649,1.7633,1.7594,1.7622,1.7274,1.6641,1.5997,1.568,1.569,1.5575,1.5497,1.5575,1.6912,1.7633,1.7852,1.8992,1.9669,1.9798,1.9798,1.9798,1.9798,1.9798,1.9798,1.9798,1.9798,1.9798,1.9798,1.9798,1.9798,1.9824,1.9824,1.985,2.0003,2.1075,2.1744,2.1946,2.2958,2.3595,2.3595,2.3595,2.3595,2.3595,2.3625,2.3902,2.444,2.4545,2.4814,2.542,2.6019,2.6408,2.6527,2.7106,2.7555,2.757,2.772,2.7794,2.766,2.7111,2.6864,2.7183,2.67,2.6433,2.6395,2.5849,2.555,2.5563,2.5591,2.5797,2.6363,2.6616,2.6878,2.7458,2.7585,2.7585,2.7585,2.7585,2.7585,2.7585,2.7585,2.7585,2.7585,2.76,2.76,2.7615,2.775,2.772,2.7839,2.8244,2.8607,2.9011,2.946,3.0058,3.0597,3.0987,3.1286,3.1436,3.178,3.2273,3.317,3.4397,3.5295,3.5474,3.5489,3.5489,1.542,1.542,1.542,1.5806,1.6425,1.6007,1.6733,1.8151,1.703,1.6985,1.744,1.7118,1.6652,1.6216,1.6698,1.7006,1.7107,1.6425,1.6093,1.6122,1.6093,1.5864,1.5575,1.6901,1.7605,1.777,1.8608,1.9333,1.9773,1.9798,1.9798,1.9798,1.9798,1.9798,1.9798,1.9798,1.9798,1.9798,1.9798,1.9798,1.985,2.022,2.0258,1.9901,2.1051,2.1885,2.2337,2.3165,2.3595,2.3595,2.3595,2.3595,2.364,2.3992,2.4335,2.4619,2.4993,2.5337,2.5644,2.6213,2.6602,2.6677,2.7634,2.8192,2.8334,2.8633,2.8888,2.8699,2.809,2.7741,2.7277,2.6499,2.5797,2.5701,2.5161,2.4893,2.5175,2.5021,2.4992,2.5687,2.6176,2.6642,2.6951,2.7306,2.756,2.7585,2.76,2.759,2.76,2.76,2.7585,2.7585,2.76,2.7764,2.8244,2.8233,2.8278,2.8427,2.8757,2.9355,2.9834,3.0043,3.0537,3.0943,3.1406,3.1466,3.154,3.2318,3.2811,3.332,3.4577,3.537,3.5489,3.5489,3.5489,1.542,1.542,1.542,1.5806,1.6397,1.5979,1.6602,1.7813,1.6659,1.6557,1.7062,1.6708,1.6208,1.5835,1.6036,1.6397,1.6828,1.6368,1.6265,1.6454,1.6265,1.6007,1.6007,1.7024,1.7605,1.777,1.8608,1.9345,1.9747,1.9798,1.9798,1.9798,1.9798,1.9798,1.9798,1.9798,1.9798,1.9798,1.9798,1.9798,1.985,2.0258,2.0283,2.0016,2.0855,2.1724,2.236,2.2778,2.3106,2.3253,2.3312,2.3488,2.391,2.4545,2.5023,2.5262,2.5651,2.6019,2.6258,2.6686,2.7031,2.722,2.775,2.8237,2.8488,2.8668,2.8761,2.8608,2.804,2.7337,2.6872,2.591,2.5222,2.5189,2.4657,2.459,2.5407,2.5389,2.5676,2.6358,2.69,2.698,2.6772,2.7113,2.7479,2.7756,2.7687,2.755,2.7838,2.7705,2.7585,2.7585,2.7585,2.7914,2.8397,2.8682,2.8876,2.9071,2.9445,3.0043,3.0402,3.0627,3.0896,3.1316,3.1496,3.1496,3.1914,3.2751,3.323,3.3529,3.4472,3.5444,3.5489,3.5489,3.5489,1.5439,1.5468,1.54,1.594,1.6539,1.6454,1.6492,1.6782,1.7135,1.695,1.6624,1.6464,1.635,1.6265,1.5748,1.5497,1.5575,1.5555,1.5835,1.6293,1.5835,1.5864,1.635,1.7274,1.7797,1.7879,1.9123,1.9747,1.9798,1.9798,1.9798,1.9798,1.9798,1.9798,1.9798,1.9798,1.9798,1.9798,1.9798,1.9798,1.9824,1.9927,1.9927,1.9875,2.0547,2.1186,2.1687,2.1767,2.2146,2.2672,2.2806,2.3337,2.4484,2.5232,2.5884,2.6333,2.6557,2.6916,2.737,2.7439,2.7716,2.795,2.7746,2.7766,2.8126,2.7805,2.7508,2.7446,2.6803,2.6127,2.6052,2.5407,2.4981,2.4997,2.4492,2.4653,2.5608,2.6556,2.7343,2.7667,2.774,2.7795,2.7242,2.7163,2.7526,2.7966,2.7914,2.7866,2.8442,2.8229,2.7764,2.7735,2.7959,2.8378,2.8757,2.9131,2.9415,2.9714,3.0178,3.0657,3.0791,3.0971,3.1137,3.1496,3.1496,3.1511,3.169,3.2512,3.323,3.3724,3.4711,3.5429,3.5489,3.5489,3.5489,1.6151,1.6236,1.6715,1.7052,1.7163,1.6736,1.6765,1.7135,1.6489,1.6226,1.6379,1.5979,1.5748,1.569,1.5497,1.542,1.542,1.541,1.5517,1.5777,1.6036,1.6007,1.6169,1.7539,1.8623,1.9097,1.9553,1.9798,1.9798,1.9798,1.9798,1.9798,1.9798,1.9798,1.9798,1.9798,1.9798,1.9798,1.9798,1.9798,1.985,2.0258,2.0283,1.9965,2.0843,2.1366,2.1113,2.1472,2.2016,2.2655,2.3135,2.3973,2.5131,2.5929,2.6387,2.6626,2.7061,2.7079,2.6904,2.7166,2.7241,2.7158,2.7437,2.7821,2.8114,2.8235,2.8229,2.8208,2.7637,2.7031,2.6566,2.5845,2.5284,2.4925,2.4684,2.4702,2.5269,2.5554,2.5615,2.5883,2.6319,2.6459,2.658,2.6998,2.7864,2.8283,2.8491,2.8857,2.9098,2.8946,2.8992,2.8978,2.9037,2.9007,2.9475,2.9849,3.0073,3.0357,3.0776,3.1001,3.1107,3.1197,3.1406,3.1496,3.1496,3.157,3.1765,3.2348,3.3185,3.3858,3.4651,3.5115,3.54,3.5489,3.5489,1.6894,1.695,1.7413,1.7605,1.755,1.709,1.7006,1.7052,1.6226,1.5921,1.5979,1.5613,1.542,1.542,1.542,1.542,1.5439,1.5661,1.5806,1.5864,1.6236,1.6472,1.6687,1.7977,1.9097,1.9695,1.9798,1.9798,1.9798,1.9798,1.9798,1.9798,1.9798,1.9798,1.9798,1.9798,1.9798,1.9798,1.9798,1.9798,1.999,2.0705,2.0847,2.0398,2.1186,2.1456,2.1121,2.1256,2.1632,2.2366,2.3325,2.4484,2.5511,2.6386,2.6986,2.7011,2.7054,2.7029,2.6841,2.6886,2.6961,2.6957,2.7281,2.7642,2.7827,2.815,2.8057,2.7953,2.7511,2.7121,2.6743,2.6302,2.5783,2.5473,2.5234,2.534,2.567,2.5889,2.5948,2.6233,2.6452,2.6514,2.688,2.6912,2.7991,2.8382,2.8509,2.8971,2.9125,2.9188,2.9339,2.9486,2.9472,2.9684,3.0283,3.0539,3.0733,3.1017,3.1316,3.1346,3.1376,3.1376,3.1496,3.1496,3.1496,3.1496,3.169,3.2691,3.3544,3.4113,3.4532,3.5115,3.5489,3.5489,3.5489,1.7633,1.766,1.7715,1.7825,1.7825,1.7622,1.7219,1.668,1.6379,1.5979,1.5517,1.5439,1.542,1.542,1.5526,1.5584,1.5613,1.6255,1.6641,1.6708,1.6866,1.733,1.8301,1.8608,1.9097,1.9721,1.9798,1.9798,1.9798,1.9798,1.9798,1.9798,1.9798,1.9798,1.9798,1.9798,1.9798,1.9798,1.9798,1.9811,1.9963,2.0978,2.1394,2.0797,2.1446,2.1734,2.1441,2.1208,2.1286,2.1956,2.3704,2.4923,2.5749,2.6889,2.7373,2.7333,2.6841,2.6748,2.686,2.6648,2.6665,2.7311,2.703,2.6954,2.7393,2.7111,2.6837,2.6803,2.6645,2.6589,2.6539,2.6445,2.6386,2.6399,2.5946,2.6197,2.7307,2.7413,2.7155,2.7261,2.7577,2.7564,2.7334,2.7007,2.7591,2.8339,2.8115,2.8554,2.9201,2.962,2.9195,2.9433,3.0031,3.0283,3.0823,3.0467,3.0615,3.0675,3.1014,3.1029,3.1336,3.1467,3.1496,3.1496,3.1496,3.1496,3.1824,3.2766,3.338,3.3724,3.4337,3.5145,3.5489,3.5489,3.5489,1.7934,1.8447,1.898,1.924,1.9044,1.8124,1.7468,1.7163,1.6112,1.5604,1.541,1.542,1.5439,1.5468,1.5979,1.6208,1.6397,1.6968,1.7649,1.8058,1.8112,1.8274,1.8635,1.8727,1.9097,1.9721,1.9798,1.9798,1.9798,1.9798,1.9798,1.9798,1.9798,1.9811,1.9798,1.9836,1.9798,1.9798,1.9811,2.0037,2.0441,2.0804,2.1096,2.138,2.1912,2.1989,2.1615,2.1757,2.2506,2.37,2.4617,2.5824,2.6707,2.6879,2.6826,2.6712,2.6479,2.6045,2.5896,2.6226,2.6477,2.6259,2.6539,2.6663,2.6778,2.6611,2.6487,2.6487,2.6487,2.6487,2.6487,2.6487,2.6487,2.6487,2.6298,2.6375,2.6718,2.6816,2.6816,2.6816,2.6837,2.6884,2.7007,2.7183,2.769,2.8643,2.9025,2.9273,2.9852,3.0411,3.016,3.0611,3.1077,3.1107,3.1053,3.0617,3.0365,3.0288,3.0329,3.0238,3.0807,3.1409,3.1438,3.1496,3.1496,3.1496,3.1914,3.2602,3.2976,3.3425,3.4367,3.525,3.5429,3.5489,3.5489,1.8768,1.915,1.9281,1.915,1.8768,1.7633,1.6968,1.6546,1.5825,1.542,1.5468,1.5748,1.5864,1.595,1.6613,1.695,1.7052,1.7704,1.8286,1.8709,1.9259,1.9395,1.9249,1.9176,1.9397,1.9747,1.9798,1.9798,1.9798,1.9798,1.9798,1.9798,1.9798,1.9911,2.0226,2.0189,2.0189,2.0201,2.0189,2.0377,2.0693,2.1256,2.1581,2.1947,2.2411,2.2509,2.2037,2.2665,2.3579,2.438,2.5075,2.583,2.6529,2.6602,2.6336,2.6096,2.585,2.5603,2.5612,2.5985,2.6145,2.6072,2.6361,2.6449,2.6521,2.6487,2.6487,2.6487,2.6487,2.6487,2.6487,2.6487,2.6487,2.6487,2.6487,2.6487,2.6487,2.6521,2.6487,2.6487,2.6521,2.6692,2.6905,2.7162,2.7789,2.8588,2.8876,2.9369,3.0015,3.0644,3.1087,3.1204,3.1248,3.1101,3.0793,3.0378,2.9897,2.9799,2.9442,2.9393,3.0147,3.097,3.1248,3.1278,3.1409,3.1585,3.1914,3.2333,3.2901,3.3559,3.4517,3.51,3.528,3.5489,3.5489,1.9605,1.9631,1.89,1.8232,1.7605,1.681,1.6283,1.5671,1.5468,1.5468,1.5671,1.6226,1.6545,1.6754,1.7578,1.7867,1.8001,1.8818,1.8959,1.9376,1.983,2.0109,1.9707,1.9819,1.9821,1.9823,1.9798,1.9798,1.9798,1.9798,1.9798,1.9836,1.9861,2.0189,2.0541,2.0704,2.0754,2.0654,2.0729,2.0792,2.1049,2.1774,2.2285,2.2441,2.285,2.3049,2.2949,2.3457,2.4153,2.4423,2.5049,2.5467,2.5618,2.6149,2.6031,2.5604,2.5344,2.5332,2.5735,2.5779,2.5967,2.6336,2.6449,2.6487,2.6487,2.6487,2.6487,2.6487,2.6487,2.6487,2.6487,2.6487,2.6487,2.6487,2.6487,2.6487,2.6487,2.6487,2.6487,2.6487,2.6487,2.6871,2.7129,2.7229,2.7217,2.8716,2.8971,2.9411,2.995,3.045,3.0763,3.0896,3.0866,3.0807,3.045,3.0042,2.9552,2.9178,2.862,2.857,2.9362,3.0117,3.0688,3.097,3.0955,3.119,3.16,3.2108,3.2601,3.3335,3.4068,3.4681,3.5175,3.54,3.5489,1.8421,1.8886,1.814,1.7743,1.7495,1.681,1.6379,1.6179,1.5642,1.5748,1.6208,1.6464,1.7159,1.8102,1.879,1.9364,1.9748,2.0336,2.0712,2.0252,1.9957,1.9962,1.9911,2.0226,2.0226,1.9924,1.9798,1.9811,1.9823,1.9911,1.9823,1.9899,2.0339,2.0578,2.0767,2.1182,2.1106,2.0855,2.1106,2.1333,2.1405,2.1964,2.2566,2.2836,2.3077,2.3427,2.3703,2.3539,2.3959,2.4866,2.5259,2.5439,2.5618,2.5231,2.5135,2.5354,2.5143,2.5147,2.559,2.603,2.6323,2.6436,2.6487,2.6487,2.6487,2.6487,2.6487,2.6487,2.6487,2.6487,2.6487,2.6487,2.6487,2.6487,2.6487,2.6487,2.6487,2.6487,2.6487,2.6487,2.6487,2.6589,2.6803,2.7297,2.7736,2.8716,2.9129,2.9473,2.9844,3.0254,3.051,3.0673,3.051,3.0464,3.0269,2.9628,2.878,2.8363,2.7835,2.7617,2.8441,2.9286,2.9858,3.0238,3.048,3.0777,3.1117,3.1367,3.1728,3.267,3.3604,3.4262,3.4816,3.5145,3.5489,1.7841,1.8097,1.7374,1.709,1.695,1.6322,1.5979,1.6007,1.5979,1.6112,1.6676,1.7409,1.8374,1.9099,2.0021,2.0676,2.0843,2.0998,2.0981,2.0627,2.0352,2.0087,1.9924,2.0327,2.0402,1.9924,2.01,2.0214,2.0277,2.0465,2.0652,2.0589,2.093,2.1257,2.1405,2.1732,2.1719,2.1581,2.1694,2.187,2.1945,2.2146,2.2573,2.2982,2.3095,2.3335,2.3577,2.3767,2.3872,2.4295,2.4681,2.5035,2.5328,2.4951,2.4879,2.4869,2.5218,2.5234,2.5661,2.6135,2.6474,2.6487,2.6487,2.6487,2.6487,2.6487,2.6487,2.6487,2.6487,2.6487,2.6487,2.6487,2.6487,2.6487,2.6487,2.6487,2.6487,2.6487,2.6487,2.6487,2.6487,2.6748,2.7061,2.733,2.7835,2.862,2.8376,2.8716,2.9473,2.9875,3.0359,3.0494,3.0224,3.0072,2.9981,2.9254,2.7953,2.7438,2.7027,2.6939,2.7297,2.8214,2.9083,2.9411,2.969,3.0178,3.0492,3.0717,3.1206,3.233,3.3275,3.3934,3.4548,3.5055,3.537,1.744,1.7357,1.6652,1.6322,1.6236,1.5661,1.5526,1.5719,1.6197,1.6613,1.716,1.8844,1.9448,1.9987,2.1048,2.1591,2.1631,2.1292,2.1142,2.1119,2.0742,2.0415,2.0175,2.0289,2.0377,2.0012,2.039,2.0641,2.0905,2.1245,2.1255,2.143,2.1581,2.1769,2.2184,2.2368,2.2293,2.2155,2.2293,2.2305,2.228,2.2397,2.2732,2.2995,2.3095,2.3245,2.3514,2.3721,2.3894,2.3492,2.3968,2.4242,2.4411,2.4718,2.5021,2.4551,2.5305,2.5607,2.5837,2.6223,2.6487,2.6487,2.6487,2.6487,2.6487,2.66,2.6612,2.6575,2.6575,2.6637,2.6524,2.665,2.6612,2.6524,2.6487,2.6487,2.6521,2.6568,2.6748,2.6748,2.6645,2.6748,2.7095,2.7397,2.792,2.8298,2.8051,2.8149,2.9002,2.9597,3.0133,3.0434,3.0224,2.9411,2.9192,2.8588,2.7284,2.696,2.6487,2.6521,2.6624,2.7196,2.8051,2.8556,2.8939,2.9411,2.9827,3.0062,3.0807,3.2049,3.2991,3.3694,3.4352,3.4981,3.528,1.668,1.6624,1.5892,1.5584,1.5584,1.5468,1.5777,1.6293,1.6482,1.723,1.8379,1.923,2.0025,2.068,2.1656,2.2343,2.2523,2.2133,2.1882,2.1669,2.1144,2.0541,2.039,2.0112,2.0175,2.049,2.0729,2.0955,2.1295,2.1483,2.1681,2.1656,2.197,2.2297,2.246,2.2656,2.2694,2.2493,2.2681,2.2694,2.2518,2.2706,2.292,2.3095,2.3095,2.3365,2.3721,2.3599,2.3748,2.458,2.4307,2.3895,2.3785,2.4086,2.4874,2.566,2.5724,2.585,2.6223,2.6386,2.6487,2.6487,2.6537,2.6537,2.6625,2.6901,2.6989,2.6839,2.6939,2.7027,2.6562,2.6939,2.6901,2.6688,2.6549,2.6559,2.6671,2.6952,2.7397,2.7451,2.7095,2.6748,2.7162,2.7451,2.7769,2.8168,2.8233,2.8556,2.938,2.9782,3.0072,3.0224,3.0284,2.9223,2.8279,2.7504,2.6679,2.6748,2.6487,2.6487,2.6555,2.6568,2.7007,2.767,2.8182,2.862,2.9002,2.9442,3.0369,3.1545,3.2526,3.3514,3.4068,3.4666,3.531,1.5921,1.5892,1.5526,1.542,1.5468,1.5835,1.614,1.6595,1.7313,1.823,1.9199,2.0134,2.0909,2.1613,2.2334,2.2869,2.2895,2.2531,2.2184,2.1785,2.1094,2.049,2.0327,1.9936,2.0401,2.0893,2.1144,2.1395,2.1907,2.2246,2.2259,2.2368,2.2606,2.2706,2.2744,2.2945,2.2945,2.2807,2.2945,2.2982,2.2719,2.3007,2.3095,2.3108,2.312,2.3305,2.3535,2.375,2.3862,2.4356,2.4444,2.4262,2.4224,2.4556,2.5297,2.6197,2.6223,2.616,2.6436,2.6487,2.6487,2.6537,2.6725,2.6914,2.7065,2.7331,2.7568,2.7469,2.7431,2.7607,2.7394,2.7593,2.7406,2.7065,2.6914,2.6983,2.7075,2.7134,2.751,2.798,2.7637,2.7317,2.7351,2.7571,2.767,2.792,2.8266,2.8894,2.9628,2.9752,2.9782,2.9504,2.9366,2.8492,2.7584,2.7027,2.6487,2.6487,2.6487,2.6487,2.6487,2.6521,2.6589,2.6973,2.7451,2.7868,2.8652,2.9254,3.0178,3.1132,3.2346,3.3377,3.3798,3.4337,3.5085,1.542,1.542,1.542,1.5497,1.569,1.6236,1.668,1.7146,1.8151,1.8994,1.9773,2.0866,2.1591,2.2058,2.2543,2.297,2.3045,2.2619,2.2246,2.1719,2.1194,2.0591,2.0151,2.0113,2.0528,2.128,2.1631,2.1933,2.2435,2.2782,2.302,2.2982,2.3058,2.3095,2.3083,2.307,2.3095,2.3095,2.3095,2.3095,2.3108,2.3221,2.3283,2.3321,2.3384,2.354,2.3714,2.3972,2.4243,2.4532,2.4745,2.4988,2.5197,2.5536,2.5996,2.6399,2.6487,2.6487,2.6487,2.6499,2.6562,2.6738,2.709,2.7304,2.7519,2.7783,2.8097,2.8235,2.826,2.816,2.7996,2.8197,2.7971,2.7607,2.7477,2.7468,2.7396,2.7416,2.7494,2.7742,2.7809,2.7769,2.7637,2.7604,2.767,2.7953,2.8298,2.8639,2.9272,2.924,2.9146,2.8607,2.8168,2.7471,2.6939,2.6803,2.6487,2.6487,2.6487,2.6487,2.6487,2.6487,2.6589,2.6658,2.6692,2.7196,2.8084,2.8907,2.9566,3.0569,3.2205,3.3226,3.3632,3.4412,3.528,1.542,1.542,1.541,1.5777,1.6312,1.651,1.7302,1.8355,1.8635,1.9083,1.9902,2.0897,2.1237,2.1362,2.208,2.2669,2.2932,2.2895,2.2506,2.1958,2.1455,2.0943,2.0591,2.0603,2.0828,2.1481,2.1945,2.2468,2.2832,2.3032,2.3095,2.3095,2.3095,2.3095,2.3095,2.3095,2.3095,2.3095,2.3095,2.312,2.3221,2.3627,2.3803,2.4017,2.4236,2.4449,2.4399,2.4587,2.4858,2.5272,2.5423,2.5762,2.6197,2.6348,2.6411,2.6474,2.6487,2.6487,2.6487,2.6575,2.6751,2.7052,2.7366,2.7557,2.7984,2.8197,2.8473,2.8775,2.8787,2.8637,2.8486,2.8574,2.8461,2.8235,2.7996,2.778,2.7624,2.7528,2.7597,2.7633,2.7735,2.7743,2.767,2.7683,2.767,2.8019,2.833,2.8671,2.8734,2.8639,2.8395,2.7855,2.7537,2.6905,2.6714,2.6521,2.6487,2.6487,2.6487,2.6487,2.6487,2.6487,2.6487,2.6521,2.6487,2.6658,2.7464,2.8228,2.8844,3.0139,3.1878,3.28,3.3407,3.4366,3.5444,1.542,1.5439,1.5845,1.6208,1.6606,1.7357,1.8085,1.8688,1.9162,1.9687,2.0243,2.0582,2.0937,2.1489,2.2357,2.2857,2.3007,2.2794,2.2359,2.1845,2.1333,2.0779,2.039,2.0553,2.0993,2.1543,2.2058,2.2543,2.2945,2.3095,2.3095,2.3095,2.3095,2.3095,2.312,2.3108,2.3095,2.3095,2.3133,2.3296,2.3559,2.3879,2.4167,2.4456,2.472,2.4845,2.4888,2.5146,2.5322,2.5661,2.585,2.621,2.6424,2.6487,2.6487,2.6487,2.6487,2.6487,2.6524,2.6788,2.7077,2.7419,2.7846,2.8511,2.89,2.9026,2.9076,2.9377,2.9415,2.9252,2.9089,2.9277,2.9026,2.8762,2.8549,2.8526,2.8204,2.7713,2.7617,2.7622,2.7667,2.7815,2.7934,2.7901,2.8182,2.8812,2.8812,2.8703,2.8395,2.7822,2.7504,2.7108,2.6837,2.6589,2.6555,2.6487,2.6487,2.6487,2.6487,2.6487,2.6487,2.6487,2.6487,2.6499,2.6499,2.6739,2.7113,2.7774,2.8614,3.0039,3.1579,3.2518,3.3459,3.456,3.5429,1.542,1.5468,1.6179,1.6606,1.6894,1.8178,1.8794,1.9044,1.9527,2.0037,2.0405,2.0571,2.1216,2.2086,2.2779,2.297,2.2832,2.2468,2.1895,2.137,2.1006,2.0627,2.0566,2.0767,2.1355,2.1707,2.2305,2.2744,2.297,2.3095,2.3095,2.3095,2.3095,2.3095,2.3145,2.3296,2.3396,2.3409,2.3572,2.3778,2.3979,2.4305,2.4644,2.4946,2.5134,2.5222,2.5297,2.5573,2.5812,2.5925,2.621,2.6436,2.6487,2.6487,2.6487,2.6537,2.6625,2.6763,2.6851,2.7077,2.7404,2.7896,2.8461,2.9239,2.9566,2.9779,2.9779,2.9716,2.9716,2.9741,2.9779,2.9741,2.9541,2.9289,2.9139,2.922,2.9076,2.8313,2.7886,2.7949,2.8066,2.8235,2.8266,2.8182,2.8634,2.9518,2.9442,2.8894,2.8071,2.725,2.7007,2.6692,2.6624,2.6487,2.6487,2.6487,2.6487,2.6537,2.6537,2.6512,2.6537,2.6512,2.6487,2.6499,2.6549,2.6842,2.7189,2.7811,2.8485,2.9876,3.124,3.2544,3.3638,3.4743,3.54,1.542,1.5459,1.6208,1.6894,1.7539,1.8355,1.9097,1.9618,1.9773,1.9835,2.0045,2.0882,2.1882,2.2695,2.2882,2.2857,2.2422,2.2334,2.1732,2.128,2.1104,2.0993,2.0993,2.1421,2.2096,2.2259,2.2656,2.2957,2.3095,2.3095,2.3095,2.3108,2.3246,2.3158,2.3346,2.3722,2.3916,2.4017,2.4224,2.4286,2.4494,2.4845,2.541,2.5611,2.6047,2.6373,2.6373,2.6336,2.6323,2.6323,2.6424,2.6487,2.6487,2.6487,2.6487,2.6549,2.6927,2.7102,2.7256,2.7469,2.7883,2.8637,2.9277,2.9641,2.9767,2.9779,2.9779,2.9779,2.9779,2.9779,2.9779,2.9767,2.9704,2.9628,2.9465,2.9391,2.9135,2.8478,2.8127,2.8299,2.8352,2.8354,2.8703,2.862,2.8844,2.9659,2.8971,2.8395,2.7504,2.6748,2.6679,2.6555,2.6521,2.6487,2.6499,2.6549,2.6713,2.6738,2.6725,2.6663,2.6612,2.6575,2.6499,2.6625,2.6713,2.6989,2.7228,2.765,2.832,2.9596,3.0965,3.2547,3.3847,3.4957,3.54,1.542,1.5526,1.6669,1.733,1.7688,1.8862,1.954,1.9773,1.9798,1.9712,1.9697,2.0881,2.1609,2.2033,2.2832,2.3007,2.2744,2.2406,2.182,2.1455,2.1343,2.1169,2.1257,2.1697,2.2309,2.2418,2.2832,2.3095,2.3095,2.3145,2.3396,2.3509,2.3678,2.3941,2.4167,2.4299,2.4456,2.4525,2.4732,2.4782,2.5134,2.5285,2.5762,2.6197,2.6285,2.6487,2.6461,2.6474,2.6487,2.6487,2.6521,2.6487,2.6512,2.6512,2.6549,2.6625,2.708,2.7469,2.7833,2.8097,2.8674,2.9227,2.9666,2.9779,2.9779,2.9779,2.9779,2.9779,2.9779,2.9779,2.9779,2.9779,2.9767,2.9779,2.9729,2.9616,2.934,2.8761,2.8635,2.8891,2.8484,2.8189,2.862,2.9083,2.9411,2.969,2.8766,2.7855,2.704,2.6549,2.6575,2.6499,2.6487,2.6575,2.66,2.6763,2.6964,2.6989,2.6977,2.6901,2.6826,2.6562,2.6537,2.6688,2.6964,2.7316,2.7469,2.7469,2.8324,2.9848,3.136,3.2874,3.4103,3.5213,3.54,1.5729,1.5921,1.733,1.7786,1.7825,1.9176,1.9798,1.9798,1.9798,1.9961,2.0081,2.1092,2.1597,2.19,2.257,2.2945,2.2669,2.2272,2.1744,2.1443,2.132,2.1217,2.1433,2.1907,2.2619,2.2631,2.2832,2.3095,2.3108,2.3271,2.3697,2.4098,2.4393,2.4669,2.465,2.4951,2.5046,2.5059,2.5285,2.5285,2.5611,2.5799,2.6021,2.6424,2.6487,2.6714,2.6748,2.6748,2.6692,2.6726,2.6726,2.6521,2.6549,2.6637,2.6751,2.7002,2.7381,2.7946,2.836,2.8875,2.934,2.9666,2.9741,2.9779,2.9779,2.9779,2.9779,2.9779,2.9779,2.9779,2.9779,2.9779,2.9779,2.9779,2.9779,2.9717,2.9682,2.9326,2.9398,2.9534,2.9084,2.8733,2.8681,2.9118,2.8806,2.8912,2.8266,2.753,2.6922,2.6612,2.6725,2.6612,2.6487,2.6612,2.6738,2.7002,2.7218,2.7419,2.7369,2.7241,2.709,2.6864,2.6776,2.6989,2.7268,2.762,2.7984,2.8334,2.9207,3.0325,3.1917,3.3602,3.443,3.5415,3.5444,1.6454,1.668,1.8043,1.8248,1.7879,1.9176,1.9798,1.9811,1.9874,2.036,2.1104,2.1493,2.2042,2.2675,2.2977,2.2907,2.2531,2.2008,2.1493,2.1295,2.1647,2.1568,2.1857,2.2422,2.292,2.3045,2.3108,2.312,2.3195,2.3584,2.4136,2.4795,2.5172,2.5322,2.4913,2.5335,2.5561,2.5649,2.6122,2.6021,2.5921,2.616,2.6373,2.6461,2.6645,2.7007,2.6973,2.6939,2.6939,2.7061,2.6828,2.6659,2.665,2.709,2.7329,2.753,2.8298,2.8725,2.8913,2.9465,2.9691,2.9767,2.9779,2.9779,2.9779,2.9779,2.9779,2.9779,2.9779,2.9779,2.9779,2.9779,2.9779,2.9779,2.9779,2.978,2.9745,2.9567,2.9529,2.9608,2.9766,2.9756,2.938,2.9026,2.8378,2.8028,2.7579,2.7167,2.6873,2.6788,2.6952,2.7102,2.6977,2.7077,2.7266,2.7318,2.7507,2.7745,2.7871,2.7783,2.7595,2.7394,2.7356,2.7369,2.7758,2.8273,2.8787,2.9315,3.0218,3.1197,3.2831,3.4283,3.5052,3.5489,3.5489,1.6793,1.7302,1.8274,1.8543,1.8501,1.9359,1.9798,1.9874,2.02,2.0616,2.1081,2.1644,2.2159,2.2581,2.2945,2.2982,2.2794,2.2732,2.2284,2.1857,2.2209,2.2246,2.241,2.2631,2.3095,2.3095,2.312,2.3384,2.374,2.4042,2.4582,2.5234,2.5812,2.605,2.6021,2.616,2.6197,2.6223,2.6386,2.6386,2.6248,2.6386,2.6487,2.6533,2.6939,2.7129,2.7095,2.7027,2.7129,2.7159,2.6826,2.6999,2.7077,2.7482,2.7846,2.8034,2.8587,2.9114,2.9365,2.9716,2.9767,2.9779,2.9779,2.9779,2.9779,2.9779,2.9779,2.9779,2.9779,2.9779,2.9779,2.9779,2.9779,2.9779,2.9779,2.9779,2.9706,2.9378,2.9222,2.9434,2.9627,2.9162,2.879,2.8922,2.8472,2.8167,2.786,2.7752,2.753,2.7304,2.7281,2.762,2.772,2.7733,2.7795,2.7908,2.8147,2.8461,2.8574,2.8561,2.8335,2.7984,2.7896,2.7871,2.8411,2.8938,2.9341,2.9859,3.0945,3.2126,3.3693,3.4668,3.5231,3.5489,3.5489,1.755,1.807,1.8768,1.8927,1.8847,1.9475,1.9925,2.0125,2.0541,2.088,2.1383,2.2046,2.246,2.2644,2.2907,2.3095,2.3083,2.2857,2.2732,2.2372,2.2594,2.2468,2.2493,2.2807,2.3058,2.3145,2.3358,2.3665,2.3979,2.4381,2.5059,2.5799,2.6298,2.6361,2.6411,2.6424,2.6436,2.6436,2.6474,2.6474,2.6436,2.6487,2.6487,2.6611,2.6871,2.7175,2.7061,2.7095,2.7209,2.7003,2.7126,2.7316,2.7482,2.7921,2.8323,2.8512,2.8925,2.939,2.9679,2.9767,2.9779,2.9779,2.9779,2.9779,2.9779,2.9779,2.9779,2.9779,2.9779,2.9779,2.9779,2.9779,2.9779,2.9779,2.9779,2.9779,2.9781,2.9492,2.9567,2.9685,2.9611,2.899,2.8435,2.8559,2.8595,2.8433,2.826,2.821,2.816,2.7959,2.7758,2.8021,2.8235,2.8197,2.8323,2.8549,2.8775,2.9126,2.9101,2.8976,2.88,2.8473,2.8423,2.8461,2.8938,2.9366,2.9694,3.0336,3.1439,3.2818,3.4412,3.5141,3.5436,3.5549,3.5594,1.8688,1.8847,1.9501,1.9371,1.8965,1.9527,2.0112,2.0654,2.0729,2.1305,2.223,2.2297,2.2606,2.2995,2.3095,2.3095,2.3058,2.2644,2.2506,2.2447,2.2581,2.2443,2.2581,2.2869,2.3058,2.3296,2.3602,2.3916,2.4155,2.5034,2.5871,2.6273,2.6424,2.6487,2.6487,2.6487,2.6487,2.6487,2.6487,2.6487,2.6487,2.6487,2.6487,2.6589,2.6782,2.7074,2.7061,2.7095,2.718,2.7263,2.7484,2.741,2.7695,2.8349,2.8725,2.9101,2.949,2.9666,2.9767,2.9779,2.9779,2.9779,2.9779,2.9779,2.9779,2.9779,2.9779,2.9779,2.9779,2.9779,2.9779,2.9779,2.9779,2.9779,2.9779,2.9856,2.9934,2.9973,3.0139,3.0187,3.0101,2.9661,2.9113,2.9001,2.9001,2.9063,2.8938,2.8775,2.8725,2.8637,2.8473,2.8423,2.8586,2.8586,2.8775,2.9051,2.9214,2.9478,2.9302,2.9164,2.8988,2.8963,2.8988,2.9089,2.9453,2.9756,2.9847,3.0677,3.1942,3.334,3.422,3.5185,3.5389,3.5696,3.5863,1.9006,1.9501,1.9721,1.9657,1.9527,1.9695,2.0137,2.0691,2.1081,2.1681,2.2322,2.2706,2.2932,2.3095,2.3095,2.3095,2.3045,2.297,2.292,2.2844,2.2769,2.2844,2.2932,2.3045,2.3108,2.3333,2.374,2.4305,2.4757,2.5674,2.6223,2.6461,2.6624,2.6589,2.6555,2.6521,2.6521,2.6487,2.6487,2.6487,2.6487,2.6487,2.6487,2.6555,2.6952,2.7142,2.6884,2.7235,2.7377,2.7345,2.7723,2.7959,2.8524,2.9126,2.9541,2.9553,2.9716,2.9779,2.9779,2.9779,2.9779,2.9779,2.9779,2.9779,2.9779,2.9779,2.9779,2.9779,2.9779,2.9779,2.9779,2.9779,2.9779,2.9779,2.9779,2.9818,2.9895,2.9921,3.0101,3.0088,3.006,2.9972,2.9441,2.9428,2.9453,2.9628,2.9616,2.939,2.9227,2.9126,2.9076,2.9013,2.9038,2.9089,2.9264,2.9528,2.9616,2.9691,2.9515,2.9415,2.944,2.9453,2.9503,2.9578,2.9691,2.9741,2.9793,3.0861,3.2054,3.2331,3.3178,3.4356,3.5347,3.5747,3.6204,1.9397,1.9773,1.9798,1.9798,1.9747,1.9501,1.9961,2.0926,2.1383,2.1794,2.2318,2.2844,2.3095,2.3095,2.3095,2.3095,2.3095,2.307,2.3045,2.3045,2.3095,2.307,2.312,2.3308,2.3471,2.3715,2.4192,2.4895,2.531,2.5942,2.6555,2.6994,2.6973,2.6973,2.6994,2.704,2.6816,2.6624,2.6487,2.6487,2.6487,2.6487,2.6487,2.6589,2.7108,2.6884,2.6687,2.7237,2.7407,2.7465,2.7934,2.8536,2.8963,2.944,2.9754,2.9754,2.9767,2.9779,2.9779,2.9779,2.9779,2.9779,2.9779,2.9779,2.9779,2.9779,2.9779,2.9779,2.9779,2.9779,2.9779,2.9779,2.9779,2.9779,2.9779,2.9779,2.9779,2.9779,2.9818,2.9818,2.9819,2.9819,2.9754,2.9779,2.9779,2.9767,2.9754,2.9679,2.9553,2.9478,2.949,2.9478,2.9553,2.9641,2.9779,2.9779,2.9779,2.9767,2.9716,2.9679,2.9779,2.9767,2.9679,2.9704,2.9767,2.9892,3.008,3.0919,3.1854,3.2186,3.2868,3.4376,3.5496,3.6,3.6537,1.9798,1.9798,1.9798,1.9798,1.9721,1.9162,1.9817,2.134,2.1368,2.1794,2.2368,2.2882,2.3095,2.3095,2.3095,2.3095,2.3095,2.3095,2.3095,2.3095,2.3095,2.3095,2.3258,2.3602,2.3665,2.4217,2.4808,2.5259,2.5745,2.6388,2.7129,2.7657,2.7604,2.755,2.7484,2.7263,2.6939,2.6589,2.6487,2.6487,2.6487,2.6487,2.6487,2.6487,2.6568,2.6524,2.6688,2.7012,2.7366,2.7745,2.8173,2.8825,2.9227,2.9478,2.9716,2.9779,2.9779,2.9779,2.9779,2.9779,2.9779,2.9779,2.9779,2.9779,2.9779,2.9779,2.9779,2.9779,2.9779,2.9779,2.9779,2.9779,2.9779,2.9779,2.9779,2.9779,2.9779,2.9856,2.996,2.996,2.9895,2.9921,3.0177,3.0203,2.9779,2.9779,2.9779,2.9779,2.9767,2.9716,2.9729,2.9779,2.9779,2.9779,2.9779,2.9779,2.9779,2.9779,2.9779,2.9779,2.9779,2.9792,2.9804,2.9942,3.0105,3.0319,3.0628,3.1306,3.1811,3.2253,3.3162,3.4665,3.5549,3.6029,3.6941,1.9798,1.9798,1.9798,1.9798,1.9798,1.9605,2.0042,2.0867,2.088,2.1656,2.2744,2.302,2.3095,2.3095,2.3095,2.3095,2.3095,2.3095,2.3095,2.3095,2.3095,2.317,2.3145,2.3434,2.3703,2.4092,2.472,2.5594,2.6299,2.6971,2.7438,2.769,2.7769,2.7835,2.7683,2.7317,2.6837,2.6521,2.6487,2.6487,2.6487,2.6487,2.6487,2.6499,2.6512,2.6776,2.6977,2.7241,2.7846,2.8411,2.8662,2.9101,2.9566,2.9716,2.9779,2.9779,2.9779,2.9779,2.9779,2.9792,2.9817,2.9817,2.9817,2.9792,2.9779,2.9779,2.9779,2.9779,2.9779,2.9779,2.9817,2.9817,2.9829,2.9829,2.9779,2.9779,2.9779,2.9921,3.0101,3.0113,3.0037,3.0177,3.0419,3.0317,2.9921,2.9779,2.9779,2.9779,2.9779,2.9754,2.9754,2.9779,2.9779,2.9779,2.9779,2.9779,2.9779,2.9779,2.9779,2.9779,2.9779,2.9905,3.003,3.0306,3.052,3.0758,3.0972,3.1256,3.1743,3.2307,3.2866,3.4124,3.5052,3.562,3.691,1.9798,1.9798,1.9798,1.9798,1.9798,1.9798,2.0263,2.0918,2.0805,2.1594,2.2907,2.2882,2.2857,2.3058,2.3095,2.3095,2.3095,2.3095,2.3095,2.3095,2.3145,2.3321,2.3358,2.3484,2.4192,2.4632,2.5292,2.6131,2.6942,2.7397,2.7736,2.8149,2.8247,2.8019,2.7736,2.7196,2.6782,2.6521,2.6487,2.6499,2.6499,2.6499,2.6487,2.6499,2.6763,2.7027,2.7366,2.7645,2.8323,2.885,2.9113,2.9402,2.9691,2.9767,2.9779,2.9779,2.9779,2.9779,2.9779,2.9804,2.9892,2.9967,2.9842,2.9817,3.0118,3.0105,2.9804,2.9779,2.9779,2.9792,3.0018,3.008,3.0131,3.0156,2.993,2.9779,2.9779,2.9856,2.996,2.996,2.9934,2.9972,3.0113,3.0113,2.9792,2.9779,2.9779,2.9779,2.9779,2.9779,2.9779,2.9829,2.9854,2.9817,2.9779,2.9779,2.9779,2.9779,2.9779,2.9779,2.9817,3.0055,3.0281,3.0557,3.0884,3.126,3.1461,3.1687,3.2014,3.2608,3.2928,3.3368,3.4273,3.5294,3.658,1.9798,1.9798,1.9798,1.9798,1.9798,1.9798,2.0376,2.1169,2.083,2.1455,2.2744,2.2422,2.2569,2.2945,2.3095,2.3095,2.3095,2.3095,2.3095,2.3095,2.3095,2.3396,2.3728,2.3991,2.4569,2.5403,2.6185,2.6837,2.7537,2.7934,2.8376,2.8876,2.8748,2.8427,2.7887,2.7484,2.7074,2.6645,2.6499,2.6549,2.6549,2.6537,2.6575,2.6751,2.6992,2.7318,2.7758,2.8235,2.8813,2.9151,2.9478,2.9641,2.9741,2.9779,2.9779,2.9779,2.9779,2.9779,2.9779,2.9792,3.0043,3.0181,2.9955,2.998,3.0269,3.0193,2.988,2.9892,2.9892,2.9905,3.0131,3.0357,3.0407,3.0357,3.0068,3.0005,3.0018,3.0057,3.0096,3.0122,3.0123,3.0084,3.0086,3.0086,2.9829,2.9817,2.9804,2.9792,2.9779,2.9779,2.9779,2.9905,3.0018,2.9942,2.9829,2.9829,2.9842,2.9779,2.9779,2.9779,2.9867,3.0156,3.0482,3.0821,3.116,3.1675,3.2039,3.229,3.2641,3.2898,3.3035,3.3286,3.3949,3.5009,3.6244,1.9798,1.9798,1.9798,1.9798,1.9798,1.9798,2.0226,2.0691,2.0289,2.0903,2.2096,2.2046,2.2159,2.3095,2.3095,2.3095,2.3095,2.3095,2.3095,2.3095,2.3195,2.3534,2.3991,2.4418,2.477,2.5686,2.676,2.7472,2.8149,2.857,2.878,2.9002,2.8182,2.7868,2.767,2.7229,2.6748,2.6499,2.6612,2.6713,2.6927,2.6914,2.6851,2.7014,2.7231,2.7858,2.8423,2.8737,2.9151,2.9515,2.9691,2.9767,2.9779,2.9779,2.9779,2.9779,2.9779,2.9779,2.9779,2.9779,3.0018,3.0105,2.9917,2.988,3.0055,3.008,3.0005,3.0281,3.0244,3.003,3.0206,3.0507,3.062,3.0432,3.0193,3.0595,3.0834,3.0979,3.1084,3.1037,3.0964,3.1033,3.1126,3.0714,2.998,2.998,3.0018,3.0018,3.008,2.9967,2.988,3.0068,3.0269,3.0043,2.9905,2.9917,2.9917,2.9842,2.9867,3.0018,3.0168,3.0331,3.0658,3.1173,3.17,3.2215,3.2554,3.2729,3.2855,3.3036,3.3074,3.3305,3.3911,3.4802,3.6053]},{"header":{"parameterUnit":"m.s-1","parameterCategory":1,"la1":31.0,"la2":29.5877,"lo1":-88.7671,"lo2":-86.6584,"dy":0.0162,"dx":0.0185,"nx":115,"ny":88,"refTime":"2025-01-22T06:00:00:Z","depth":0,"parameterNumber":3,"parameterNumberName":"V-component_of_WINDS"},"data":[0.0,0.0,0.0,0.0,0.0,0.0,0.0,0.0,0.0,0.0,0.0,0.0,0.0,0.0,0.0,0.0,0.0,0.0,0.0,0.0,0.0,0.0,0.0,0.0,0.0,0.0,0.0,0.0,0.0,0.0,0.0,0.0,0.0,0.0,0.0,0.0,0.0,0.0,0.0,0.0,0.0,0.0,0.0,0.0,0.0,0.0,0.0,0.0,0.0,0.0,0.0,0.0,0.0,0.0,0.0,0.0,0.0,0.0,0.0,0.0,0.0,0.0,0.0,0.0,0.0,0.0,0.0,0.0,0.0,0.0,0.0,0.0,0.0,0.0,0.0,0.0,0.0,0.0,0.0,0.0,0.0,0.0,0.0,0.0,0.0,0.0,0.0,0.0,0.0,0.0,0.0,0.0,0.0,0.0,0.0,0.0,0.0,0.0,0.0,0.0,0.0,0.0,0.0,0.0,0.0,0.0,0.0,0.0,0.0,0.0,0.0,0.0,0.0,0.0,0.0,0.0,0.0,0.0,0.0,0.0,0.0,0.0,0.0,0.0,0.0,0.0,0.0,0.0,0.0,0.0,0.0,0.0,0.0,0.0,0.0,0.0,0.0,0.0,0.0,0.0,0.0,0.0,0.0,0.0,0.0,0.0,0.0,0.0,0.0,0.0,0.0,0.0,0.0,0.0,0.0,0.0,0.0,0.0,0.0,0.0,0.0,0.0,0.0,0.0,0.0,0.0,0.0,0.0,0.0,0.0,0.0,0.0,0.0,0.0,0.0,0.0,0.0,0.0,0.0,0.0,0.0,0.0,0.0,0.0,0.0,0.0,0.0,0.0,0.0,0.0,0.0,0.0,0.0,0.0,0.0,0.0,0.0,0.0,0.0,0.0,0.0,0.0,0.0,0.0,0.0,0.0,0.0,0.0,0.0,0.0,0.0,0.0,0.0,0.0,0.0,0.0,0.0,0.0,0.0,0.0,0.0,0.0,0.0,0.0,0.0,0.0,0.0,0.0,0.0,0.0,0.0,0.0,0.0,0.0,0.0,0.0,0.0,0.0,0.0,0.0,0.0,0.0,0.0,0.0,0.0,0.0,0.0,0.0,0.0,0.0,0.0,0.0,0.0,0.0,0.0,0.0,0.0,0.0,0.0,0.0,0.0,0.0,0.0,0.0,0.0,0.0,0.0,0.0,0.0,0.0,0.0,0.0,0.0,0.0,0.0,0.0,0.0,0.0,0.0,0.0,0.0,0.0,0.0,0.0,0.0,0.0,0.0,0.0,0.0,0.0,0.0,0.0,0.0,0.0,0.0,0.0,0.0,0.0,0.0,0.0,0.0,0.0,0.0,0.0,0.0,0.0,0.0,0.0,0.0,0.0,0.0,0.0,0.0,0.0,0.0,0.0,0.0,0.0,0.0,0.0,0.0,0.0,0.0,0.0,0.0,0.0,0.0,0.0,0.0,0.0,0.0,0.0,0.0,0.0,0.0,0.0,0.0,0.0,0.0,0.0,0.0,0.0,0.0,0.0,0.0,0.0,0.0,0.0,0.0,0.0,0.0,0.0,0.0,0.0,0.0,0.0,0.0,0.0,0.0,0.0,0.0,0.0,0.0,0.0,0.0,0.0,0.0,0.0,0.0,0.0,0.0,0.0,0.0,0.0,0.0,0.0,0.0,0.0,0.0,0.0,0.0,0.0,0.0,0.0,0.0,0.0,0.0,0.0,0.0,0.0,0.0,0.0,0.0,0.0,0.0,0.0,0.0,0.0,0.0,0.0,0.0,0.0,0.0,0.0,0.0,0.0,0.0,0.0,0.0,0.0,0.0,0.0,0.0,0.0,0.0,0.0,0.0,0.0,0.0,0.0,0.0,0.0,0.0,0.0,0.0,0.0,0.0,0.0,0.0,0.0,0.0,0.0,0.0,0.0,0.0,0.0,0.0,0.0,0.0,0.0,0.0,0.0,0.0,0.0,0.0,0.0,0.0,0.0,0.0,0.0,0.0,0.0,0.0,0.0,0.0,0.0,0.0,0.0,0.0,0.0,0.0,0.0,0.0,0.0,0.0,0.0,0.0,0.0,0.0,0.0,0.0,0.0,0.0,0.0,0.0,0.0,0.0,0.0,0.0,0.0,0.0,0.0,0.0,0.0,0.0,0.0,0.0,0.0,0.0,0.0,0.0,0.0,0.0,0.0,0.0,0.0,0.0,0.0,0.0,0.0,0.0,0.0,0.0,0.0,0.0,0.0,0.0,0.0,0.0,0.0,0.0,0.0,0.0,0.0,0.0,0.0,0.0,0.0,0.0,0.0,0.0,0.0,0.0,0.0,0.0,0.0,0.0,0.0,0.0,0.0,0.0,0.0,0.0,0.0,0.0,0.0,0.0,0.0,0.0,0.0,0.0,0.0,0.0,0.0,0.0,0.0,0.0,0.0,0.0,0.0,0.0,0.0,0.0,0.0,0.0,0.0,0.0,0.0,0.0,0.0,0.0,0.0,0.0,0.0,0.0,0.0,0.0,0.0,0.0,0.0,0.0,0.0,0.0,0.0,0.0,0.0,0.0,0.0,0.0,0.0,0.0,0.0,0.0,0.0,0.0,0.0,0.0,0.0,0.0,0.0,0.0,0.0,0.0,0.0,0.0,0.0,0.0,0.0,0.0,0.0,0.0,0.0,0.0,0.0,0.0,0.0,0.0,0.0,0.0,0.0,0.0,0.0,0.0,0.0,0.0,0.0,0.0,0.0,0.0,0.0,0.0,0.0,0.0,0.0,0.0,0.0,0.0,0.0,0.0,0.0,0.0,0.0,0.0,0.0,0.0,0.0,0.0,0.0,0.0,0.0,0.0,0.0,0.0,0.0,0.0,0.0,0.0,0.0,0.0,0.0,0.0,0.0,0.0,0.0,0.0,0.0,0.0,0.0,0.0,0.0,0.0,0.0,0.0,0.0,0.0,0.0,0.0,0.0,0.0,0.0,0.0,0.0,0.0,0.0,0.0,0.0,0.0,0.0,0.0,0.0,0.0,0.0,0.0,0.0,0.0,0.0,0.0,0.0,0.0,0.0,0.0,0.0,0.0,0.0,0.0,0.0,0.0,0.0,0.0,0.0,0.0,0.0,0.0,0.0,0.0,0.0,0.0,0.0,0.0,0.0,0.0,0.0,0.0,0.0,0.0,0.0,0.0,0.0,0.0,0.0,0.0,0.0,0.0,0.0,0.0,0.0,0.0,0.0,0.0,0.0,0.0,0.0,0.0,0.0,0.0,0.0,0.0,0.0,0.0,0.0,0.0,0.0,0.0,0.0,0.0,0.0,0.0,0.0,0.0,0.0,0.0,0.0,0.0,0.0,0.0,0.0,0.0,0.0,0.0,0.0,0.0,0.0,0.0,0.0,0.0,0.0,0.0,0.0,0.0,0.0,0.0,0.0,0.0,0.0,0.0,0.0,0.0,0.0,0.0,0.0,0.0,0.0,0.0,0.0,0.0,0.0,0.0,0.0,0.0,0.0,0.0,0.0,0.0,0.0,0.0,0.0,0.0,0.0,0.0,0.0,0.0,0.0,0.0,0.0,0.0,0.0,0.0,0.0,0.0,0.0,0.0,0.0,0.0,0.0,0.0,0.0,0.0,0.0,0.0,0.0,0.0,0.0,0.0,0.0,0.0,0.0,0.0,0.0,0.0,0.0,0.0,0.0,0.0,0.0,0.0,0.0,0.0,0.0,0.0,0.0,0.0,0.0,0.0,0.0,0.0,0.0,0.0,0.0,0.0,0.0,0.0,0.0,0.0,0.0,0.0,0.0,0.0,0.0,0.0,0.0,0.0,0.0,0.0,0.0,0.0,0.0,0.0,0.0,0.0,0.0,0.0,0.0,0.0,0.0,0.0,0.0,0.0,0.0,0.0,0.0,0.0,0.0,0.0,0.0,0.0,0.0,0.0,0.0,0.0,0.0,0.0,0.0,0.0,0.0,0.0,0.0,0.0,0.0,0.0,0.0,0.0,0.0,0.0,0.0,0.0,0.0,0.0,0.0,0.0,0.0,0.0,0.0,0.0,0.0,0.0,0.0,0.0,0.0,0.0,0.0,0.0,0.0,0.0,0.0,0.0,0.0,0.0,0.0,0.0,0.0,0.0,0.0,0.0,0.0,0.0,0.0,0.0,0.0,0.0,0.0,0.0,0.0,0.0,0.0,0.0,0.0,0.0,0.0,0.0,0.0,0.0,0.0,0.0,0.0,0.0,0.0,0.0,0.0,0.0,0.0,0.0,0.0,0.0,0.0,0.0,0.0,0.638,0.0,0.0,0.0,0.0,0.0,0.0,0.0,0.0,0.0,0.0,0.0,0.0,0.0,0.0,0.0,0.0,0.0,0.0,0.0,0.0,0.0,0.0,0.0,0.0,0.0,0.0,0.0,0.0,0.0,0.0,0.0,0.0,0.0,0.0,0.0,0.0,0.0,0.0,0.0,0.0,0.0,0.0,0.0,0.0,0.0,0.0,0.0,0.0,0.0,0.0,0.0,0.0,0.0,0.0,0.0,0.0,0.0,0.0,0.0,0.0,0.0,0.0,0.0,0.0,0.0,0.0,0.0,0.0,0.0,0.0,0.0,0.0,0.0,0.0,0.0,0.0,0.0,0.0,0.0,0.0,0.0,0.0,0.0,0.0,0.0,0.0,0.0,0.0,0.0,0.0,0.0,0.0,0.0,0.0,0.0,0.0,0.0,0.0,0.0,0.0,0.0,0.0,0.0,0.0,0.0,0.0,0.0,0.0,0.0,0.0,0.7641,0.713,0.6692,0.6575,0.6775,0.0,0.0,0.0,0.0,0.0,0.0,0.0,0.0,0.0,0.0,0.0,0.0,0.0,0.0,0.0,0.0,0.0,0.0,0.0,0.0,0.0,0.0,0.0,0.0,0.0,0.0,0.0,0.0,0.0,0.0,0.0,0.0,0.0,0.0,0.0,0.0,0.0,0.0,0.0,0.0,0.0,0.0,0.0,0.0,0.0,0.0,0.0,0.0,0.0,0.0,0.0,0.0,0.0,0.0,0.0,0.0,0.0,0.0,0.0,0.0,0.0,0.0,0.0,0.0,0.0,0.0,0.0,0.0,0.0,0.0,0.0,0.0,0.0,0.0,0.0,0.0,0.0,0.0,0.0,0.0,0.0,0.0,0.0,0.0,0.0,0.0,0.0,0.0,0.0,0.0,0.0,0.0,0.0,0.0,0.0,0.0,0.0,0.0,0.0,0.0,0.0,0.0,0.0,0.0,0.0,0.0,0.0,0.0,0.0,0.0,0.0,0.0,0.7148,0.6838,0.7354,0.0,0.0,0.0,0.0,0.0,0.0,0.0,0.0,0.0,0.0,0.0,0.0,0.0,0.0,0.0,0.0,0.0,0.0,0.0,0.0,0.0,0.0,0.0,0.0,0.0,0.0,0.0,0.0,0.0,0.0,0.0,0.0,0.0,0.0,0.0,0.0,0.0,0.0,0.0,0.0,0.0,0.0,0.0,0.0,0.0,0.0,0.0,0.0,0.0,0.0,0.0,0.0,0.0,0.0,0.0,0.0,0.0,0.0,0.0,0.0,0.0,0.0,0.0,0.0,0.0,0.0,0.0,0.0,0.0,0.0,0.0,0.0,0.0,0.0,0.0,0.0,0.0,0.0,0.0,0.0,0.0,0.0,0.0,0.0,0.0,0.0,0.0,0.0,0.0,0.0,0.0,0.0,0.0,0.0,0.0,0.0,0.0,0.0,0.0,0.0,0.0,0.0,0.0,0.0,0.0,0.0,0.0,0.0,0.0,0.0,0.8608,0.8793,0.818,0.0,0.8481,0.0,0.0,0.0,0.0,0.0,0.0,0.0,0.0,0.0,0.0,0.0,0.0,0.0,0.0,0.0,0.0,0.0,0.0,0.0,0.0,0.0,0.0,0.0,0.0,0.0,0.0,0.0,0.0,0.0,0.0,0.0,0.0,0.0,0.0,0.0,0.0,0.0,0.0,0.0,0.0,0.0,0.0,0.0,0.0,0.0,0.0,0.0,0.0,0.0,0.0,0.0,0.0,0.0,0.0,0.0,0.0,0.0,0.0,0.0,0.0,0.0,0.0,0.0,0.0,0.0,0.0,0.0,0.0,0.0,0.0,0.0,0.0,0.0,0.0,0.0,0.0,0.0,0.0,0.0,0.0,0.0,0.0,0.0,0.0,0.0,0.0,0.0,0.0,0.0,0.0,0.0,0.0,0.0,0.0,0.0,0.0,0.0,0.0,0.0,0.0,0.0,0.0,0.0,0.0,0.0,0.0,0.0,0.0,0.0,0.0,0.9061,0.9537,0.8965,0.8819,0.0,0.0,0.0,0.0,0.0,0.0,0.0,0.0,0.0,0.0,0.0,0.0,0.0,0.0,0.0,0.0,0.0,0.0,0.0,0.0,0.0,0.0,0.0,0.0,0.0,0.0,0.0,0.0,0.0,0.0,0.0,0.0,0.0,0.0,0.0,0.0,0.0,0.0,0.0,0.0,0.0,0.0,0.0,0.0,0.0,0.0,0.0,0.0,0.0,0.0,0.0,0.0,0.0,0.0,0.0,0.0,0.0,0.0,0.0,0.0,0.0,0.0,0.0,0.0,0.0,0.0,0.0,0.0,0.0,0.0,0.0,0.0,0.0,0.0,0.0,0.0,0.0,0.0,0.0,0.0,0.0,0.0,0.0,0.0,0.0,0.0,0.0,0.0,0.0,0.0,0.0,0.0,0.0,0.0,0.0,0.0,0.0,0.0,0.0,0.0,0.0,0.0,0.0,0.0,0.0,0.0,0.0,0.0,0.0,0.0,0.9639,0.0,1.0025,0.9842,0.9659,0.9488,0.0,0.0,0.0,0.0,0.0,0.0,0.0,0.0,0.0,0.0,0.0,0.0,0.0,0.0,0.0,0.0,0.0,0.0,0.0,0.0,0.0,0.0,0.0,0.0,0.0,0.0,0.0,0.0,0.0,0.0,0.0,0.0,0.0,0.0,0.0,0.0,0.0,0.0,0.0,0.0,0.0,0.0,0.0,0.0,0.0,0.0,0.0,0.0,0.0,0.0,0.0,0.0,0.0,0.0,0.0,0.0,0.0,0.0,0.0,0.0,0.0,0.0,0.0,0.0,0.0,0.0,0.0,0.0,0.0,0.0,0.0,0.0,0.0,0.0,0.0,0.0,0.0,0.0,0.0,0.0,0.0,0.0,0.0,0.0,0.0,0.0,0.0,0.0,0.0,0.0,0.0,0.0,0.0,0.0,0.0,0.0,0.0,0.0,0.0,0.0,0.0,0.0,0.0,0.0,0.0,0.0,0.0,0.0,0.0,1.026,1.0032,1.0226,1.0927,1.0646,0.0,0.0,0.0,0.0,0.0,0.0,0.0,0.0,0.0,0.0,0.0,0.0,0.0,0.0,0.0,0.0,0.0,0.0,0.0,0.0,0.0,0.0,0.0,0.0,0.0,0.0,0.0,0.0,0.0,0.0,0.0,0.0,0.0,0.0,0.0,0.0,0.0,0.0,0.0,0.0,0.0,0.0,0.0,0.0,0.0,0.0,0.0,0.0,0.0,0.0,0.0,0.0,0.0,0.0,0.0,0.0,0.0,0.0,0.0,0.0,0.0,0.0,0.0,0.0,0.0,0.0,0.0,0.0,0.0,0.0,0.0,0.0,0.0,0.0,0.0,0.0,0.0,0.0,0.0,0.0,0.0,0.0,0.0,0.0,0.0,0.0,0.0,0.0,0.0,0.0,0.0,0.0,0.0,0.0,0.0,0.0,0.0,0.0,0.0,0.0,0.0,0.0,0.0,0.0,0.0,0.0,0.0,0.0,0.0,0.983,0.9751,1.0253,1.1384,1.0729,1.0414,0.0,0.0,0.0,0.0,0.0,0.0,0.0,0.0,0.0,0.0,0.0,0.0,0.0,0.0,0.0,0.0,0.0,0.0,0.0,0.0,0.0,0.0,0.0,0.0,0.0,0.0,0.0,0.0,0.0,0.0,0.0,0.0,0.0,0.0,0.0,0.0,0.0,0.0,0.0,0.0,0.0,0.0,0.0,0.0,0.0,0.0,0.0,0.0,0.0,0.0,0.0,0.0,0.0,0.0,0.0,0.0,0.0,0.0,0.0,0.0,0.0,0.0,0.0,0.0,0.0,0.0,0.0,0.0,0.0,0.0,0.0,0.0,0.0,0.0,0.0,0.0,0.0,0.0,0.0,0.0,0.0,0.0,0.0,0.0,0.0,0.0,0.0,0.0,0.0,0.0,0.0,0.0,0.0,0.0,0.0,0.0,0.0,0.0,0.0,0.0,0.0,0.0,0.0,0.0,0.0,0.0,0.0,0.0,0.0,0.9942,0.0,1.0956,0.0,1.0957,1.0453,0.0,0.0,0.0,0.0,0.0,0.0,0.0,0.0,0.0,0.0,0.0,0.0,0.0,0.0,0.0,0.0,0.0,0.0,0.0,0.0,0.0,0.0,0.0,0.0,0.0,0.0,0.0,0.0,0.0,0.0,0.0,0.0,0.0,0.0,0.0,0.0,0.0,0.0,0.0,0.0,0.0,0.0,0.0,0.0,0.0,0.0,0.0,0.0,0.0,0.0,0.0,0.0,0.0,0.0,0.0,0.0,0.0,0.0,0.0,0.0,0.0,0.0,0.0,0.0,0.0,0.0,0.0,0.0,0.0,0.0,0.0,0.0,0.0,0.0,0.0,0.0,0.0,0.0,0.0,0.0,0.0,0.0,0.0,0.0,0.0,0.0,0.0,0.0,0.0,0.0,0.0,0.0,0.0,0.0,0.0,0.0,0.0,0.0,0.0,0.0,0.0,0.0,0.0,0.0,0.0,0.0,0.0,0.0,0.8607,1.1246,1.1888,1.2047,1.1942,1.1654,1.0831,0.0,0.0,0.0,0.0,0.0,0.0,0.0,0.0,0.0,0.0,0.0,0.0,0.0,0.0,0.0,0.0,0.0,0.0,0.0,0.0,0.0,0.0,0.0,0.0,0.0,0.0,0.0,0.0,0.0,0.0,0.0,0.0,0.0,0.0,0.0,0.0,0.0,0.0,0.0,0.0,0.0,0.0,0.0,0.0,0.0,0.0,0.0,0.0,0.0,0.0,0.0,0.0,0.0,0.0,0.0,0.0,0.0,0.0,0.0,0.0,0.0,0.0,0.0,0.0,0.0,0.0,0.0,0.0,0.0,0.0,0.0,0.0,0.0,0.0,0.0,0.0,0.0,0.0,0.0,0.0,0.0,0.0,0.0,0.0,0.0,0.0,0.0,0.0,0.0,0.0,0.0,0.0,0.0,0.0,0.0,0.0,0.0,0.0,0.0,0.0,0.0,0.0,0.0,0.0,0.0,0.0,0.0,0.0,0.0,1.0586,1.0654,1.1482,1.3135,1.1506,1.1046,0.0,0.0,0.0,0.0,0.0,0.0,0.0,0.0,0.0,0.0,0.0,0.0,0.0,0.0,0.0,0.0,0.0,0.0,0.0,0.0,0.0,0.0,0.0,0.0,0.0,0.0,0.0,0.0,0.0,0.0,0.0,0.0,0.0,0.0,0.0,0.0,0.0,0.0,0.0,0.0,0.0,0.0,0.0,0.0,0.0,0.0,0.0,0.0,0.0,0.0,0.0,0.0,0.0,0.0,0.0,0.0,0.0,0.0,0.0,0.0,0.0,0.0,0.0,0.0,0.0,0.0,0.0,0.0,0.0,0.0,0.0,0.0,0.0,0.0,0.0,0.0,0.0,0.0,0.0,0.0,0.0,0.0,0.0,0.0,0.0,0.0,0.0,0.0,0.0,0.0,0.0,0.0,0.0,0.0,0.0,0.0,0.0,0.0,0.0,0.0,0.0,0.0,0.0,0.0,0.0,0.0,0.0,0.0,0.0,1.1041,1.1079,1.1887,1.355,1.2023,1.1541,1.2333,0.0,0.0,0.0,0.0,0.0,0.0,0.0,0.0,0.0,0.0,0.0,0.0,0.0,0.0,0.0,0.0,0.0,0.0,0.0,0.0,0.0,0.0,0.0,0.0,0.0,0.0,0.0,0.0,0.0,0.0,0.0,0.0,0.0,0.0,0.0,0.0,0.0,0.0,0.0,0.0,0.0,0.0,0.0,0.0,0.0,0.0,0.0,0.0,0.0,0.0,0.0,0.0,0.0,0.0,0.0,0.0,0.0,0.0,0.0,0.0,0.0,0.0,0.0,0.0,0.0,0.0,0.0,0.0,0.0,0.0,0.0,0.0,0.0,0.0,0.0,0.0,0.0,0.0,0.0,0.0,0.0,0.0,0.0,0.0,0.0,0.0,0.0,0.0,0.0,0.0,0.0,0.0,0.0,0.0,0.0,0.0,0.0,0.0,0.0,0.0,0.0,0.0,0.0,0.0,0.0,0.0,0.0,0.0,1.2432,1.289,1.3132,1.3278,1.3107,1.2365,0.0,0.0,0.0,0.0,0.0,0.0,0.0,0.0,0.0,0.0,0.0,0.0,0.0,0.0,0.0,0.0,0.0,0.0,0.0,0.0,0.0,0.0,0.0,0.0,0.0,0.0,0.0,0.0,0.0,0.0,0.0,0.0,0.0,0.0,0.0,0.0,0.0,0.0,0.0,0.0,0.0,0.0,0.0,0.0,0.0,0.0,0.0,0.0,0.0,0.0,0.0,0.0,0.0,0.0,0.0,0.0,0.0,0.0,0.0,0.0,0.0,0.0,0.0,0.0,0.0,0.0,0.0,0.0,0.0,0.0,0.0,0.0,0.0,0.0,0.0,0.0,0.0,0.0,0.0,0.0,0.0,0.0,0.0,0.0,0.0,0.0,0.0,0.0,0.0,0.0,0.0,0.0,0.0,0.0,0.0,0.0,0.0,0.0,0.0,0.0,0.0,0.0,0.0,0.0,0.0,0.0,0.0,0.0,0.0,1.3224,1.3336,1.3836,1.4878,1.3967,1.3304,0.0,0.0,0.0,0.0,0.0,0.0,0.0,0.0,0.0,0.0,0.0,0.0,0.0,0.0,0.0,0.0,0.0,0.0,0.0,0.0,0.0,0.0,0.0,0.0,0.0,0.0,0.0,0.0,0.0,0.0,0.0,0.0,0.0,0.0,0.0,0.0,0.0,0.0,0.0,0.0,0.0,0.0,0.0,0.0,0.0,0.0,0.0,0.0,0.0,0.0,0.0,0.0,0.0,0.0,0.0,0.0,0.0,0.0,0.0,0.0,0.0,0.0,0.0,0.0,0.0,0.0,0.0,0.0,0.0,0.0,0.0,0.0,0.0,0.0,0.0,0.0,0.0,0.0,0.0,0.0,0.0,0.0,0.0,0.0,0.0,0.0,0.0,0.0,0.0,0.0,0.0,0.0,0.0,0.0,0.0,0.0,0.0,0.0,0.0,0.0,0.0,0.0,0.0,0.0,0.0,0.0,0.0,0.0,1.0787,1.3279,1.3736,1.456,1.5861,1.5232,1.4617,0.0,0.0,0.0,0.0,0.0,0.0,0.0,0.0,0.0,0.0,0.0,0.0,0.0,0.0,0.0,0.0,0.0,0.0,0.0,0.0,0.0,0.0,0.0,0.0,0.0,0.0,0.0,0.0,0.0,0.0,0.0,0.0,0.0,0.0,0.0,0.0,0.0,0.0,0.0,0.0,0.0,0.0,0.0,0.0,0.0,0.0,0.0,0.0,0.0,0.0,0.0,0.0,0.0,0.0,0.0,0.0,0.0,0.0,0.0,0.0,0.0,0.0,0.0,0.0,0.0,0.0,0.0,0.0,0.0,0.0,0.0,0.0,0.0,0.0,0.0,0.0,0.0,0.0,0.0,0.0,0.0,0.0,0.0,0.0,0.0,0.0,0.0,0.0,0.0,0.0,0.0,0.0,0.0,0.0,0.0,0.0,0.0,0.0,0.0,0.0,0.0,0.0,0.0,0.0,0.0,0.0,0.0,0.0,1.0755,1.2799,1.4043,1.5248,1.6341,1.6488,1.593,0.0,0.0,0.0,0.0,0.0,0.0,0.0,0.0,0.0,0.0,0.0,0.0,0.0,0.0,0.0,0.0,0.0,0.0,0.0,0.0,0.0,0.0,0.0,0.0,0.0,0.0,0.0,0.0,0.0,0.0,0.0,0.0,0.0,0.0,0.0,0.0,0.0,0.0,0.0,0.0,0.0,0.0,0.0,0.0,0.0,0.0,0.0,0.0,0.0,0.0,0.0,0.0,0.0,0.0,0.0,0.0,0.0,0.0,0.0,0.0,0.0,0.0,0.0,0.0,0.0,0.0,0.0,0.0,0.0,0.0,0.0,0.0,0.0,0.0,0.0,0.0,0.0,0.0,0.0,0.0,0.0,0.0,0.0,0.0,0.0,0.0,0.0,0.0,0.0,0.0,0.0,0.0,0.0,0.0,0.0,0.0,0.0,0.0,0.0,0.0,0.0,0.0,0.0,0.0,0.0,0.0,0.0,0.0,1.1072,1.3059,1.4154,1.5421,1.6959,1.6534,1.5824,0.0,0.0,0.0,0.0,0.0,0.0,0.0,0.0,0.0,0.0,0.0,0.0,0.0,0.0,0.0,0.0,0.0,0.0,0.0,0.0,0.0,0.0,0.0,0.0,0.0,0.0,0.0,0.0,0.0,0.0,0.0,0.0,0.0,0.0,0.0,0.0,0.0,0.0,0.0,0.0,0.0,0.0,0.0,0.0,0.0,0.0,0.0,0.0,1.7798,0.0,0.0,0.0,0.0,0.0,0.0,0.0,0.0,0.0,0.0,0.0,0.0,0.0,0.0,0.0,0.0,0.0,0.0,0.0,0.0,0.0,0.0,0.0,0.0,0.0,0.0,0.0,0.0,0.0,0.0,0.0,0.0,0.0,0.0,0.0,0.0,0.0,0.0,0.0,0.0,0.0,0.0,0.0,0.0,0.0,0.0,0.0,0.0,0.0,0.0,0.0,0.0,0.0,0.0,0.0,0.0,0.0,0.0,0.0,1.1064,1.276,1.4204,1.5697,1.711,1.6795,1.6314,0.0,0.0,0.0,0.0,0.0,0.0,0.0,0.0,0.0,0.0,0.0,0.0,0.0,0.0,0.0,0.0,0.0,0.0,0.0,0.0,0.0,0.0,0.0,0.0,0.0,0.0,0.0,0.0,0.0,0.0,0.0,0.0,0.0,0.0,0.0,0.0,0.0,0.0,0.0,0.0,0.0,0.0,0.0,0.0,0.0,0.0,0.0,0.0,0.0,0.0,0.0,0.0,0.0,0.0,0.0,0.0,0.0,0.0,0.0,0.0,0.0,0.0,0.0,0.0,0.0,0.0,0.0,0.0,0.0,0.0,0.0,0.0,0.0,0.0,0.0,0.0,0.0,0.0,0.0,0.0,0.0,0.0,0.0,0.0,0.0,0.0,0.0,0.0,0.0,0.0,0.0,0.0,0.0,0.0,0.0,0.0,0.0,0.0,0.0,0.0,0.0,0.0,0.0,0.0,0.0,0.0,0.0,0.9509,1.1191,1.2631,1.4413,1.5877,1.7016,1.6939,1.6791,1.6534,0.0,0.0,0.0,0.0,0.0,0.0,0.0,0.0,0.0,0.0,0.0,0.0,0.0,0.0,0.0,0.0,0.0,0.0,0.0,0.0,0.0,0.0,0.0,0.0,0.0,0.0,0.0,0.0,0.0,0.0,0.0,0.0,0.0,0.0,0.0,0.0,0.0,0.0,1.1203,1.2526,0.0,0.0,0.0,0.0,0.0,0.0,0.0,0.0,1.83,0.0,0.0,0.0,0.0,0.0,0.0,0.0,0.0,0.0,0.0,0.0,0.0,0.0,0.0,0.0,0.0,0.0,0.0,0.0,0.0,0.0,0.0,0.0,0.0,0.0,0.0,0.0,0.0,0.0,0.0,0.0,0.0,0.0,0.0,0.0,0.0,0.0,0.0,0.0,0.0,0.0,0.0,0.0,0.0,0.0,0.0,0.0,0.0,0.0,0.0,0.0,0.0,0.0,0.0,0.0,0.0,0.9894,1.0944,1.2326,1.411,1.5067,1.5839,1.6414,1.6377,1.6208,1.5933,0.0,0.0,0.0,0.0,0.0,0.0,0.0,0.0,0.0,0.0,0.0,0.0,0.0,0.0,0.0,0.0,0.0,0.0,0.0,0.0,0.0,0.0,0.0,0.0,0.0,0.0,0.0,0.0,0.0,0.0,0.0,0.0,0.0,0.0,0.0,0.0,0.0,0.0,0.0,1.3791,1.4509,0.0,0.0,0.0,0.0,0.0,0.0,0.0,0.0,1.7701,0.0,0.0,0.0,0.0,0.0,0.0,0.0,0.0,0.0,0.0,0.0,0.0,0.0,0.0,0.0,0.0,0.0,0.0,0.0,0.0,0.0,0.0,0.0,0.0,0.0,0.0,0.0,0.0,0.0,0.0,0.0,0.0,0.0,0.0,0.0,0.0,0.0,0.0,0.0,0.0,0.0,0.0,0.0,0.0,0.0,0.0,0.0,0.0,0.0,0.0,0.0,0.0,0.0,0.0,0.0,0.9424,1.092,1.2471,1.4065,1.5314,1.6159,1.6538,1.6322,1.6141,0.0,0.0,0.0,0.0,0.0,0.0,0.0,0.0,0.0,0.0,0.0,0.0,0.0,0.0,0.0,0.0,0.0,0.0,0.0,0.0,0.0,0.0,0.0,0.0,0.0,0.0,0.0,0.0,0.0,0.0,0.0,0.0,0.0,0.0,0.0,0.0,0.0,0.0,0.0,0.0,1.3729,1.4381,1.6061,0.0,0.0,0.0,0.0,0.0,0.0,1.8045,1.8212,0.0,0.0,0.0,0.0,0.0,0.0,0.0,0.0,0.0,0.0,0.0,0.0,0.0,0.0,0.0,0.0,0.0,0.0,0.0,0.0,0.0,0.0,0.0,0.0,0.0,0.0,0.0,0.0,0.0,0.0,0.0,0.0,0.0,0.0,0.0,0.0,0.0,0.0,0.0,0.0,0.0,0.0,0.0,0.0,0.0,0.0,0.0,0.0,0.0,0.0,0.0,0.0,0.0,0.0,0.0,0.8953,1.0758,1.2409,1.386,1.5398,1.6328,1.6565,1.6419,1.6219,0.0,0.0,0.0,0.0,0.0,0.0,0.0,0.0,0.0,0.0,0.0,0.0,0.0,0.0,0.0,0.0,0.0,0.0,0.0,0.0,0.0,0.0,0.0,0.0,0.0,0.0,0.0,0.0,0.0,0.0,0.0,0.0,0.0,0.0,0.0,0.0,0.0,0.0,0.0,0.0,0.0,1.4535,1.596,1.5912,0.0,0.0,0.0,0.0,1.8289,1.8767,0.0,0.0,0.0,0.0,0.0,0.0,0.0,0.0,0.0,0.0,0.0,0.0,0.0,0.0,0.0,0.0,0.0,0.0,0.0,0.0,0.0,0.0,0.0,0.0,0.0,0.0,0.0,0.0,0.0,0.0,0.0,0.0,0.0,0.0,0.0,0.0,0.0,0.0,0.0,0.0,0.0,0.0,0.0,0.0,0.0,0.0,0.0,0.0,0.0,0.0,0.0,0.0,0.0,0.0,0.0,0.0,1.0627,1.1366,1.2578,1.4351,1.536,1.5885,1.5942,1.6451,1.6219,0.0,0.0,0.0,0.0,0.0,0.0,0.0,0.0,0.0,0.0,0.0,0.0,0.0,0.0,0.0,0.0,0.0,0.0,0.0,0.0,0.0,0.0,0.0,0.0,0.0,0.0,0.0,0.0,0.0,0.0,0.0,0.0,0.0,0.0,0.0,0.0,0.0,0.0,0.0,0.0,0.0,1.5991,1.5785,1.612,1.6405,0.0,0.0,1.7328,1.9492,1.9807,0.0,0.0,0.0,0.0,0.0,0.0,0.0,0.0,0.0,0.0,0.0,0.0,0.0,0.0,0.0,0.0,0.0,0.0,0.0,0.0,0.0,0.0,0.0,0.0,0.0,0.0,0.0,0.0,0.0,0.0,0.0,0.0,0.0,0.0,0.0,0.0,0.0,0.0,0.0,0.0,0.0,0.0,0.0,0.0,0.0,0.0,0.0,0.0,0.0,0.0,0.0,0.0,0.0,0.0,0.0,0.8878,1.0626,1.1603,1.2874,1.4476,1.5344,1.5899,1.608,1.5581,1.5302,0.0,0.0,0.0,0.0,0.0,0.0,0.0,0.0,0.0,0.0,0.0,0.0,0.0,0.0,0.0,0.0,0.0,0.0,0.0,0.0,0.0,0.0,0.0,0.0,0.0,0.0,0.0,0.0,0.0,0.0,0.0,0.0,0.0,0.0,0.0,0.0,0.0,0.0,0.0,0.0,0.0,0.0,1.6514,1.6505,0.0,0.0,0.0,1.7971,1.9767,0.0,0.0,0.0,0.0,0.0,0.0,0.0,0.0,0.0,0.0,0.0,0.0,0.0,0.0,0.0,0.0,0.0,0.0,0.0,0.0,0.0,0.0,0.0,0.0,0.0,0.0,0.0,0.0,0.0,0.0,0.0,0.0,0.0,0.0,0.0,0.0,0.0,0.0,0.0,0.0,0.0,0.0,0.0,0.0,0.0,0.0,0.0,0.0,0.0,0.0,0.0,0.0,0.0,0.0,0.0,0.0,0.0,1.0677,1.1807,1.3077,1.4444,1.5344,1.5927,1.6148,1.5245,0.0,0.0,0.0,0.0,0.0,0.0,0.0,0.0,0.0,0.0,0.0,0.0,0.0,0.0,0.0,0.0,0.0,0.0,0.0,0.0,0.0,0.0,0.0,0.0,0.0,0.0,0.0,0.0,0.0,0.0,0.0,0.0,0.0,0.0,0.0,0.0,0.0,0.0,0.0,0.0,0.0,0.0,1.5036,1.6853,1.7034,1.7302,0.0,0.0,1.8943,2.022,2.1281,2.1672,0.0,0.0,0.0,0.0,0.0,0.0,0.0,0.0,0.0,0.0,0.0,0.0,0.0,0.0,0.0,0.0,0.0,0.0,0.0,0.0,0.0,0.0,0.0,0.0,0.0,0.0,0.0,0.0,0.0,0.0,0.0,0.0,0.0,0.0,0.0,0.0,0.0,0.0,0.0,0.0,0.0,0.0,0.0,0.0,0.0,0.0,0.0,0.0,0.0,0.0,0.0,0.0,0.0,0.0,0.0,1.1445,1.2098,1.309,1.4474,1.5359,1.5813,1.5842,1.6044,1.5539,0.0,0.0,0.0,0.0,0.0,0.0,0.0,0.0,0.0,0.0,0.0,0.0,0.0,0.0,0.0,0.0,0.0,0.0,0.0,0.0,0.0,0.0,0.0,0.0,0.0,0.0,0.0,0.0,0.0,0.0,0.0,0.0,0.0,0.0,0.0,0.0,0.0,0.0,0.0,0.0,0.0,1.522,1.6244,1.7751,1.8858,0.0,0.0,2.027,2.1403,2.216,2.2171,2.0926,0.0,0.0,0.0,0.0,0.0,0.0,0.0,0.0,0.0,0.0,0.0,0.0,0.0,0.0,0.0,0.0,0.0,0.0,0.0,0.0,0.0,0.0,0.0,0.0,0.0,0.0,0.0,0.0,0.0,0.0,0.0,0.0,0.0,0.0,0.0,0.0,0.0,0.0,0.0,0.0,0.0,0.0,0.0,0.0,0.0,0.0,0.0,0.0,0.0,0.0,0.0,0.0,0.0,0.9901,1.1578,1.2716,1.3664,1.4487,1.5344,1.5814,1.5814,1.5534,1.4999,0.0,0.0,0.0,0.0,0.0,0.0,0.0,0.0,0.0,0.0,0.0,0.0,0.0,0.0,0.0,0.0,0.0,0.0,0.0,0.0,0.0,0.0,0.0,0.0,0.0,0.0,0.0,0.0,0.9993,1.0029,0.9564,0.0,0.0,0.0,0.0,0.0,0.0,0.0,0.0,0.0,0.0,1.5847,1.7105,1.8156,0.0,0.0,1.9996,2.0681,2.156,2.2245,2.2401,2.1461,2.0488,0.0,0.0,0.0,0.0,0.0,0.0,0.0,0.0,0.0,0.0,0.0,0.0,0.0,0.0,0.0,0.0,0.0,0.0,0.0,0.0,0.0,0.0,0.0,0.0,0.0,0.0,0.0,0.0,0.0,0.0,0.0,0.0,0.0,0.0,0.0,0.0,0.0,0.0,0.0,0.0,0.0,0.0,0.0,0.0,0.0,0.0,0.0,0.0,0.0,0.0,0.0,0.0,1.0244,1.1757,1.3297,1.437,1.4971,1.5682,1.6069,1.6054,1.5426,1.4875,0.0,0.0,0.0,0.0,0.0,0.0,0.0,0.0,0.0,0.0,0.0,0.0,0.0,0.0,0.0,0.0,0.0,0.0,0.0,0.0,0.0,0.0,0.0,0.0,0.0,0.0,0.0,0.0,1.0582,1.0185,0.9288,0.0,0.0,0.0,0.0,0.0,0.0,0.0,0.0,0.0,0.0,1.6236,1.7922,1.8646,1.9281,2.0003,2.058,2.1175,2.1885,2.2542,2.2685,2.1845,0.0,0.0,0.0,0.0,0.0,0.0,0.0,0.0,0.0,0.0,0.0,0.0,0.0,0.0,0.0,0.0,0.0,0.0,0.0,0.0,0.0,0.0,0.0,0.0,0.0,0.0,0.0,0.0,0.0,0.0,1.527,0.0,0.0,0.0,0.0,0.0,0.0,0.0,0.0,0.0,0.0,0.0,0.0,0.0,0.0,0.0,0.0,0.0,0.0,0.0,0.0,0.0,0.0,1.0394,1.2182,1.3821,1.5124,1.6025,1.6481,1.6681,1.6666,1.6114,1.5469,1.4766,0.0,0.0,0.0,0.0,0.0,0.0,0.0,0.0,0.0,0.0,0.0,0.0,0.0,0.0,0.0,0.0,0.0,0.0,0.0,0.0,0.0,0.0,0.0,0.0,0.0,0.0,1.1509,1.0758,0.9712,0.0,0.0,0.0,0.0,0.0,0.0,0.0,0.0,0.0,0.0,1.457,1.6295,1.8339,1.9294,1.9978,2.0646,2.1269,2.1899,2.2543,2.315,2.3147,0.0,0.0,0.0,0.0,0.0,0.0,0.0,0.0,0.0,0.0,0.0,0.0,0.0,0.0,0.0,0.0,0.0,0.0,0.0,0.0,0.0,0.0,0.0,0.0,0.0,0.0,0.0,1.6582,1.6121,0.0,0.0,0.0,0.0,0.0,0.0,0.0,0.0,0.0,0.0,0.0,1.2831,1.2726,0.0,0.0,0.0,0.0,0.0,0.0,0.0,0.0,0.0,0.0,0.0,0.0,1.1143,1.2842,1.4441,1.5733,1.6739,1.7177,1.737,1.7354,1.6726,1.5743,1.4396,0.0,0.0,0.0,0.0,0.0,0.0,0.0,0.0,0.0,0.0,0.0,0.0,0.0,0.0,0.0,0.0,0.0,0.0,0.0,0.0,0.0,0.0,0.0,0.0,0.0,1.1287,0.0,0.0,0.0,0.0,0.0,0.0,0.0,0.0,0.0,0.0,0.0,1.0092,1.2478,1.4935,1.6871,1.7843,1.9006,2.0055,0.0,0.0,0.0,0.0,0.0,0.0,0.0,0.0,0.0,0.0,0.0,0.0,0.0,0.0,1.7152,1.5442,1.4604,1.421,1.4372,0.0,0.0,0.0,0.0,0.0,0.0,0.0,0.0,0.0,0.0,0.0,0.0,0.0,0.0,1.784,0.0,1.7349,0.0,0.0,0.0,0.0,0.0,0.0,0.0,0.0,1.5036,1.4774,1.4043,1.3985,1.3876,0.0,1.3517,1.2849,0.0,0.0,0.0,0.0,0.0,0.0,0.0,0.0,1.2042,1.3894,1.5338,1.6587,1.76,1.7926,1.8057,1.8026,1.7033,1.5873,1.4486,1.3053,1.1912,0.0,0.0,0.0,0.0,0.0,0.0,0.0,0.0,0.0,0.0,0.0,0.0,0.0,0.0,0.0,0.0,0.0,0.0,0.0,0.0,0.0,0.0,0.0,1.1567,0.0,0.0,0.0,0.0,0.0,0.0,0.0,0.0,0.0,0.8874,1.0011,1.161,1.3781,1.5865,1.7489,1.8267,0.0,0.0,0.0,0.0,0.0,0.0,0.0,2.1947,2.169,2.0992,2.0348,2.0138,1.9782,1.9372,1.8978,0.0,0.0,1.6457,1.5692,1.5323,1.5615,1.626,1.6748,1.6758,1.7334,1.7847,0.0,0.0,0.0,0.0,0.0,0.0,0.0,0.0,1.8707,1.8812,0.0,1.8722,0.0,0.0,0.0,0.0,0.0,1.6402,0.0,0.0,1.6679,1.6672,1.568,1.5171,1.5162,1.5691,1.6199,1.6148,1.5463,1.2701,0.0,0.0,0.0,0.0,0.0,0.0,1.3091,1.5298,1.6528,1.7658,1.8668,1.873,1.8717,1.8655,1.7056,1.5854,1.513,1.3823,1.2432,1.1056,1.0197,0.0,0.0,0.0,0.0,0.0,0.0,0.0,0.0,0.0,0.0,0.0,0.0,0.0,0.0,0.0,0.0,0.0,0.0,0.0,0.0,1.1844,0.0,0.0,0.0,0.0,0.0,0.0,0.0,0.0,0.0,0.0,1.1057,1.1964,1.365,1.6532,0.0,0.0,0.0,0.0,2.0283,2.152,2.1697,2.1922,2.2589,2.2663,2.24,2.1727,0.0,0.0,2.0901,2.0229,1.9652,1.9096,1.8916,1.8703,1.8724,1.7992,1.7646,1.8334,1.8227,1.8369,1.9111,1.9502,1.9971,2.1365,0.0,0.0,0.0,0.0,1.964,2.0223,2.0798,2.0723,2.0322,1.9653,1.9323,0.0,0.0,0.0,0.0,0.0,0.0,1.7435,1.7204,1.7747,1.7753,1.7382,1.7236,1.7237,1.737,1.7172,1.6991,1.6768,1.5565,1.3794,1.1589,0.0,0.0,0.0,0.0,1.4497,1.6621,1.7449,1.8335,1.939,1.9405,1.9181,1.8715,1.7853,1.6935,1.5988,1.5192,1.4094,1.2616,1.2302,0.0,0.0,0.0,0.0,0.0,0.0,0.0,0.0,0.0,0.0,0.0,0.0,0.0,0.0,0.0,0.0,0.0,0.0,0.0,1.1359,1.2014,1.2246,0.0,0.0,0.0,0.0,0.0,0.0,0.0,0.0,0.0,1.3673,1.4027,1.4796,0.0,0.0,1.8555,1.8965,1.9876,2.0794,2.1578,0.0,0.0,0.0,2.2255,2.1835,2.164,2.1882,2.2144,2.2376,2.1783,2.121,2.1058,2.0792,2.0679,2.0889,1.9761,1.8935,1.9053,1.9238,1.9531,2.0078,2.0557,2.0947,2.3881,2.2797,2.1342,2.0698,2.0721,2.0978,2.1429,2.1983,2.1887,2.1489,2.0884,2.0453,1.9627,1.8428,1.7424,0.0,0.0,0.0,1.865,1.8786,1.8874,1.8773,1.8477,1.8236,1.8224,1.8405,1.8078,1.8025,1.8243,1.7711,1.6507,1.4686,0.0,0.0,1.3961,1.4676,1.5982,1.7773,1.817,1.8759,1.9693,1.9723,1.9495,1.9091,1.837,1.7663,1.7029,1.6277,1.5357,1.4243,1.3758,1.2816,0.0,0.0,0.0,0.0,0.0,0.0,0.0,0.0,0.0,0.0,0.0,0.5892,0.0,0.0,0.0,0.0,0.959,1.1427,1.2785,1.2928,0.0,0.0,0.0,0.0,0.0,0.0,0.0,1.2281,1.3378,1.4446,1.5399,1.6056,1.6656,1.7285,1.814,1.8794,1.9085,0.0,2.0633,2.1245,2.1342,2.1544,2.2152,2.1895,2.1655,2.1845,2.2277,2.2711,2.299,2.2445,2.1992,2.2123,2.191,2.1801,2.2283,2.1252,2.0397,2.037,2.0393,2.0576,2.1036,2.1435,2.1834,2.625,2.6368,2.3177,2.1882,2.1972,2.1685,2.1841,2.2296,2.2296,2.2302,2.2293,2.1832,2.1062,2.0035,1.8598,0.0,1.9132,1.9631,1.9997,2.0231,2.0153,1.9784,1.9216,1.8597,1.8519,1.8983,1.8983,1.9207,1.9639,1.9192,1.8716,1.8211,1.6994,1.6416,1.6469,1.6689,1.7456,1.8747,1.8775,1.9076,1.9693,1.9723,1.9723,1.9708,1.869,1.8169,1.814,1.7185,1.6349,1.5758,1.4715,1.3844,1.317,0.0,0.0,0.0,0.0,0.0,0.0,0.0,0.0,0.0,0.0,0.0,0.0,0.0,0.0,0.0,1.0745,0.0,1.4781,1.4329,0.0,0.0,0.0,1.2589,1.1797,1.2532,1.3177,1.3505,0.0,0.0,1.6585,1.7852,1.8715,1.8768,1.8794,1.9044,1.9734,1.99,2.0169,2.0851,2.0927,2.1113,2.1691,2.1721,2.186,2.229,2.2769,2.307,2.3065,2.2549,2.2248,2.2639,2.2447,2.24,2.2968,2.2535,2.2103,2.206,2.1593,2.1298,2.1738,2.2264,2.2794,2.6453,2.6964,2.5279,2.4254,2.3694,2.259,2.2197,2.2296,2.2313,2.2396,2.2499,2.2086,2.169,2.125,2.0494,2.046,2.104,2.1272,2.1363,2.1353,2.1815,2.1445,2.0333,2.0151,1.9889,1.9527,1.9497,1.9584,1.9675,1.9584,1.9441,1.9295,1.8998,1.8458,1.7713,1.7751,1.832,1.9453,1.9468,1.9543,1.9708,1.9723,1.9723,1.969,1.906,1.8714,1.87,1.8087,1.7284,1.634,1.5649,1.4668,1.324,1.1316,0.0,0.0,0.0,0.0,0.0,0.0,0.0,0.0,0.0,0.7471,0.6777,0.0,0.9529,0.0,1.2625,1.4611,1.5439,1.5217,0.0,0.0,1.4453,1.4023,1.4421,1.4379,1.4708,1.5642,1.6025,1.6705,1.8004,1.8501,1.89,1.9449,1.954,1.9605,1.9811,2.0604,2.1224,2.1366,2.1681,2.2049,2.2166,2.2148,2.2306,2.2824,2.302,2.3095,2.3095,2.2944,2.286,2.3016,2.3656,2.4141,2.4295,2.3699,2.3176,2.3069,2.2128,2.1367,2.1838,2.2896,2.3929,2.6966,2.7463,2.6294,2.5581,2.5129,2.4176,2.3691,2.3545,2.3528,2.3384,2.3063,2.2424,2.1976,2.168,2.1385,2.1588,2.2123,2.2203,2.2357,2.2547,2.2658,2.2313,2.1575,2.1291,2.0881,2.0421,2.0234,2.0083,1.9962,1.9782,1.9723,1.9723,1.9723,1.9406,1.8838,1.8806,1.9105,1.9708,1.9723,1.9723,1.9723,1.9723,1.9723,1.969,1.9406,1.9258,1.9244,1.8526,1.7725,1.6905,1.5872,1.4886,1.3979,1.2372,1.0693,0.0,0.0,0.0,0.0,0.0,0.0,0.0,0.0,0.0,0.0,0.0,1.12,0.0,1.4515,1.5888,1.6286,1.6138,1.5995,1.5877,1.5188,1.4922,1.5332,1.5205,1.5432,1.6404,1.6793,1.7413,1.8555,1.898,1.9443,2.0111,1.9962,1.9798,1.9874,2.0616,2.1107,2.0862,2.1467,2.2084,2.2302,2.2528,2.2744,2.302,2.3095,2.3095,2.3095,2.3095,2.3183,2.3484,2.4199,2.4863,2.5081,2.463,2.4181,2.4055,2.3504,2.287,2.2696,2.3999,2.5296,2.7515,2.7784,2.6772,2.636,2.6382,2.6029,2.5561,2.502,2.502,2.4533,2.3717,2.2838,2.2265,2.1954,2.2014,2.2355,2.2911,2.2994,2.3302,2.3749,2.3188,2.2887,2.2761,2.2124,2.1674,2.1347,2.0986,2.0672,2.0333,1.9977,1.9798,1.9723,1.9723,1.9723,1.9723,1.9723,1.9723,1.9723,1.9723,1.9723,1.9723,1.9723,1.9723,1.9723,1.9723,1.9657,1.9588,1.8683,1.7912,1.7296,1.5815,1.4967,1.4904,1.3551,1.2215,0.0,1.0532,0.0,0.0,0.0,0.0,0.0,0.0,0.0,0.0,1.1632,1.3303,1.5202,1.632,1.699,1.7192,1.7028,1.6595,1.5896,1.5547,1.5439,1.5526,1.5526,1.5864,1.668,1.733,1.8004,1.8794,1.9423,2.0038,2.0515,2.0289,2.0024,2.0062,2.0454,2.0594,2.0049,2.0966,2.2056,2.2405,2.2799,2.3083,2.3095,2.3095,2.3095,2.3095,2.3095,2.3283,2.3866,2.4431,2.4983,2.5511,2.5227,2.4992,2.4909,2.4975,2.477,2.4115,2.5271,2.6644,2.7547,2.7837,2.733,2.7293,2.7568,2.7511,2.6362,2.4613,2.4613,2.4396,2.4001,2.3544,2.332,2.3278,2.3687,2.3958,2.4081,2.4524,2.4784,2.4875,2.4311,2.3784,2.324,2.2743,2.2204,2.1652,2.1554,2.1195,2.061,2.055,2.0243,1.9723,1.9723,1.9723,1.9723,0.0,0.0,0.0,1.9723,1.9723,1.9723,1.9723,1.9723,1.9723,1.9723,0.0,1.9062,1.8852,1.8308,1.7337,1.6579,0.0,0.0,0.0,0.0,0.0,0.0,0.0,0.0,0.0,0.0,0.0,1.3263,1.3175,1.232,1.4357,1.5895,1.6339,1.7674,1.8326,1.7801,1.7569,1.717,1.6413,1.5795,1.5642,1.6197,1.6293,1.6782,1.8112,1.8421,1.8768,1.9474,1.9721,2.0037,2.0616,2.0603,2.0717,2.1104,2.0918,2.0855,2.1154,2.2058,2.2757,2.2932,2.302,2.3095,2.3095,2.3095,2.3095,2.3095,2.3095,2.3296,2.3891,2.4456,2.4996,2.5498,2.5274,2.5075,2.5004,2.5703,2.5984,2.4965,2.6365,2.7804,2.7131,0.0,2.71,2.7115,0.0,2.7319,2.651,2.5263,2.5426,2.5023,2.421,2.3791,2.3595,2.3616,2.3879,2.4006,2.4027,2.4287,2.4394,2.4389,2.4137,2.3829,2.3488,2.3242,2.2932,2.2499,2.2295,2.1968,2.1478,2.0952,2.0524,2.0183,1.9872,1.9723,1.9723,2.0019,2.0019,1.9723,1.9723,1.9723,1.9723,1.9723,1.9723,1.9723,0.0,0.0,0.0,0.0,0.0,0.0,0.0,0.0,0.0,0.0,0.0,1.6029,1.4567,1.3577,1.3406,1.3379,1.3676,1.4317,1.5567,1.5935,1.5028,1.6445,1.746,1.7762,1.8784,1.8952,1.7876,1.8001,1.7704,1.6652,1.6482,1.6669,1.6978,1.7062,1.7595,1.8842,1.9146,1.9416,2.0134,2.0489,2.0727,2.1043,2.1106,2.1307,2.1744,2.1669,2.1681,2.2196,2.2418,2.2794,2.3045,2.3095,2.3095,2.3095,2.3095,2.3095,2.3095,2.3095,2.3283,2.3891,2.4456,2.4951,2.5477,2.5676,2.5734,2.5832,2.6613,2.7151,2.6673,2.7821,2.8937,2.6708,2.6708,2.6708,2.6708,2.6708,2.6607,2.6245,2.5744,0.0,0.0,0.0,2.3837,2.3595,2.3616,2.3702,2.373,2.3767,2.3837,2.3943,2.4012,2.3837,2.3794,2.3879,2.3702,2.3501,2.332,2.3004,2.2677,2.2348,2.148,2.0991,2.0808,2.0213,1.9869,1.9914,2.0423,2.0483,2.0064,2.0052,2.0052,2.0067,2.0067,2.0052,2.0067,1.9945,1.9618,1.9094,1.8115,1.736,1.6849,1.637,1.6371,1.6873,1.73,1.7538,1.7483,1.6878,1.6224,1.5571,1.5583,1.5688,1.5782,1.7286,1.8008,1.7565,1.8074,1.8606,1.9083,1.9432,1.9097,1.7895,1.8205,1.8031,1.681,1.7323,1.7773,1.7793,1.8006,1.8589,1.9559,1.9912,2.015,2.0761,2.1194,2.1559,2.1619,2.1659,2.1832,2.2268,2.2322,2.2347,2.2694,2.2644,2.2644,2.297,2.3095,2.3095,2.3095,2.3095,2.3095,2.3095,2.3095,2.3371,2.4092,2.4544,2.5046,2.5624,2.6117,2.6474,2.6499,2.7366,2.8109,2.821,2.9001,2.9715,2.6708,2.6708,2.6708,2.6708,2.6674,2.6245,2.5524,2.4652,2.4681,2.4581,2.4369,2.3837,2.3595,2.3616,2.4095,2.4287,2.4328,2.4772,2.5221,2.5615,2.4732,2.4532,2.493,2.4032,2.3593,2.3546,2.3482,2.3188,2.268,2.2484,2.2134,2.153,2.0887,2.0572,2.0569,2.0643,2.0946,2.1415,2.141,2.143,2.141,2.143,2.143,2.1391,2.0845,2.0306,1.9767,1.9094,1.8509,1.7979,1.7886,1.8016,1.8367,1.8191,1.7908,1.7556,1.7598,1.7389,1.6815,1.7051,1.7544,1.8145,1.8493,1.8572,1.8539,1.916,1.9583,1.9672,1.9242,1.8794,1.8528,1.8135,1.7831,1.7551,1.8008,1.8424,1.8603,1.94,2.0085,2.0506,2.0982,2.1228,2.1352,2.1481,2.1744,2.2071,2.2159,2.2355,2.2719,2.2569,2.233,2.2431,2.2757,2.2982,2.3083,2.3095,2.3095,2.3095,2.3095,2.3095,2.3095,2.3095,2.3471,2.4474,2.4745,2.5197,2.6109,2.6424,2.6487,2.6549,2.7379,2.8072,2.8134,2.9001,2.9754,2.6708,2.6708,2.6708,2.6556,2.6245,2.5468,2.4871,2.4389,2.4095,2.397,2.3927,2.3702,2.3595,2.3616,2.3858,2.4116,2.4425,2.4652,2.4894,2.5105,2.4617,2.4369,2.4287,2.3837,2.3595,2.3595,2.3595,2.346,2.3176,2.2868,2.2538,2.2224,2.1575,2.1246,2.1276,2.1605,2.1934,2.2239,2.1874,2.1695,2.1695,2.1695,2.1695,2.171,2.1056,2.0436,1.9923,1.9324,1.875,1.824,1.8493,1.8719,1.8845,1.9007,1.8958,1.8765,1.8466,1.8201,1.7949,1.8105,1.8528,1.9214,1.9601,1.9787,1.9799,2.0104,2.015,1.9861,1.9735,1.9466,1.8815,1.9069,1.9127,1.8716,1.9546,2.0125,2.0257,2.0634,2.1144,2.15,2.1769,2.1933,2.1933,2.2196,2.2268,2.2385,2.2506,2.2862,2.3058,2.2895,2.2719,2.2757,2.2945,2.307,2.3095,2.3095,2.3095,2.3095,2.3095,2.3095,2.3095,2.3108,2.3584,2.4525,2.48,2.5272,2.6285,2.6487,2.6487,2.66,2.7379,2.7996,2.8235,2.9001,2.9704,2.6708,2.6708,2.6708,2.635,2.5762,2.4934,2.445,2.4199,2.3773,2.3681,2.3752,2.3659,2.3595,2.3616,2.3709,2.4027,2.4369,2.4532,2.4652,2.4752,2.4617,2.4394,2.4137,2.3921,2.3794,2.3767,2.3659,2.3595,2.3535,2.3137,2.2838,2.2658,2.2158,2.1904,2.1934,2.2433,2.2763,2.2853,2.2383,2.2128,2.2128,2.2128,2.2149,2.2073,2.1352,2.0732,2.0302,1.9575,1.8984,1.8629,1.897,1.9171,1.9183,1.9585,1.9798,1.9747,1.9254,1.8927,1.8965,1.9086,1.9385,1.996,2.0541,2.088,2.0893,2.1006,2.083,2.0338,2.0441,2.0219,1.967,2.004,2.0446,2.01,2.0995,2.1597,2.1716,2.1949,2.2204,2.2531,2.2671,2.2718,2.2602,2.2832,2.2907,2.2644,2.2844,2.3083,2.3095,2.3095,2.3095,2.3095,2.3095,2.3095,2.3095,2.3095,2.3095,2.3095,2.3095,2.3095,2.312,2.3183,2.3659,2.4575,2.4958,2.541,2.6248,2.6487,2.6549,2.6738,2.7482,2.8172,2.8574,2.9189,2.9754,2.6708,2.6708,2.6708,2.6157,2.5297,2.5163,2.4556,2.3752,2.3616,2.39,2.4241,2.3815,2.3616,2.3659,2.4116,2.4343,2.445,2.4894,2.5354,2.5723,2.5335,2.5354,2.5542,2.4772,2.4307,2.4261,2.3837,2.3638,2.3595,2.352,2.3221,2.2763,2.2628,2.2613,2.2613,2.2688,2.2972,2.349,2.346,2.343,2.343,2.343,2.3415,2.3415,2.2224,2.1578,2.1415,2.0364,1.9686,1.966,1.9673,1.9697,1.9736,1.9773,1.9798,1.9798,1.9721,1.9695,1.972,2.0209,2.0498,2.0654,2.1119,2.1446,2.1443,2.187,2.1933,2.1397,2.0807,2.0726,2.1107,2.0811,2.0803,2.1235,2.1866,2.229,2.2554,2.3431,2.3863,2.3338,2.3571,2.3823,2.3132,2.3045,2.307,2.297,2.3007,2.3095,2.3095,2.3095,2.3095,2.3095,2.3095,2.3095,2.3095,2.3095,2.3095,2.3095,2.3095,2.3133,2.3221,2.3572,2.4155,2.475,2.5209,2.5699,2.6223,2.6499,2.6675,2.709,2.7695,2.8411,2.9302,2.9691,2.9779,2.6708,2.6708,2.6708,2.6123,2.5259,2.5202,2.4612,2.3681,2.4266,2.4511,2.4353,2.4163,2.4059,2.4095,2.4307,2.4425,2.4466,2.4969,2.5316,2.554,2.5615,2.5633,2.5468,2.5105,2.4716,2.441,2.4163,2.3885,2.3638,2.3595,2.3475,2.3251,2.3221,2.3242,2.3221,2.3221,2.3377,2.358,2.3595,2.3595,2.3595,2.3595,2.3443,2.3009,2.2193,2.152,2.1124,2.027,1.9798,1.9798,1.9798,1.9798,1.9798,1.9798,1.9798,1.9798,1.9798,1.9798,1.9811,2.0377,2.0691,2.0691,2.1481,2.197,2.1995,2.2485,2.2656,2.2414,2.1898,2.1559,2.1525,2.1501,2.1671,2.2074,2.2853,2.3344,2.2949,2.3717,2.4029,2.3399,2.3449,2.3501,2.3185,2.3095,2.3095,2.3095,2.3095,2.3095,2.3095,2.3095,2.3095,2.3095,2.3095,2.3095,2.3095,2.3095,2.3095,2.3095,2.3095,2.3145,2.3572,2.3778,2.4255,2.5109,2.5448,2.5871,2.6386,2.6512,2.6663,2.7278,2.8072,2.885,2.9641,2.9779,2.9779,2.6708,2.6708,2.6708,2.621,2.5446,2.5427,2.4894,2.4158,2.4732,2.4816,2.4617,2.4612,2.4632,2.4632,2.4617,2.4692,2.491,2.5392,2.5617,2.5654,2.6015,2.598,2.5617,2.5297,2.4992,2.4632,2.4287,2.3985,2.3616,2.3595,2.3595,2.3595,2.3595,2.3595,2.3595,2.3595,2.3595,2.3595,2.3595,2.3595,2.3595,2.3595,2.3399,2.292,2.2132,2.1496,2.1053,2.0245,1.9798,1.9798,1.9798,1.9798,1.9798,1.9798,1.9861,2.0024,2.0037,2.0112,2.025,2.0817,2.1144,2.1219,2.202,2.2548,2.2581,2.2869,2.3083,2.3045,2.2938,2.2595,2.2083,2.2499,2.283,2.2939,2.3924,2.4337,2.3904,2.4279,2.435,2.3603,2.3547,2.3305,2.3155,2.3095,2.3095,2.3095,2.3095,2.3095,2.3095,2.3095,2.3095,2.3095,2.3095,2.3095,2.3095,2.3095,2.3095,2.317,2.3208,2.3552,2.4004,2.4142,2.4494,2.5398,2.5636,2.5946,2.6361,2.6512,2.6801,2.7517,2.836,2.9214,2.9704,2.9779,2.9779,2.6708,2.6708,2.6708,2.6385,2.5961,2.5943,2.5633,2.495,2.4712,2.4752,2.5105,2.5147,2.5182,2.5186,2.5166,2.543,2.5872,2.6298,2.6488,2.6505,2.6573,2.6641,2.6573,2.5672,2.5182,2.5028,2.4199,2.3702,2.3595,2.3595,2.3595,2.3595,2.3595,2.3595,2.3595,2.3595,2.3595,2.3595,2.3595,2.3595,2.3573,2.3573,2.3551,2.3421,2.2354,2.1649,2.1472,2.0446,1.9798,1.9798,1.9798,1.9798,1.9798,1.9823,2.0101,2.0553,2.0641,2.0867,2.133,2.1832,2.2159,2.2259,2.2694,2.307,2.3083,2.3208,2.3271,2.3158,2.3828,2.3872,2.3268,2.3674,2.4116,2.4187,2.4854,2.5273,2.5231,2.5203,2.5021,2.4423,2.4176,2.3884,2.3245,2.3095,2.3095,2.3095,2.3095,2.3095,2.3095,2.3095,2.3095,2.3095,2.3108,2.3108,2.312,2.3233,2.3208,2.3308,2.3647,2.4004,2.4343,2.472,2.5222,2.5674,2.6059,2.6311,2.6436,2.6725,2.714,2.7833,2.8863,2.9616,2.9767,2.9779,2.9779,2.6708,2.6708,2.6708,2.6436,2.6033,2.6314,2.5766,2.4812,2.5547,2.5601,2.5316,2.5559,2.5888,2.6141,2.5835,2.5633,2.5542,2.6033,2.6262,2.6244,2.6262,2.6401,2.6573,2.5656,2.5202,2.5086,2.4471,2.3927,2.3616,2.3595,2.3595,2.3595,2.3595,2.3595,2.3595,2.3595,2.3595,2.3595,2.3595,2.3595,2.3551,2.3209,2.3201,2.3508,2.2377,2.1506,2.1151,2.027,1.9798,1.9798,1.9798,1.9798,1.9836,2.0176,2.0465,2.0704,2.1018,2.1307,2.1518,2.1995,2.2322,2.2385,2.3188,2.3708,2.3722,2.3973,2.4186,2.4349,2.4961,2.5088,2.4668,2.4765,2.5021,2.5091,2.566,2.5947,2.5618,2.5797,2.5824,2.5133,2.4624,2.4147,2.3949,2.3424,2.3125,2.3095,2.3108,2.315,2.3108,2.3108,2.3095,2.3095,2.3108,2.3246,2.3647,2.369,2.3728,2.3853,2.413,2.4632,2.5034,2.5209,2.5624,2.6021,2.6411,2.6461,2.6524,2.7178,2.7532,2.7959,2.9013,2.9679,2.9779,2.9779,2.9779,2.6708,2.6708,2.6708,2.6436,2.605,2.6332,2.5873,2.5031,2.5837,2.5926,2.5596,2.5852,2.6191,2.6419,2.6297,2.605,2.5728,2.6068,2.6156,2.6015,2.6156,2.6314,2.6314,2.5598,2.5202,2.5086,2.4471,2.3943,2.3638,2.3595,2.3595,2.3595,2.3595,2.3595,2.3595,2.3595,2.3595,2.3595,2.3595,2.3595,2.3551,2.3201,2.3179,2.3384,2.256,2.1724,2.1126,2.0645,2.0308,2.0169,2.0131,2.0105,2.0152,2.0641,2.1043,2.1245,2.1571,2.1832,2.2033,2.2343,2.2631,2.2891,2.3806,2.4438,2.4655,2.5252,2.5558,2.5759,2.6319,2.663,2.6407,2.6539,2.6578,2.6313,2.6732,2.6953,2.6482,2.658,2.6358,2.5732,2.525,2.505,2.513,2.479,2.4472,2.4128,2.3909,2.3739,2.3462,2.3195,2.3095,2.3095,2.3095,2.3371,2.3828,2.4067,2.423,2.4393,2.4707,2.5209,2.5511,2.5699,2.5925,2.6336,2.6487,2.6487,2.6839,2.7482,2.7883,2.8134,2.8925,2.9741,2.9779,2.9779,2.9779,2.6674,2.6657,2.6674,2.6333,2.5961,2.6015,2.6013,2.5781,2.5524,2.567,2.5906,2.6031,2.6103,2.6156,2.647,2.6641,2.6573,2.6607,2.6419,2.6138,2.6419,2.6401,2.6103,2.543,2.5067,2.5008,2.4095,2.3638,2.3595,2.3595,2.3595,2.3595,2.3595,2.3595,2.3595,2.3595,2.3595,2.3595,2.3595,2.3595,2.3573,2.3486,2.3486,2.353,2.292,2.2276,2.1734,2.1625,2.1293,2.082,2.0761,2.0783,2.0773,2.1219,2.1719,2.2096,2.2284,2.2585,2.3017,2.3177,2.3515,2.4083,2.4819,2.561,2.6113,2.6793,2.7209,2.7327,2.7877,2.8326,2.8368,2.8843,2.8801,2.7823,2.8113,2.8361,2.8192,2.768,2.6987,2.6485,2.6267,2.6492,2.7006,2.6752,2.6293,2.5739,2.5245,2.4654,2.4078,2.3634,2.3246,2.3221,2.3409,2.376,2.413,2.4443,2.4682,2.4933,2.5322,2.5724,2.5837,2.5988,2.6185,2.6487,2.6487,2.6499,2.665,2.7281,2.7883,2.8298,2.9126,2.9729,2.9779,2.9779,2.9779,2.6227,2.6174,2.5801,2.558,2.5505,2.5834,2.5815,2.5524,2.5946,2.6157,2.6085,2.6332,2.647,2.6505,2.6641,2.6708,2.6708,2.6691,2.6607,2.6453,2.6297,2.6314,2.6192,2.5224,2.4435,2.4116,2.3773,2.3595,2.3595,2.3595,2.3595,2.3595,2.3595,2.3595,2.3595,2.3595,2.3595,2.3595,2.3595,2.3595,2.3551,2.3201,2.3179,2.3428,2.2597,2.2077,2.2346,2.1946,2.14,2.0896,2.1153,2.1303,2.1369,2.1757,2.2092,2.2293,2.2656,2.3179,2.3855,2.4354,2.4853,2.566,2.6612,2.728,2.7568,2.8112,2.8477,2.858,2.9187,2.9564,2.9247,2.9731,2.9801,2.9055,2.9158,2.9244,2.9197,2.8947,2.8763,2.8495,2.804,2.7882,2.7766,2.7414,2.6732,2.6317,2.5597,2.4975,2.4633,2.445,2.4274,2.4261,2.4311,2.4286,2.4732,2.5046,2.5234,2.5473,2.5824,2.6013,2.616,2.6235,2.6411,2.6487,2.6487,2.6549,2.6713,2.7203,2.7846,2.8411,2.9076,2.9465,2.9704,2.9779,2.9779,2.5707,2.567,2.5335,2.5202,2.524,2.5577,2.5633,2.558,2.6157,2.6367,2.6332,2.6573,2.6708,2.6708,2.6708,2.6708,2.6674,2.6522,2.6436,2.6401,2.6174,2.598,2.5819,2.4914,2.4116,2.3681,2.3595,2.3595,2.3595,2.3595,2.3595,2.3595,2.3595,2.3595,2.3595,2.3595,2.3595,2.3595,2.3595,2.3595,2.3509,2.3198,2.3306,2.3726,2.2919,2.2908,2.3612,2.3146,2.2498,2.2075,2.2378,2.2485,2.2275,2.2486,2.2594,2.2715,2.3208,2.3861,2.4596,2.5237,2.6093,2.7015,2.8066,2.875,2.9005,2.9534,2.9891,3.0042,3.0421,3.0587,3.0295,3.0524,3.0658,3.0357,3.0073,2.9933,2.9857,2.9848,2.9849,2.9651,2.9377,2.9189,2.8826,2.8796,2.7748,2.7348,2.6818,2.6086,2.5825,2.5428,2.5224,2.4962,2.4675,2.4908,2.541,2.5682,2.5845,2.6084,2.6336,2.6361,2.6386,2.6386,2.6487,2.6487,2.6487,2.6487,2.665,2.7431,2.8147,2.8624,2.8976,2.9465,2.9779,2.9779,2.9779,2.5182,2.5163,2.5125,2.5047,2.5047,2.5166,2.5468,2.587,2.6085,2.6332,2.6607,2.6674,2.6708,2.6708,2.6624,2.659,2.6573,2.6139,2.5872,2.5852,2.5726,2.5392,2.4677,2.4471,2.4116,2.3659,2.3595,2.3595,2.3595,2.3595,2.3595,2.3595,2.3595,2.3595,2.3595,2.3595,2.3595,2.3595,2.3595,2.361,2.3686,2.3608,2.3917,2.4566,2.3976,2.4085,2.4993,2.4832,2.4326,2.3856,2.386,2.3703,2.3388,2.322,2.3225,2.3242,2.3956,2.4726,2.5378,2.6301,2.7194,2.8282,2.9113,2.9739,3.029,3.0778,3.1146,3.1175,3.1336,3.1409,3.1349,3.1377,3.1376,3.1391,3.0853,3.0537,3.0394,3.0378,3.0425,3.0409,3.036,3.0346,3.0291,3.0661,3.011,2.9218,2.8672,2.7816,2.6935,2.6091,2.5716,2.5473,2.5255,2.541,2.5921,2.6368,2.6555,2.6783,2.696,2.6973,2.6645,2.6521,2.6487,2.6487,2.6487,2.6487,2.6763,2.7494,2.8009,2.8298,2.8812,2.949,2.9779,2.9779,2.9779,2.4969,2.4592,2.4184,2.4027,2.4158,2.4831,2.5297,2.5505,2.6228,2.6556,2.6691,2.6708,2.6674,2.6657,2.6332,2.6191,2.605,2.5635,2.5147,2.4855,2.4816,2.4697,2.445,2.4405,2.4116,2.3659,2.3595,2.3595,2.3595,2.3595,2.3595,2.3595,2.3595,2.361,2.3595,2.364,2.3595,2.3595,2.361,2.3879,2.4253,2.4304,2.4646,2.5199,2.4712,2.48,2.5589,2.5929,2.5438,2.4275,2.3824,2.3508,2.337,2.3677,2.3943,2.4157,2.5128,2.6159,2.6933,2.794,2.8958,2.9811,3.0396,3.1012,3.1146,3.1365,3.1496,3.1496,3.1496,3.1496,3.1496,3.1496,3.1496,3.1496,3.1271,3.1155,3.1145,3.119,3.119,3.119,3.1146,3.1131,3.0999,3.0792,3.0284,2.9275,2.8647,2.8084,2.7294,2.667,2.6275,2.626,2.6135,2.616,2.6405,2.6909,2.7281,2.7512,2.767,2.7769,2.7196,2.6589,2.6555,2.6487,2.6487,2.6487,2.6839,2.7356,2.767,2.8047,2.8837,2.9578,2.9729,2.9779,2.9779,2.4348,2.4074,2.397,2.4074,2.4348,2.5182,2.5635,2.591,2.6402,2.6708,2.6657,2.647,2.6401,2.6349,2.589,2.567,2.558,2.5109,2.4712,2.4492,2.4485,2.4328,2.4145,2.4053,2.39,2.3638,2.3595,2.3595,2.3595,2.3595,2.3595,2.3595,2.3595,2.3729,2.4051,2.4007,2.4007,2.4022,2.4007,2.4231,2.4552,2.456,2.5156,2.564,2.5443,2.5331,2.5974,2.6362,2.6129,2.5302,2.4641,2.4193,2.4097,2.4163,2.4452,2.4765,2.6077,2.7158,2.795,2.9114,3.0143,3.0798,3.1346,3.1451,3.1467,3.1496,3.1496,3.1496,3.1496,3.1496,3.1496,3.1496,3.1496,3.1496,3.1496,3.1496,3.1496,3.1467,3.1496,3.1496,3.1467,3.1322,3.1087,3.0837,3.0194,2.9411,2.9129,2.8547,2.7867,2.7351,2.6905,2.6769,2.6748,2.6739,2.6945,2.7413,2.7879,2.8155,2.8556,2.8634,2.7868,2.704,2.6748,2.6714,2.6589,2.6562,2.6839,2.719,2.7607,2.816,2.8963,2.9453,2.9603,2.9779,2.9779,2.373,2.3709,2.4246,2.4752,2.5202,2.5762,2.6122,2.6539,2.6657,2.6657,2.6539,2.6157,2.6096,2.5985,2.5577,2.5281,2.5353,2.4973,2.4596,2.4468,2.4379,2.4124,2.3747,2.3883,2.3779,2.3625,2.3595,2.3595,2.3595,2.3595,2.3595,2.364,2.367,2.4007,2.4425,2.4619,2.4679,2.456,2.4649,2.4724,2.4865,2.4938,2.558,2.645,2.6228,2.6052,2.64,2.663,2.6532,2.6363,2.5769,2.5245,2.5175,2.4652,2.4974,2.5772,2.7,2.8072,2.8708,2.9918,3.081,3.1316,3.1451,3.1496,3.1496,3.1496,3.1496,3.1496,3.1496,3.1496,3.1496,3.1496,3.1496,3.1496,3.1496,3.1496,3.1496,3.1496,3.1496,3.1496,3.1496,3.1117,3.0866,3.0777,3.0763,2.9286,2.9034,2.8588,2.8051,2.7537,2.7217,2.7095,2.7129,2.7196,2.7537,2.7953,2.8414,2.8798,2.938,2.9456,2.8666,2.7901,2.733,2.704,2.7027,2.6816,2.6575,2.7002,2.7599,2.7971,2.8586,2.9101,2.9515,2.9704,2.9779,2.4612,2.4282,2.4796,2.5105,2.5278,2.5762,2.6085,2.6209,2.6556,2.647,2.6191,2.6031,2.6048,2.6094,2.5627,2.5638,2.5911,2.5452,2.507,2.4513,2.3996,2.3789,2.3729,2.4051,2.4051,2.3744,2.3595,2.361,2.3625,2.3729,2.3625,2.3714,2.4186,2.447,2.4694,2.5187,2.5098,2.4799,2.5098,2.5367,2.551,2.583,2.6421,2.7215,2.714,2.689,2.6674,2.7078,2.6785,2.5919,2.5536,2.5329,2.512,2.5619,2.6256,2.707,2.8294,2.9379,3.0028,3.068,3.1301,3.1436,3.1496,3.1496,3.1496,3.1496,3.1496,3.1496,3.1496,3.1496,3.1496,3.1496,3.1496,3.1496,3.1496,3.1496,3.1496,3.1496,3.1496,3.1496,3.1496,3.1409,3.1175,3.0718,3.0269,2.9286,2.8876,2.8524,2.8136,2.7723,2.7471,2.7317,2.7471,2.755,2.7736,2.8363,2.9223,2.9628,3.0178,3.0404,2.958,2.8716,2.8149,2.7769,2.7504,2.7229,2.693,2.7327,2.8071,2.815,2.8197,2.875,2.9214,2.949,2.9779,2.5012,2.4851,2.5338,2.5577,2.567,2.612,2.6332,2.6314,2.6332,2.6228,2.5989,2.581,2.5759,2.5811,2.5626,2.5704,2.5796,2.5417,2.4948,2.4582,2.4201,2.3939,2.3744,2.4171,2.4261,2.3744,2.3954,2.4036,2.4111,2.4335,2.4612,2.4537,2.4889,2.5277,2.551,2.5899,2.5884,2.5719,2.5854,2.6063,2.6153,2.6393,2.6901,2.745,2.7585,2.7382,2.7122,2.6982,2.6864,2.6455,2.6122,2.5755,2.555,2.635,2.727,2.8171,2.9267,3.0073,3.0582,3.1077,3.1481,3.1496,3.1496,3.1496,3.1496,3.1496,3.1496,3.1496,3.1496,3.1496,3.1496,3.1496,3.1496,3.1496,3.1496,3.1496,3.1496,3.1496,3.1496,3.1496,3.1496,3.1248,3.0925,3.0688,3.0178,2.938,2.9642,2.9286,2.8524,2.8103,2.7637,2.7517,2.7756,2.792,2.8019,2.8748,3.0042,3.0539,3.0955,3.1058,3.0718,2.9797,2.8894,2.8588,2.8298,2.7835,2.7636,2.8085,2.8098,2.7857,2.7921,2.8411,2.8925,2.9415,2.9679,2.5316,2.5373,2.5888,2.612,2.6174,2.6522,2.6624,2.6487,2.6175,2.589,2.5742,2.5466,2.5402,2.5354,2.5704,2.5788,2.5779,2.5375,2.5196,2.5113,2.4664,2.4276,2.4044,2.4126,2.4231,2.3849,2.4246,2.4545,2.4859,2.5262,2.533,2.554,2.5719,2.5944,2.6437,2.6716,2.6626,2.6462,2.6626,2.6641,2.6611,2.6692,2.7151,2.7465,2.7585,2.7458,2.7229,2.7049,2.6948,2.7505,2.7091,2.6688,2.664,2.7153,2.8219,2.9194,3.009,3.0449,3.0791,3.1182,3.1496,3.1496,3.1496,3.1496,3.1496,3.163,3.1645,3.16,3.16,3.1675,3.154,3.169,3.1645,3.154,3.1496,3.1496,3.1467,3.1453,3.1248,3.1248,3.1336,3.1248,3.0896,3.0628,3.0072,2.969,2.995,2.9858,2.9002,2.8395,2.7855,2.7584,2.7756,2.8588,2.8812,2.9411,3.0703,3.1014,3.1496,3.1467,3.138,3.0807,2.995,2.9442,2.9066,2.8588,2.8182,2.8218,2.8044,2.7554,2.7682,2.8273,2.8825,2.9352,2.9603,2.587,2.5906,2.6384,2.659,2.659,2.6657,2.6453,2.6138,2.5997,2.5484,2.4838,2.5175,2.5175,2.5198,2.6038,2.6686,2.6841,2.6378,2.6078,2.5824,2.5143,2.4425,2.4246,2.3969,2.4044,2.4365,2.4649,2.4918,2.5322,2.5546,2.5839,2.5809,2.6183,2.6572,2.6767,2.7061,2.7106,2.6866,2.7091,2.7106,2.6896,2.7121,2.7375,2.7585,2.7585,2.7357,2.7049,2.7207,2.744,2.754,2.7963,2.7854,2.7665,2.8077,2.9253,3.0378,3.0657,3.0806,3.1182,3.1376,3.1496,3.1496,3.1555,3.1555,3.166,3.1989,3.2093,3.1914,3.2034,3.2138,3.1585,3.2034,3.1989,3.1735,3.157,3.1511,3.1366,3.1073,3.0628,3.0554,3.0896,3.1248,3.0837,3.0554,3.0238,2.9813,2.9752,2.9442,2.862,2.8201,2.792,2.7756,2.769,2.878,2.9735,3.048,3.1307,3.1248,3.1496,3.1496,3.1438,3.1453,3.0999,3.0329,2.9827,2.938,2.9002,2.8556,2.7828,2.7241,2.7597,2.8122,2.8586,2.9089,2.9628,2.6367,2.6384,2.6624,2.6708,2.6657,2.6419,2.621,2.5924,2.5427,2.5092,2.5077,2.5312,2.5591,2.5871,2.6617,2.7315,2.7345,2.6911,2.6437,2.5905,2.5083,2.4365,2.4171,2.3759,2.4313,2.4844,2.5143,2.5442,2.6108,2.6512,2.6527,2.6716,2.7001,2.7121,2.7165,2.7405,2.7405,2.724,2.7405,2.745,2.7136,2.748,2.7585,2.76,2.7615,2.7408,2.7314,2.7747,2.8062,2.8205,2.8747,2.885,2.8933,2.9265,3.0148,3.1152,3.1182,3.1107,3.1436,3.1496,3.1496,3.1555,3.178,3.2004,3.2183,3.2572,3.2781,3.2736,3.2691,3.2901,3.2647,3.2811,3.2662,3.2183,3.2004,3.1663,3.1146,3.094,3.0553,3.007,3.0359,3.0673,3.0644,3.0419,3.0329,3.0072,2.9721,2.9083,2.8363,2.8233,2.8201,2.8492,2.8607,2.9504,3.0434,3.0955,3.1496,3.1496,3.1496,3.1496,3.1496,3.1467,3.1409,3.1029,3.0554,3.0147,2.9348,2.8748,2.7835,2.7122,2.7688,2.8194,2.8422,2.8812,2.944,2.6708,2.6708,2.6708,2.6641,2.6505,2.6174,2.587,2.554,2.4812,2.4642,2.5026,2.5425,2.5788,2.6288,2.6926,2.7435,2.7525,2.7016,2.6512,2.5884,2.5202,2.4485,2.3962,2.3917,2.441,2.536,2.5779,2.6138,2.6737,2.721,2.7495,2.745,2.754,2.7585,2.757,2.7555,2.7585,2.7585,2.7585,2.7585,2.76,2.7735,2.7809,2.7854,2.7929,2.8053,2.8136,2.8506,2.8891,2.9107,2.949,2.9846,3.0028,3.0432,3.0913,3.1391,3.1496,3.1496,3.1496,3.1511,3.1585,3.1795,3.2213,3.2467,3.2796,3.311,3.3484,3.3649,3.3679,3.3559,3.3365,3.3604,3.3335,3.2901,3.2602,3.2303,3.1515,3.1056,3.0804,3.0475,3.0282,3.0238,3.0359,3.0389,3.0329,3.0042,2.969,2.9334,2.8703,2.8734,2.883,2.9366,2.9813,3.051,3.1058,3.1175,3.1496,3.1496,3.1496,3.1496,3.1496,3.1496,3.1409,3.1351,3.1322,3.0807,2.9919,2.9097,2.8427,2.8073,2.8119,2.8191,2.8346,2.8875,2.9603,2.6708,2.6708,2.6691,2.6453,2.6104,2.5979,2.5411,2.4637,2.445,2.4152,2.4143,2.507,2.5422,2.5571,2.6372,2.7076,2.739,2.7345,2.6881,2.6168,2.557,2.4903,2.4485,2.45,2.4822,2.56,2.6153,2.6836,2.727,2.751,2.7585,2.7585,2.7585,2.7585,2.7585,2.7585,2.7585,2.7585,2.7585,2.7615,2.7735,2.8158,2.8368,2.8622,2.8948,2.9202,2.9142,2.9367,2.9624,3.0118,3.0298,3.0702,3.1152,3.1331,3.1406,3.1481,3.1496,3.1496,3.1496,3.16,3.1809,3.2168,3.2542,3.2841,3.335,3.3604,3.3933,3.4369,3.4384,3.4204,3.3948,3.4129,3.3918,3.3649,3.3365,3.296,3.2272,3.1529,3.1261,3.0757,3.0534,3.0342,3.0329,3.0343,3.0329,2.9981,2.9659,2.9303,2.924,2.9334,2.9597,3.0133,3.045,3.1087,3.1278,3.1467,3.1496,3.1496,3.1496,3.1496,3.1496,3.1496,3.1496,3.1467,3.1496,3.1351,3.0569,2.9811,2.916,2.8789,2.8578,2.8388,2.8219,2.89,2.9741,2.6708,2.6674,2.6435,2.6191,2.5941,2.5373,2.4835,2.441,2.409,2.4042,2.4394,2.553,2.6321,2.6655,2.7182,2.73,2.748,2.7225,2.6647,2.6033,2.5367,2.4709,2.4246,2.444,2.4963,2.5674,2.6288,2.6926,2.7405,2.7585,2.7585,2.7585,2.7585,2.7585,2.7615,2.76,2.7585,2.7585,2.763,2.7824,2.8139,2.8457,2.8801,2.9146,2.946,2.9609,2.9726,2.9968,3.0178,3.0582,3.0806,3.1167,3.1421,3.1496,3.1496,3.1496,3.1496,3.1496,3.154,3.1854,3.2198,3.2677,3.3185,3.3978,3.4442,3.4592,3.4651,3.5011,3.5055,3.4861,3.4666,3.4891,3.4592,3.4354,3.4099,3.3326,3.2804,3.2376,3.184,3.129,3.0727,3.0355,3.0086,3.0117,2.9827,2.9192,2.9192,2.9272,2.9597,3.0163,3.048,3.0911,3.1146,3.1409,3.1438,3.1496,3.1496,3.1496,3.1496,3.1496,3.1496,3.1496,3.1496,3.1511,3.1511,3.1307,3.0984,3.0577,2.9956,2.9455,2.8937,2.877,2.864,2.9064,2.9729,2.6708,2.6657,2.6209,2.5941,2.5707,2.4792,2.4328,2.4158,2.3794,2.3879,2.4589,2.5689,2.6972,2.7953,2.7695,2.7435,2.727,2.6836,2.6093,2.5412,2.4978,2.4582,2.4455,2.4694,2.545,2.5869,2.6641,2.7165,2.7435,2.7585,2.7585,2.7585,2.7585,2.7585,2.7645,2.7824,2.7944,2.7959,2.8154,2.8338,2.8577,2.8966,2.937,2.9729,2.9953,3.0058,3.0148,3.0477,3.0761,3.0896,3.1167,3.1436,3.1496,3.1496,3.1496,3.1555,3.166,3.1824,3.1929,3.2198,3.2587,3.3245,3.3918,3.4846,3.5235,3.5489,3.5489,3.5415,3.5415,3.5444,3.5489,3.5444,3.5205,3.4906,3.4726,3.3837,3.3081,3.2787,3.215,3.1314,3.0629,2.9884,2.9721,2.9827,2.9393,2.8505,2.8556,2.9083,2.9905,3.0733,3.0999,3.1322,3.138,3.1496,3.1496,3.1496,3.1496,3.1555,3.1555,3.1525,3.1555,3.1525,3.1496,3.1511,3.157,3.1707,3.1694,3.1228,3.0747,3.0007,2.9388,2.9239,2.9241,2.9543,2.9704,2.6708,2.6641,2.6191,2.5707,2.5224,2.4637,2.4116,2.3745,2.3616,2.3691,2.4101,2.5107,2.6486,2.7409,2.7635,2.73,2.6722,2.6617,2.5899,2.536,2.5151,2.4963,2.4963,2.5472,2.6333,2.6527,2.7061,2.742,2.7585,2.7585,2.7585,2.76,2.7764,2.766,2.7884,2.8334,2.8502,2.8622,2.8933,2.9007,2.919,2.9609,3.0283,3.0522,3.0972,3.1361,3.1361,3.1316,3.1301,3.1301,3.1421,3.1496,3.1496,3.1496,3.1496,3.157,3.2019,3.2228,3.2482,3.2736,3.323,3.4128,3.4891,3.5325,3.5474,3.5489,3.5489,3.5489,3.5489,3.5489,3.5489,3.5474,3.54,3.531,3.5115,3.4795,3.4038,3.3418,3.2715,3.1498,3.0604,2.9879,2.9272,2.938,2.916,2.833,2.9034,2.9597,3.048,3.1248,3.1307,3.1438,3.1467,3.1496,3.1511,3.157,3.1765,3.1795,3.178,3.1705,3.1645,3.16,3.1511,3.166,3.1765,3.2093,3.2378,3.2018,3.1453,3.0447,2.9903,3.002,2.9683,2.9593,2.9704,2.6708,2.6624,2.5854,2.5392,2.5144,2.4251,2.3809,2.3616,2.3595,2.4072,2.4762,2.5387,2.6331,2.727,2.7575,2.748,2.7165,2.6761,2.6004,2.557,2.5435,2.5173,2.5277,2.58,2.6587,2.6776,2.727,2.7585,2.7585,2.7645,2.7944,2.8079,2.8218,2.8532,2.8801,2.9022,2.9146,2.9292,2.9475,2.9535,2.9953,3.0133,3.0702,3.1152,3.1256,3.1496,3.1466,3.1481,3.1496,3.1496,3.1467,3.1496,3.1525,3.1525,3.157,3.166,3.2273,3.2736,3.317,3.3484,3.4173,3.4831,3.5355,3.5489,3.5489,3.5489,3.5489,3.5489,3.5489,3.5489,3.5489,3.5489,3.5474,3.5489,3.5429,3.5295,3.4812,3.4049,3.3232,3.2017,3.0881,2.9901,2.938,2.8894,2.8588,2.8298,2.9209,3.0133,3.097,3.157,3.16,3.1511,3.1496,3.16,3.163,3.1824,3.2064,3.2093,3.2079,3.1989,3.1899,3.1585,3.1555,3.1735,3.2064,3.2482,3.2736,3.2736,3.2156,3.118,3.0952,3.1128,3.0572,2.9744,2.9704,2.6504,2.6367,2.5392,2.5051,2.5047,2.4053,2.3595,2.3595,2.3595,2.4323,2.5529,2.5643,2.6316,2.7226,2.7563,2.7405,2.7076,2.6542,2.5914,2.5555,2.5352,2.5285,2.5486,2.6108,2.7016,2.7031,2.727,2.7585,2.76,2.7794,2.8304,2.8783,2.9071,2.94,2.9442,2.9801,2.9849,2.9864,3.0133,3.0133,3.0522,3.0746,3.0943,3.1421,3.1496,3.1278,3.1248,3.1248,3.1322,3.1292,3.1292,3.1467,3.157,3.1675,3.1809,3.2108,3.2632,3.3305,3.3799,3.4412,3.4966,3.5355,3.5444,3.5489,3.5489,3.5489,3.5489,3.5489,3.5489,3.5489,3.5489,3.5489,3.5489,3.5489,3.5489,3.5337,3.4907,3.426,3.3448,3.2515,3.1257,2.995,3.0026,2.963,2.9635,2.9614,3.0444,3.0981,3.1176,3.1645,3.178,3.1645,3.1496,3.1645,3.1795,3.2108,3.2437,3.2677,3.2617,3.2392,3.2213,3.1944,3.1839,3.2093,3.2497,3.2916,3.335,3.3693,3.294,3.1886,3.1639,3.1266,3.0528,2.9716,2.9741,2.6015,2.587,2.4891,2.4716,2.5008,2.4053,2.3595,2.361,2.3684,2.4372,2.5431,2.5615,2.6327,2.7325,2.7505,2.736,2.6911,2.6228,2.5615,2.5322,2.5741,2.5704,2.6048,2.6722,2.7375,2.7525,2.76,2.7615,2.7705,2.8169,2.8828,2.9549,2.9998,3.0178,2.9756,3.0193,3.0462,3.0567,3.1062,3.0943,3.0823,3.1107,3.1361,3.1466,3.1336,3.0999,3.1029,3.1058,3.1058,3.0925,3.1411,3.1631,3.169,3.2213,3.2497,3.2736,3.3724,3.4309,3.4533,3.5115,3.5385,3.5474,3.5489,3.5489,3.5489,3.5489,3.5489,3.5489,3.5489,3.5489,3.5489,3.5489,3.5489,3.5489,3.5489,3.5412,3.4981,3.4466,3.3671,3.3027,3.1367,3.0016,3.0357,3.0587,3.0766,3.106,3.1796,3.202,3.1885,3.1854,3.2049,3.2228,3.2079,3.2198,3.2422,3.2557,3.2781,3.3066,3.3215,3.311,3.2886,3.2647,3.2602,3.2617,3.308,3.3694,3.4307,3.4859,3.3634,3.2376,3.1429,3.0869,3.0203,2.9779,2.9779,2.5797,2.5411,2.4697,2.4496,2.4552,2.3906,2.3595,2.3684,2.4073,2.4515,2.5068,2.5794,2.6408,2.6971,2.7405,2.745,2.7225,2.7151,2.6557,2.6048,2.6467,2.6512,2.6707,2.7031,2.7585,2.7585,2.7615,2.7929,2.8293,2.8652,2.9295,3.0073,3.0761,3.1046,3.0943,3.1107,3.1152,3.1182,3.1376,3.1376,3.1212,3.1376,3.1496,3.1482,3.1058,3.0866,3.0896,3.0955,3.0866,3.0969,3.1618,3.2034,3.2198,3.2751,3.3185,3.341,3.4144,3.4696,3.4996,3.5415,3.5474,3.5489,3.5489,3.5489,3.5489,3.5489,3.5489,3.5489,3.5489,3.5489,3.5489,3.5489,3.5489,3.5489,3.5489,3.5489,3.5168,3.4626,3.3989,3.3416,3.2191,3.2035,3.2186,3.2121,3.2182,3.2189,3.2764,3.2855,3.2736,3.2467,3.2512,3.2916,3.3036,3.3051,3.3125,3.326,3.3544,3.3918,3.4053,3.4038,3.3769,3.335,3.3245,3.3215,3.3858,3.4487,3.4658,3.4653,3.3845,3.2835,3.1626,3.0672,3.0024,2.9779,2.9779,2.524,2.4871,2.4348,2.4225,2.4287,2.3837,2.3693,2.3984,2.4425,2.4829,2.5427,2.6273,2.6767,2.7046,2.736,2.7585,2.757,2.73,2.7151,2.6662,2.6986,2.6836,2.6866,2.724,2.754,2.7645,2.7899,2.8203,2.8577,2.9056,2.9864,3.0746,3.1271,3.1346,3.1406,3.1421,3.1436,3.1436,3.1481,3.1481,3.1436,3.1496,3.1496,3.1365,3.1117,3.0851,3.0925,3.0896,3.0822,3.1338,3.1901,3.2482,3.2751,3.3275,3.3754,3.4054,3.4472,3.5026,3.537,3.5474,3.5489,3.5489,3.5489,3.5489,3.5489,3.5489,3.5489,3.5489,3.5489,3.5489,3.5489,3.5489,3.5489,3.5489,3.5489,3.5489,3.5335,3.476,3.4466,3.3924,3.3469,3.357,3.3813,3.381,3.3703,3.3661,3.3679,3.3619,3.3559,3.332,3.308,3.3395,3.3649,3.3604,3.3754,3.4023,3.4369,3.4788,3.4758,3.4608,3.4399,3.3933,3.3873,3.3918,3.4487,3.4842,3.4614,3.4288,3.3494,3.2533,3.1395,3.0548,2.9933,2.9829,2.9867,2.441,2.4287,2.3815,2.3921,2.422,2.3794,2.3969,2.456,2.4649,2.539,2.6551,2.6572,2.7001,2.7465,2.7585,2.7585,2.754,2.7046,2.6881,2.6752,2.6971,2.6806,2.6971,2.7315,2.754,2.7824,2.8128,2.8502,2.8786,2.9834,3.0763,3.1241,3.1421,3.1496,3.1496,3.1496,3.1496,3.1496,3.1496,3.1496,3.1496,3.1496,3.1496,3.1409,3.1219,3.094,3.0925,3.0896,3.0925,3.1294,3.1826,3.2378,3.3006,3.386,3.4309,3.4681,3.5145,3.5355,3.5474,3.5489,3.5489,3.5489,3.5489,3.5489,3.5489,3.5489,3.5489,3.5489,3.5489,3.5489,3.5489,3.5489,3.5489,3.5489,3.5489,3.5424,3.5359,3.5094,3.4901,3.4497,3.3948,3.3971,3.439,3.4562,3.4562,3.4637,3.4487,3.4292,3.4233,3.4128,3.3933,3.3873,3.4068,3.4068,3.4292,3.4622,3.4816,3.513,3.4921,3.4756,3.4623,3.4593,3.4547,3.4666,3.51,3.5228,3.5023,3.422,3.315,3.2196,3.1633,3.0586,2.9959,3.0019,3.0093,2.4163,2.3815,2.3659,2.3687,2.3794,2.3681,2.3999,2.4605,2.5068,2.5839,2.6602,2.7121,2.739,2.7585,2.7585,2.7585,2.7525,2.7435,2.7375,2.7285,2.7195,2.7285,2.739,2.7525,2.76,2.7869,2.8293,2.8966,2.9505,3.0597,3.1182,3.1466,3.138,3.1409,3.1438,3.1467,3.1467,3.1496,3.1496,3.1496,3.1496,3.1496,3.1496,3.1438,3.1073,3.0881,3.1131,3.0851,3.1012,3.1946,3.2675,3.332,3.3993,3.4711,3.5205,3.522,3.5415,3.5489,3.5489,3.5489,3.5489,3.5489,3.5489,3.5489,3.5489,3.5489,3.5489,3.5489,3.5489,3.5489,3.5489,3.5489,3.5489,3.5489,3.5489,3.5457,3.5392,3.5344,3.5166,3.5073,3.4504,3.4555,3.5008,3.507,3.51,3.531,3.5295,3.5026,3.4831,3.4711,3.4651,3.4577,3.4607,3.4666,3.4876,3.519,3.5295,3.5385,3.5175,3.5055,3.5085,3.51,3.516,3.525,3.5385,3.5444,3.5427,3.4501,3.3557,3.3044,3.2391,3.1138,3.0189,3.0262,3.0446,2.39,2.3616,2.3595,2.3595,2.3638,2.3815,2.4323,2.4994,2.5427,2.5974,2.6656,2.7285,2.7585,2.7585,2.7585,2.7585,2.7585,2.7555,2.7525,2.7525,2.7585,2.7555,2.7615,2.7839,2.8034,2.8263,2.8831,2.9669,3.0163,3.078,3.1438,3.0984,3.1029,3.1029,3.0984,3.097,3.119,3.138,3.1496,3.1496,3.1496,3.1496,3.1496,3.1409,3.0911,3.1131,3.1454,3.1057,3.1737,3.2587,3.329,3.4008,3.4593,3.5085,3.5459,3.5459,3.5474,3.5489,3.5489,3.5489,3.5489,3.5489,3.5489,3.5489,3.5489,3.5489,3.5489,3.5489,3.5489,3.5489,3.5489,3.5489,3.5489,3.5489,3.5489,3.5489,3.5489,3.5489,3.5457,3.5457,3.5379,3.5379,3.5459,3.5489,3.5489,3.5474,3.5459,3.537,3.522,3.513,3.5145,3.513,3.522,3.5325,3.5489,3.5489,3.5489,3.5474,3.5415,3.537,3.5489,3.5474,3.537,3.54,3.5474,3.5624,3.5848,3.5102,3.4309,3.3917,3.3667,3.2836,3.1681,3.0747,3.0931,2.3595,2.3595,2.3595,2.3595,2.3659,2.409,2.4691,2.5488,2.5465,2.5974,2.6716,2.733,2.7585,2.7585,2.7585,2.7585,2.7585,2.7585,2.7585,2.7585,2.7585,2.7585,2.7779,2.8128,2.8203,2.8861,2.9564,3.0103,3.0614,3.0965,3.0866,3.0315,3.0389,3.0464,3.0524,3.0748,3.1058,3.1409,3.1496,3.1496,3.1496,3.1496,3.1496,3.1496,3.1453,3.154,3.1735,3.2049,3.2542,3.3066,3.365,3.4429,3.4831,3.513,3.5415,3.5489,3.5489,3.5489,3.5489,3.5489,3.5489,3.5489,3.5489,3.5489,3.5489,3.5489,3.5489,3.5489,3.5489,3.5489,3.5489,3.5489,3.5489,3.5489,3.5489,3.5489,3.5489,3.5424,3.5311,3.5311,3.5392,3.5344,3.51,3.5052,3.5489,3.5489,3.5489,3.5489,3.5474,3.5415,3.5429,3.5489,3.5489,3.5489,3.5489,3.5489,3.5489,3.5489,3.5489,3.5489,3.5489,3.5504,3.5519,3.5684,3.5878,3.6133,3.6179,3.5698,3.5563,3.5586,3.5252,3.4665,3.3587,3.2228,3.1481,2.3595,2.3595,2.3595,2.3595,2.3595,2.373,2.4205,2.4814,2.4829,2.5809,2.7165,2.7495,2.7585,2.7585,2.7585,2.7585,2.7585,2.7585,2.7585,2.7585,2.7585,2.7675,2.7645,2.7989,2.8248,2.8712,2.946,3.0434,3.0861,3.0822,3.0539,3.0284,3.0238,3.0178,3.0343,3.0673,3.1146,3.1467,3.1496,3.1496,3.1496,3.1496,3.1496,3.1511,3.1525,3.1839,3.2079,3.2392,3.3185,3.3934,3.4234,3.4758,3.5235,3.5415,3.5489,3.5489,3.5489,3.5489,3.5489,3.5504,3.5534,3.5534,3.5534,3.5504,3.5489,3.5489,3.5489,3.5489,3.5489,3.5489,3.5534,3.5534,3.5549,3.5549,3.5489,3.5489,3.5489,3.5344,3.5166,3.518,3.5246,3.51,3.4839,3.4953,3.5344,3.5489,3.5489,3.5489,3.5489,3.5459,3.5459,3.5489,3.5489,3.5489,3.5489,3.5489,3.5489,3.5489,3.5489,3.5489,3.5489,3.5639,3.5789,3.6118,3.6372,3.6656,3.6911,3.7003,3.6921,3.7002,3.6742,3.6116,3.5436,3.4248,3.3088,2.3595,2.3595,2.3595,2.3595,2.3595,2.3595,2.4148,2.4874,2.4739,2.5734,2.736,2.733,2.73,2.754,2.7585,2.7585,2.7585,2.7585,2.7585,2.7585,2.7645,2.7854,2.7899,2.8049,2.8831,2.9355,3.0076,3.0799,3.0925,3.0628,3.0269,2.9858,2.9766,2.9981,3.0269,3.0807,3.1219,3.1467,3.1496,3.1511,3.1511,3.1511,3.1496,3.1511,3.1824,3.2138,3.2542,3.2946,3.3754,3.4459,3.4773,3.504,3.5385,3.5474,3.5489,3.5489,3.5489,3.5489,3.5489,3.5519,3.5624,3.5714,3.5564,3.5534,3.5893,3.5878,3.5519,3.5489,3.5489,3.5504,3.5774,3.5848,3.5908,3.5938,3.5669,3.5489,3.5489,3.5424,3.5311,3.5311,3.5359,3.5326,3.518,3.518,3.5504,3.5489,3.5489,3.5489,3.5489,3.5489,3.5489,3.5549,3.5579,3.5534,3.5489,3.5489,3.5489,3.5489,3.5489,3.5489,3.5534,3.5818,3.6088,3.6417,3.6806,3.7255,3.7494,3.7764,3.8153,3.8264,3.7963,3.7551,3.6834,3.5994,3.4713,2.3595,2.3595,2.3595,2.3595,2.3595,2.3595,2.4283,2.5173,2.4769,2.557,2.7165,2.6722,2.6956,2.7405,2.7585,2.7585,2.7585,2.7585,2.7585,2.7585,2.7585,2.7944,2.8278,2.8592,2.928,3.0007,3.0727,3.0602,3.045,3.0086,2.9642,2.9129,2.9254,2.9566,3.0103,3.0524,3.094,3.1336,3.1511,3.157,3.157,3.1555,3.16,3.1809,3.2168,3.2557,3.308,3.3649,3.4414,3.4818,3.513,3.5325,3.5444,3.5489,3.5489,3.5489,3.5489,3.5489,3.5489,3.5504,3.5804,3.5968,3.5699,3.5729,3.6073,3.5983,3.5609,3.5624,3.5624,3.5639,3.5908,3.6178,3.6237,3.6178,3.5833,3.5759,3.5774,3.5741,3.5708,3.566,3.5583,3.5615,3.546,3.546,3.5549,3.5534,3.5519,3.5504,3.5489,3.5489,3.5489,3.5639,3.5774,3.5684,3.5549,3.5549,3.5564,3.5489,3.5489,3.5489,3.5594,3.5938,3.6327,3.6731,3.7135,3.7749,3.8182,3.8482,3.8901,3.9119,3.885,3.8376,3.787,3.6973,3.5929,2.3595,2.3595,2.3595,2.3595,2.3595,2.3595,2.4051,2.4605,2.4126,2.4911,2.6333,2.6273,2.6408,2.7585,2.7585,2.7585,2.7585,2.7585,2.7585,2.7585,2.7705,2.8109,2.8592,2.9101,2.952,3.0075,3.0514,3.0377,2.9858,2.9456,2.9223,2.9002,2.9827,3.0147,3.0329,3.0777,3.1248,3.1511,3.1645,3.1765,3.2019,3.2004,3.1929,3.2123,3.2452,3.32,3.3873,3.4324,3.4818,3.5175,3.5385,3.5474,3.5489,3.5489,3.5489,3.5489,3.5489,3.5489,3.5489,3.5489,3.5774,3.5878,3.5654,3.5609,3.5818,3.5848,3.5759,3.6088,3.6043,3.5789,3.5998,3.6357,3.6492,3.6267,3.5983,3.6462,3.6746,3.6675,3.6637,3.642,3.6175,3.5857,3.5336,3.5488,3.5729,3.5729,3.5774,3.5774,3.5848,3.5714,3.5609,3.5833,3.6073,3.5804,3.5639,3.5654,3.5654,3.5564,3.5594,3.5774,3.5953,3.6148,3.6537,3.715,3.7778,3.8392,3.8796,3.9005,3.9155,3.9284,3.9328,3.9081,3.8583,3.7648,3.6369]}]]